[[{"header":{"parameterUnit":"m.s-1","parameterCategory":1,"la1":31.0,"la2":29.5877,"lo1":-88.7671,"lo2":-86.6584,"dy":0.0162,"dx":0.0185,"nx":115,"ny":88,"refTime":"2023-06-22T12:00:00:Z","depth":0,"parameterNumber":2,"parameterNumberName":"U-component_of_WINDS"},"data":[0.0,0.0,0.0,0.0,0.0,0.0,0.0,0.0,0.0,0.0,0.0,0.0,0.0,0.0,0.0,0.0,0.0,0.0,0.0,0.0,0.0,0.0,0.0,0.0,0.0,0.0,0.0,0.0,0.0,0.0,0.0,0.0,0.0,0.0,0.0,0.0,0.0,0.0,0.0,0.0,0.0,0.0,0.0,0.0,0.0,0.0,0.0,0.0,0.0,0.0,0.0,0.0,0.0,0.0,0.0,0.0,0.0,0.0,0.0,0.0,0.0,0.0,0.0,0.0,0.0,0.0,0.0,0.0,0.0,0.0,0.0,0.0,0.0,0.0,0.0,0.0,0.0,0.0,0.0,0.0,0.0,0.0,0.0,0.0,0.0,0.0,0.0,0.0,0.0,0.0,0.0,0.0,0.0,0.0,0.0,0.0,0.0,0.0,0.0,0.0,0.0,0.0,0.0,0.0,0.0,0.0,0.0,0.0,0.0,0.0,0.0,0.0,0.0,0.0,0.0,0.0,0.0,0.0,0.0,0.0,0.0,0.0,0.0,0.0,0.0,0.0,0.0,0.0,0.0,0.0,0.0,0.0,0.0,0.0,0.0,0.0,0.0,0.0,0.0,0.0,0.0,0.0,0.0,0.0,0.0,0.0,0.0,0.0,0.0,0.0,0.0,0.0,0.0,0.0,0.0,0.0,0.0,0.0,0.0,0.0,0.0,0.0,0.0,0.0,0.0,0.0,0.0,0.0,0.0,0.0,0.0,0.0,0.0,0.0,0.0,0.0,0.0,0.0,0.0,0.0,0.0,0.0,0.0,0.0,0.0,0.0,0.0,0.0,0.0,0.0,0.0,0.0,0.0,0.0,0.0,0.0,0.0,0.0,0.0,0.0,0.0,0.0,0.0,0.0,0.0,0.0,0.0,0.0,0.0,0.0,0.0,0.0,0.0,0.0,0.0,0.0,0.0,0.0,0.0,0.0,0.0,0.0,0.0,0.0,0.0,0.0,0.0,0.0,0.0,0.0,0.0,0.0,0.0,0.0,0.0,0.0,0.0,0.0,0.0,0.0,0.0,0.0,0.0,0.0,0.0,0.0,0.0,0.0,0.0,0.0,0.0,0.0,0.0,0.0,0.0,0.0,0.0,0.0,0.0,0.0,0.0,0.0,0.0,0.0,0.0,0.0,0.0,0.0,0.0,0.0,0.0,0.0,0.0,0.0,0.0,0.0,0.0,0.0,0.0,0.0,0.0,0.0,0.0,0.0,0.0,0.0,0.0,0.0,0.0,0.0,0.0,0.0,0.0,0.0,0.0,0.0,0.0,0.0,0.0,0.0,0.0,0.0,0.0,0.0,0.0,0.0,0.0,0.0,0.0,0.0,0.0,0.0,0.0,0.0,0.0,0.0,0.0,0.0,0.0,0.0,0.0,0.0,0.0,0.0,0.0,0.0,0.0,0.0,0.0,0.0,0.0,0.0,0.0,0.0,0.0,0.0,0.0,0.0,0.0,0.0,0.0,0.0,0.0,0.0,0.0,0.0,0.0,0.0,0.0,0.0,0.0,0.0,0.0,0.0,0.0,0.0,0.0,0.0,0.0,0.0,0.0,0.0,0.0,0.0,0.0,0.0,0.0,0.0,0.0,0.0,0.0,0.0,0.0,0.0,0.0,0.0,0.0,0.0,0.0,0.0,0.0,0.0,0.0,0.0,0.0,0.0,0.0,0.0,0.0,0.0,0.0,0.0,0.0,0.0,0.0,0.0,0.0,0.0,0.0,0.0,0.0,0.0,0.0,0.0,0.0,0.0,0.0,0.0,0.0,0.0,0.0,0.0,0.0,0.0,0.0,0.0,0.0,0.0,0.0,0.0,0.0,0.0,0.0,0.0,0.0,0.0,0.0,0.0,0.0,0.0,0.0,0.0,0.0,0.0,0.0,0.0,0.0,0.0,0.0,0.0,0.0,0.0,0.0,0.0,0.0,0.0,0.0,0.0,0.0,0.0,0.0,0.0,0.0,0.0,0.0,0.0,0.0,0.0,0.0,0.0,0.0,0.0,0.0,0.0,0.0,0.0,0.0,0.0,0.0,0.0,0.0,0.0,0.0,0.0,0.0,0.0,0.0,0.0,0.0,0.0,0.0,0.0,0.0,0.0,0.0,0.0,0.0,0.0,0.0,0.0,0.0,0.0,0.0,0.0,0.0,0.0,0.0,0.0,0.0,0.0,0.0,0.0,0.0,0.0,0.0,0.0,0.0,0.0,0.0,0.0,0.0,0.0,0.0,0.0,0.0,0.0,0.0,0.0,0.0,0.0,0.0,0.0,0.0,0.0,0.0,0.0,0.0,0.0,0.0,0.0,0.0,0.0,0.0,0.0,0.0,0.0,0.0,0.0,0.0,0.0,0.0,0.0,0.0,0.0,0.0,0.0,0.0,0.0,0.0,0.0,0.0,0.0,0.0,0.0,0.0,0.0,0.0,0.0,0.0,0.0,0.0,0.0,0.0,0.0,0.0,0.0,0.0,0.0,0.0,0.0,0.0,0.0,0.0,0.0,0.0,0.0,0.0,0.0,0.0,0.0,0.0,0.0,0.0,0.0,0.0,0.0,0.0,0.0,0.0,0.0,0.0,0.0,0.0,0.0,0.0,0.0,0.0,0.0,0.0,0.0,0.0,0.0,0.0,0.0,0.0,0.0,0.0,0.0,0.0,0.0,0.0,0.0,0.0,0.0,0.0,0.0,0.0,0.0,0.0,0.0,0.0,0.0,0.0,0.0,0.0,0.0,0.0,0.0,0.0,0.0,0.0,0.0,0.0,0.0,0.0,0.0,0.0,0.0,0.0,0.0,0.0,0.0,0.0,0.0,0.0,0.0,0.0,0.0,0.0,0.0,0.0,0.0,0.0,0.0,0.0,0.0,0.0,0.0,0.0,0.0,0.0,0.0,0.0,0.0,0.0,0.0,0.0,0.0,0.0,0.0,0.0,0.0,0.0,0.0,0.0,0.0,0.0,0.0,0.0,0.0,0.0,0.0,0.0,0.0,0.0,0.0,0.0,0.0,0.0,0.0,0.0,0.0,0.0,0.0,0.0,0.0,0.0,0.0,0.0,0.0,0.0,0.0,0.0,0.0,0.0,0.0,0.0,0.0,0.0,0.0,0.0,0.0,0.0,0.0,0.0,0.0,0.0,0.0,0.0,0.0,0.0,0.0,0.0,0.0,0.0,0.0,0.0,0.0,0.0,0.0,0.0,0.0,0.0,0.0,0.0,0.0,0.0,0.0,0.0,0.0,0.0,0.0,0.0,0.0,0.0,0.0,0.0,0.0,0.0,0.0,0.0,0.0,0.0,0.0,0.0,0.0,0.0,0.0,0.0,0.0,0.0,0.0,0.0,0.0,0.0,0.0,0.0,0.0,0.0,0.0,0.0,0.0,0.0,0.0,0.0,0.0,0.0,0.0,0.0,0.0,0.0,0.0,0.0,0.0,0.0,0.0,0.0,0.0,0.0,0.0,0.0,0.0,0.0,0.0,0.0,0.0,0.0,0.0,0.0,0.0,0.0,0.0,0.0,0.0,0.0,0.0,0.0,0.0,0.0,0.0,0.0,0.0,0.0,0.0,0.0,0.0,0.0,0.0,0.0,0.0,0.0,0.0,0.0,0.0,0.0,0.0,0.0,0.0,0.0,0.0,0.0,0.0,0.0,0.0,0.0,0.0,0.0,0.0,0.0,0.0,0.0,0.0,0.0,0.0,0.0,0.0,0.0,0.0,0.0,0.0,0.0,0.0,0.0,0.0,0.0,0.0,0.0,0.0,0.0,0.0,0.0,0.0,0.0,0.0,0.0,0.0,0.0,0.0,0.0,0.0,0.0,0.0,0.0,0.0,0.0,0.0,0.0,0.0,0.0,0.0,0.0,0.0,0.0,0.0,0.0,0.0,0.0,0.0,0.0,0.0,0.0,0.0,0.0,0.0,0.0,0.0,0.0,0.0,0.0,0.0,0.0,0.0,0.0,0.0,0.0,0.0,0.0,0.0,0.0,0.0,0.0,0.0,0.0,0.0,0.0,0.0,0.0,0.0,0.0,0.0,0.0,0.0,0.0,0.0,0.0,0.0,0.0,0.0,0.0,0.0,0.0,0.0,0.0,0.0,0.0,0.0,0.0,0.0,0.0,0.0,0.0,0.0,0.0,0.0,0.0,0.0,0.0,0.0,0.0,0.0,0.0,0.0,0.0,0.0,0.0,0.0,0.0,0.0,0.0,0.0,0.0,0.0,0.0,0.0,0.0,0.0,0.7204,0.0,0.0,0.0,0.0,0.0,0.0,0.0,0.0,0.0,0.0,0.0,0.0,0.0,0.0,0.0,0.0,0.0,0.0,0.0,0.0,0.0,0.0,0.0,0.0,0.0,0.0,0.0,0.0,0.0,0.0,0.0,0.0,0.0,0.0,0.0,0.0,0.0,0.0,0.0,0.0,0.0,0.0,0.0,0.0,0.0,0.0,0.0,0.0,0.0,0.0,0.0,0.0,0.0,0.0,0.0,0.0,0.0,0.0,0.0,0.0,0.0,0.0,0.0,0.0,0.0,0.0,0.0,0.0,0.0,0.0,0.0,0.0,0.0,0.0,0.0,0.0,0.0,0.0,0.0,0.0,0.0,0.0,0.0,0.0,0.0,0.0,0.0,0.0,0.0,0.0,0.0,0.0,0.0,0.0,0.0,0.0,0.0,0.0,0.0,0.0,0.0,0.0,0.0,0.0,0.0,0.0,0.0,0.0,0.0,0.0,0.6861,0.5783,0.5164,0.463,0.4275,0.0,0.0,0.0,0.0,0.0,0.0,0.0,0.0,0.0,0.0,0.0,0.0,0.0,0.0,0.0,0.0,0.0,0.0,0.0,0.0,0.0,0.0,0.0,0.0,0.0,0.0,0.0,0.0,0.0,0.0,0.0,0.0,0.0,0.0,0.0,0.0,0.0,0.0,0.0,0.0,0.0,0.0,0.0,0.0,0.0,0.0,0.0,0.0,0.0,0.0,0.0,0.0,0.0,0.0,0.0,0.0,0.0,0.0,0.0,0.0,0.0,0.0,0.0,0.0,0.0,0.0,0.0,0.0,0.0,0.0,0.0,0.0,0.0,0.0,0.0,0.0,0.0,0.0,0.0,0.0,0.0,0.0,0.0,0.0,0.0,0.0,0.0,0.0,0.0,0.0,0.0,0.0,0.0,0.0,0.0,0.0,0.0,0.0,0.0,0.0,0.0,0.0,0.0,0.0,0.0,0.0,0.0,0.0,0.0,0.0,0.0,0.0,0.2586,0.1963,0.1519,0.0,0.0,0.0,0.0,0.0,0.0,0.0,0.0,0.0,0.0,0.0,0.0,0.0,0.0,0.0,0.0,0.0,0.0,0.0,0.0,0.0,0.0,0.0,0.0,0.0,0.0,0.0,0.0,0.0,0.0,0.0,0.0,0.0,0.0,0.0,0.0,0.0,0.0,0.0,0.0,0.0,0.0,0.0,0.0,0.0,0.0,0.0,0.0,0.0,0.0,0.0,0.0,0.0,0.0,0.0,0.0,0.0,0.0,0.0,0.0,0.0,0.0,0.0,0.0,0.0,0.0,0.0,0.0,0.0,0.0,0.0,0.0,0.0,0.0,0.0,0.0,0.0,0.0,0.0,0.0,0.0,0.0,0.0,0.0,0.0,0.0,0.0,0.0,0.0,0.0,0.0,0.0,0.0,0.0,0.0,0.0,0.0,0.0,0.0,0.0,0.0,0.0,0.0,0.0,0.0,0.0,0.0,0.0,0.0,0.0,0.0983,0.0447,0.0089,0.0,-0.0447,0.0,0.0,0.0,0.0,0.0,0.0,0.0,0.0,0.0,0.0,0.0,0.0,0.0,0.0,0.0,0.0,0.0,0.0,0.0,0.0,0.0,0.0,0.0,0.0,0.0,0.0,0.0,0.0,0.0,0.0,0.0,0.0,0.0,0.0,0.0,0.0,0.0,0.0,0.0,0.0,0.0,0.0,0.0,0.0,0.0,0.0,0.0,0.0,0.0,0.0,0.0,0.0,0.0,0.0,0.0,0.0,0.0,0.0,0.0,0.0,0.0,0.0,0.0,0.0,0.0,0.0,0.0,0.0,0.0,0.0,0.0,0.0,0.0,0.0,0.0,0.0,0.0,0.0,0.0,0.0,0.0,0.0,0.0,0.0,0.0,0.0,0.0,0.0,0.0,0.0,0.0,0.0,0.0,0.0,0.0,0.0,0.0,0.0,0.0,0.0,0.0,0.0,0.0,0.0,0.0,0.0,0.0,0.0,0.0,0.0,-0.1696,-0.2318,-0.3296,-0.3742,0.0,0.0,0.0,0.0,0.0,0.0,0.0,0.0,0.0,0.0,0.0,0.0,0.0,0.0,0.0,0.0,0.0,0.0,0.0,0.0,0.0,0.0,0.0,0.0,0.0,0.0,0.0,0.0,0.0,0.0,0.0,0.0,0.0,0.0,0.0,0.0,0.0,0.0,0.0,0.0,0.0,0.0,0.0,0.0,0.0,0.0,0.0,0.0,0.0,0.0,0.0,0.0,0.0,0.0,0.0,0.0,0.0,0.0,0.0,0.0,0.0,0.0,0.0,0.0,0.0,0.0,0.0,0.0,0.0,0.0,0.0,0.0,0.0,0.0,0.0,0.0,0.0,0.0,0.0,0.0,0.0,0.0,0.0,0.0,0.0,0.0,0.0,0.0,0.0,0.0,0.0,0.0,0.0,0.0,0.0,0.0,0.0,0.0,0.0,0.0,0.0,0.0,0.0,0.0,0.0,0.0,0.0,0.0,0.0,0.0,-0.3037,-0.4101,-0.4982,-0.6048,-0.6495,-0.6322,0.0,0.0,0.0,0.0,0.0,0.0,0.0,0.0,0.0,0.0,0.0,0.0,0.0,0.0,0.0,0.0,0.0,0.0,0.0,0.0,0.0,0.0,0.0,0.0,0.0,0.0,0.0,0.0,0.0,0.0,0.0,0.0,0.0,0.0,0.0,0.0,0.0,0.0,0.0,0.0,0.0,0.0,0.0,0.0,0.0,0.0,0.0,0.0,0.0,0.0,0.0,0.0,0.0,0.0,0.0,0.0,0.0,0.0,0.0,0.0,0.0,0.0,0.0,0.0,0.0,0.0,0.0,0.0,0.0,0.0,0.0,0.0,0.0,0.0,0.0,0.0,0.0,0.0,0.0,0.0,0.0,0.0,0.0,0.0,0.0,0.0,0.0,0.0,0.0,0.0,0.0,0.0,0.0,0.0,0.0,0.0,0.0,0.0,0.0,0.0,0.0,0.0,0.0,0.0,0.0,0.0,0.0,0.0,-0.4569,-0.5267,-0.6233,-0.7632,-0.7727,-0.7727,0.0,0.0,0.0,0.0,0.0,0.0,0.0,0.0,0.0,0.0,0.0,0.0,0.0,0.0,0.0,0.0,0.0,0.0,0.0,0.0,0.0,0.0,0.0,0.0,0.0,0.0,0.0,0.0,0.0,0.0,0.0,0.0,0.0,0.0,0.0,0.0,0.0,0.0,0.0,0.0,0.0,0.0,0.0,0.0,0.0,0.0,0.0,0.0,0.0,0.0,0.0,0.0,0.0,0.0,0.0,0.0,0.0,0.0,0.0,0.0,0.0,0.0,0.0,0.0,0.0,0.0,0.0,0.0,0.0,0.0,0.0,0.0,0.0,0.0,0.0,0.0,0.0,0.0,0.0,0.0,0.0,0.0,0.0,0.0,0.0,0.0,0.0,0.0,0.0,0.0,0.0,0.0,0.0,0.0,0.0,0.0,0.0,0.0,0.0,0.0,0.0,0.0,0.0,0.0,0.0,0.0,0.0,0.0,0.0,-0.5794,-0.8066,-0.9808,-1.0849,-1.1187,-1.1268,0.0,0.0,0.0,0.0,0.0,0.0,0.0,0.0,0.0,0.0,0.0,0.0,0.0,0.0,0.0,0.0,0.0,0.0,0.0,0.0,0.0,0.0,0.0,0.0,0.0,0.0,0.0,0.0,0.0,0.0,0.0,0.0,0.0,0.0,0.0,0.0,0.0,0.0,0.0,0.0,0.0,0.0,0.0,0.0,0.0,0.0,0.0,0.0,0.0,0.0,0.0,0.0,0.0,0.0,0.0,0.0,0.0,0.0,0.0,0.0,0.0,0.0,0.0,0.0,0.0,0.0,0.0,0.0,0.0,0.0,0.0,0.0,0.0,0.0,0.0,0.0,0.0,0.0,0.0,0.0,0.0,0.0,0.0,0.0,0.0,0.0,0.0,0.0,0.0,0.0,0.0,0.0,0.0,0.0,0.0,0.0,0.0,0.0,0.0,0.0,0.0,0.0,0.0,0.0,0.0,0.0,0.0,0.0,0.0,-0.7975,0.0,-1.2401,-1.3178,-1.3607,-1.3685,0.0,0.0,0.0,0.0,0.0,0.0,0.0,0.0,0.0,0.0,0.0,0.0,0.0,0.0,0.0,0.0,0.0,0.0,0.0,0.0,0.0,0.0,0.0,0.0,0.0,0.0,0.0,0.0,0.0,0.0,0.0,0.0,0.0,0.0,0.0,0.0,0.0,0.0,0.0,0.0,0.0,0.0,0.0,0.0,0.0,0.0,0.0,0.0,0.0,0.0,0.0,0.0,0.0,0.0,0.0,0.0,0.0,0.0,0.0,0.0,0.0,0.0,0.0,0.0,0.0,0.0,0.0,0.0,0.0,0.0,0.0,0.0,0.0,0.0,0.0,0.0,0.0,0.0,0.0,0.0,0.0,0.0,0.0,0.0,0.0,0.0,0.0,0.0,0.0,0.0,0.0,0.0,0.0,0.0,0.0,0.0,0.0,0.0,0.0,0.0,0.0,0.0,0.0,0.0,0.0,0.0,0.0,0.0,-0.7632,-1.1117,-1.265,-1.3749,-1.4441,-1.4699,-1.4782,0.0,0.0,0.0,0.0,0.0,0.0,0.0,0.0,0.0,0.0,0.0,0.0,0.0,0.0,0.0,0.0,0.0,0.0,0.0,0.0,0.0,0.0,0.0,0.0,0.0,0.0,0.0,0.0,0.0,0.0,0.0,0.0,0.0,0.0,0.0,0.0,0.0,0.0,0.0,0.0,0.0,0.0,0.0,0.0,0.0,0.0,0.0,0.0,0.0,0.0,0.0,0.0,0.0,0.0,0.0,0.0,0.0,0.0,0.0,0.0,0.0,0.0,0.0,0.0,0.0,0.0,0.0,0.0,0.0,0.0,0.0,0.0,0.0,0.0,0.0,0.0,0.0,0.0,0.0,0.0,0.0,0.0,0.0,0.0,0.0,0.0,0.0,0.0,0.0,0.0,0.0,0.0,0.0,0.0,0.0,0.0,0.0,0.0,0.0,0.0,0.0,0.0,0.0,0.0,0.0,0.0,0.0,0.0,0.0,-1.3171,-1.4761,-1.6011,-1.6838,-1.7253,-1.7415,0.0,0.0,0.0,0.0,0.0,0.0,0.0,0.0,0.0,0.0,0.0,0.0,0.0,0.0,0.0,0.0,0.0,0.0,0.0,0.0,0.0,0.0,0.0,0.0,0.0,0.0,0.0,0.0,0.0,0.0,0.0,0.0,0.0,0.0,0.0,0.0,0.0,0.0,0.0,0.0,0.0,0.0,0.0,0.0,0.0,0.0,0.0,0.0,0.0,0.0,0.0,0.0,0.0,0.0,0.0,0.0,0.0,0.0,0.0,0.0,0.0,0.0,0.0,0.0,0.0,0.0,0.0,0.0,0.0,0.0,0.0,0.0,0.0,0.0,0.0,0.0,0.0,0.0,0.0,0.0,0.0,0.0,0.0,0.0,0.0,0.0,0.0,0.0,0.0,0.0,0.0,0.0,0.0,0.0,0.0,0.0,0.0,0.0,0.0,0.0,0.0,0.0,0.0,0.0,0.0,0.0,0.0,0.0,0.0,-1.6048,-1.7262,-1.8288,-1.9212,-1.9416,-1.9435,-1.9281,0.0,0.0,0.0,0.0,0.0,0.0,0.0,0.0,0.0,0.0,0.0,0.0,0.0,0.0,0.0,0.0,0.0,0.0,0.0,0.0,0.0,0.0,0.0,0.0,0.0,0.0,0.0,0.0,0.0,0.0,0.0,0.0,0.0,0.0,0.0,0.0,0.0,0.0,0.0,0.0,0.0,0.0,0.0,0.0,0.0,0.0,0.0,0.0,0.0,0.0,0.0,0.0,0.0,0.0,0.0,0.0,0.0,0.0,0.0,0.0,0.0,0.0,0.0,0.0,0.0,0.0,0.0,0.0,0.0,0.0,0.0,0.0,0.0,0.0,0.0,0.0,0.0,0.0,0.0,0.0,0.0,0.0,0.0,0.0,0.0,0.0,0.0,0.0,0.0,0.0,0.0,0.0,0.0,0.0,0.0,0.0,0.0,0.0,0.0,0.0,0.0,0.0,0.0,0.0,0.0,0.0,0.0,0.0,-1.9718,-2.0052,-2.0667,-2.1463,-2.125,-2.0938,0.0,0.0,0.0,0.0,0.0,0.0,0.0,0.0,0.0,0.0,0.0,0.0,0.0,0.0,0.0,0.0,0.0,0.0,0.0,0.0,0.0,0.0,0.0,0.0,0.0,0.0,0.0,0.0,0.0,0.0,0.0,0.0,0.0,0.0,0.0,0.0,0.0,0.0,0.0,0.0,0.0,0.0,0.0,0.0,0.0,0.0,0.0,0.0,0.0,0.0,0.0,0.0,0.0,0.0,0.0,0.0,0.0,0.0,0.0,0.0,0.0,0.0,0.0,0.0,0.0,0.0,0.0,0.0,0.0,0.0,0.0,0.0,0.0,0.0,0.0,0.0,0.0,0.0,0.0,0.0,0.0,0.0,0.0,0.0,0.0,0.0,0.0,0.0,0.0,0.0,0.0,0.0,0.0,0.0,0.0,0.0,0.0,0.0,0.0,0.0,0.0,0.0,0.0,0.0,0.0,0.0,0.0,0.0,0.0,-2.2948,-2.4045,-2.4307,-2.3811,-2.3846,-2.3635,0.0,0.0,0.0,0.0,0.0,0.0,0.0,0.0,0.0,0.0,0.0,0.0,0.0,0.0,0.0,0.0,0.0,0.0,0.0,0.0,0.0,0.0,0.0,0.0,0.0,0.0,0.0,0.0,0.0,0.0,0.0,0.0,0.0,0.0,0.0,0.0,0.0,0.0,0.0,0.0,0.0,0.0,0.0,0.0,0.0,0.0,0.0,0.0,0.0,0.0,0.0,0.0,0.0,0.0,0.0,0.0,0.0,0.0,0.0,0.0,0.0,0.0,0.0,0.0,0.0,0.0,0.0,0.0,0.0,0.0,0.0,0.0,0.0,0.0,0.0,0.0,0.0,0.0,0.0,0.0,0.0,0.0,0.0,0.0,0.0,0.0,0.0,0.0,0.0,0.0,0.0,0.0,0.0,0.0,0.0,0.0,0.0,0.0,0.0,0.0,0.0,0.0,0.0,0.0,0.0,0.0,0.0,0.0,-2.2447,-2.5091,-2.7158,-2.7997,-2.7445,-2.6495,-2.5546,0.0,0.0,0.0,0.0,0.0,0.0,0.0,0.0,0.0,0.0,0.0,0.0,0.0,0.0,0.0,0.0,0.0,0.0,0.0,0.0,0.0,0.0,0.0,0.0,0.0,0.0,0.0,0.0,0.0,0.0,0.0,0.0,0.0,0.0,0.0,0.0,0.0,0.0,0.0,0.0,0.0,0.0,0.0,0.0,0.0,0.0,0.0,0.0,0.0,0.0,0.0,0.0,0.0,0.0,0.0,0.0,0.0,0.0,0.0,0.0,0.0,0.0,0.0,0.0,0.0,0.0,0.0,0.0,0.0,0.0,0.0,0.0,0.0,0.0,0.0,0.0,0.0,0.0,0.0,0.0,0.0,0.0,0.0,0.0,0.0,0.0,0.0,0.0,0.0,0.0,0.0,0.0,0.0,0.0,0.0,0.0,0.0,0.0,0.0,0.0,0.0,0.0,0.0,0.0,0.0,0.0,0.0,0.0,-2.4941,-2.6651,-2.9619,-3.1223,-3.1352,-2.8981,-2.7114,0.0,0.0,0.0,0.0,0.0,0.0,0.0,0.0,0.0,0.0,0.0,0.0,0.0,0.0,0.0,0.0,0.0,0.0,0.0,0.0,0.0,0.0,0.0,0.0,0.0,0.0,0.0,0.0,0.0,0.0,0.0,0.0,0.0,0.0,0.0,0.0,0.0,0.0,0.0,0.0,0.0,0.0,0.0,0.0,0.0,0.0,0.0,0.0,0.0,0.0,0.0,0.0,0.0,0.0,0.0,0.0,0.0,0.0,0.0,0.0,0.0,0.0,0.0,0.0,0.0,0.0,0.0,0.0,0.0,0.0,0.0,0.0,0.0,0.0,0.0,0.0,0.0,0.0,0.0,0.0,0.0,0.0,0.0,0.0,0.0,0.0,0.0,0.0,0.0,0.0,0.0,0.0,0.0,0.0,0.0,0.0,0.0,0.0,0.0,0.0,0.0,0.0,0.0,0.0,0.0,0.0,0.0,0.0,-2.6551,-2.9555,-3.0614,-3.1689,-3.2686,-3.0749,-2.9332,0.0,0.0,0.0,0.0,0.0,0.0,0.0,0.0,0.0,0.0,0.0,0.0,0.0,0.0,0.0,0.0,0.0,0.0,0.0,0.0,0.0,0.0,0.0,0.0,0.0,0.0,0.0,0.0,0.0,0.0,0.0,0.0,0.0,0.0,0.0,0.0,0.0,0.0,0.0,0.0,0.0,0.0,0.0,0.0,0.0,0.0,0.0,0.0,-0.5139,0.0,0.0,0.0,0.0,0.0,0.0,0.0,0.0,0.0,0.0,0.0,0.0,0.0,0.0,0.0,0.0,0.0,0.0,0.0,0.0,0.0,0.0,0.0,0.0,0.0,0.0,0.0,0.0,0.0,0.0,0.0,0.0,0.0,0.0,0.0,0.0,0.0,0.0,0.0,0.0,0.0,0.0,0.0,0.0,0.0,0.0,0.0,0.0,0.0,0.0,0.0,0.0,0.0,0.0,0.0,0.0,0.0,0.0,0.0,-2.8252,-3.0819,-3.1697,-3.2426,-3.3043,-3.1891,-3.0728,0.0,0.0,0.0,0.0,0.0,0.0,0.0,0.0,0.0,0.0,0.0,0.0,0.0,0.0,0.0,0.0,0.0,0.0,0.0,0.0,0.0,0.0,0.0,0.0,0.0,0.0,0.0,0.0,0.0,0.0,0.0,0.0,0.0,0.0,0.0,0.0,0.0,0.0,0.0,0.0,0.0,0.0,0.0,0.0,0.0,0.0,0.0,0.0,0.0,0.0,0.0,0.0,0.0,0.0,0.0,0.0,0.0,0.0,0.0,0.0,0.0,0.0,0.0,0.0,0.0,0.0,0.0,0.0,0.0,0.0,0.0,0.0,0.0,0.0,0.0,0.0,0.0,0.0,0.0,0.0,0.0,0.0,0.0,0.0,0.0,0.0,0.0,0.0,0.0,0.0,0.0,0.0,0.0,0.0,0.0,0.0,0.0,0.0,0.0,0.0,0.0,0.0,0.0,0.0,0.0,0.0,0.0,-2.7962,-2.973,-3.1504,-3.2573,-3.3081,-3.3068,-3.2604,-3.166,-3.0264,0.0,0.0,0.0,0.0,0.0,0.0,0.0,0.0,0.0,0.0,0.0,0.0,0.0,0.0,0.0,0.0,0.0,0.0,0.0,0.0,0.0,0.0,0.0,0.0,0.0,0.0,0.0,0.0,0.0,0.0,0.0,0.0,0.0,0.0,0.0,0.0,0.0,0.0,-0.1927,-0.4061,0.0,0.0,0.0,0.0,0.0,0.0,0.0,0.0,-1.0648,0.0,0.0,0.0,0.0,0.0,0.0,0.0,0.0,0.0,0.0,0.0,0.0,0.0,0.0,0.0,0.0,0.0,0.0,0.0,0.0,0.0,0.0,0.0,0.0,0.0,0.0,0.0,0.0,0.0,0.0,0.0,0.0,0.0,0.0,0.0,0.0,0.0,0.0,0.0,0.0,0.0,0.0,0.0,0.0,0.0,0.0,0.0,0.0,0.0,0.0,0.0,0.0,0.0,0.0,0.0,0.0,-2.7933,-2.8866,-3.0518,-3.2734,-3.3031,-3.3081,-3.3068,-3.298,-3.2403,-3.1217,0.0,0.0,0.0,0.0,0.0,0.0,0.0,0.0,0.0,0.0,0.0,0.0,0.0,0.0,0.0,0.0,0.0,0.0,0.0,0.0,0.0,0.0,0.0,0.0,0.0,0.0,0.0,0.0,0.0,0.0,0.0,0.0,0.0,0.0,0.0,0.0,0.0,0.0,0.0,-0.6124,-0.7189,0.0,0.0,0.0,0.0,0.0,0.0,0.0,0.0,-1.4201,0.0,0.0,0.0,0.0,0.0,0.0,0.0,0.0,0.0,0.0,0.0,0.0,0.0,0.0,0.0,0.0,0.0,0.0,0.0,0.0,0.0,0.0,0.0,0.0,0.0,0.0,0.0,0.0,0.0,0.0,0.0,0.0,0.0,0.0,0.0,0.0,0.0,0.0,0.0,0.0,0.0,0.0,0.0,0.0,0.0,0.0,0.0,0.0,0.0,0.0,0.0,0.0,0.0,0.0,0.0,-2.8683,-2.9951,-3.1369,-3.3056,-3.3357,-3.3495,-3.3508,-3.3495,-3.298,0.0,0.0,0.0,0.0,0.0,0.0,0.0,0.0,0.0,0.0,0.0,0.0,0.0,0.0,0.0,0.0,0.0,0.0,0.0,0.0,0.0,0.0,0.0,0.0,0.0,0.0,0.0,0.0,0.0,0.0,0.0,0.0,0.0,0.0,0.0,0.0,0.0,0.0,0.0,0.0,-0.8729,-0.9835,-1.0571,0.0,0.0,0.0,0.0,0.0,0.0,-1.7401,-1.7857,0.0,0.0,0.0,0.0,0.0,0.0,0.0,0.0,0.0,0.0,0.0,0.0,0.0,0.0,0.0,0.0,0.0,0.0,0.0,0.0,0.0,0.0,0.0,0.0,0.0,0.0,0.0,0.0,0.0,0.0,0.0,0.0,0.0,0.0,0.0,0.0,0.0,0.0,0.0,0.0,0.0,0.0,0.0,0.0,0.0,0.0,0.0,0.0,0.0,0.0,0.0,0.0,0.0,0.0,0.0,-2.9253,-3.0931,-3.2228,-3.3232,-3.3771,-3.406,-3.4073,-3.396,-3.3432,0.0,0.0,0.0,0.0,0.0,0.0,0.0,0.0,0.0,0.0,0.0,0.0,0.0,0.0,0.0,0.0,0.0,0.0,0.0,0.0,0.0,0.0,0.0,0.0,0.0,0.0,0.0,0.0,0.0,0.0,0.0,0.0,0.0,0.0,0.0,0.0,0.0,0.0,0.0,0.0,0.0,-1.2585,-1.3804,-1.4573,0.0,0.0,0.0,0.0,-2.0431,-2.11,0.0,0.0,0.0,0.0,0.0,0.0,0.0,0.0,0.0,0.0,0.0,0.0,0.0,0.0,0.0,0.0,0.0,0.0,0.0,0.0,0.0,0.0,0.0,0.0,0.0,0.0,0.0,0.0,0.0,0.0,0.0,0.0,0.0,0.0,0.0,0.0,0.0,0.0,0.0,0.0,0.0,0.0,0.0,0.0,0.0,0.0,0.0,0.0,0.0,0.0,0.0,0.0,0.0,0.0,0.0,0.0,-2.9737,-3.1393,-3.2798,-3.3796,-3.4349,-3.4638,-3.4625,-3.4161,-3.3608,0.0,0.0,0.0,0.0,0.0,0.0,0.0,0.0,0.0,0.0,0.0,0.0,0.0,0.0,0.0,0.0,0.0,0.0,0.0,0.0,0.0,0.0,0.0,0.0,0.0,0.0,0.0,0.0,0.0,0.0,0.0,0.0,0.0,0.0,0.0,0.0,0.0,0.0,0.0,0.0,0.0,-1.4633,-1.562,-1.6881,-1.7981,0.0,0.0,-2.2073,-2.2751,-2.3795,0.0,0.0,0.0,0.0,0.0,0.0,0.0,0.0,0.0,0.0,0.0,0.0,0.0,0.0,0.0,0.0,0.0,0.0,0.0,0.0,0.0,0.0,0.0,0.0,0.0,0.0,0.0,0.0,0.0,0.0,0.0,0.0,0.0,0.0,0.0,0.0,0.0,0.0,0.0,0.0,0.0,0.0,0.0,0.0,0.0,0.0,0.0,0.0,0.0,0.0,0.0,0.0,0.0,0.0,0.0,-2.9381,-3.0715,-3.272,-3.3945,-3.4374,-3.4901,-3.519,-3.519,-3.4663,-3.4098,0.0,0.0,0.0,0.0,0.0,0.0,0.0,0.0,0.0,0.0,0.0,0.0,0.0,0.0,0.0,0.0,0.0,0.0,0.0,0.0,0.0,0.0,0.0,0.0,0.0,0.0,0.0,0.0,0.0,0.0,0.0,0.0,0.0,0.0,0.0,0.0,0.0,0.0,0.0,0.0,0.0,0.0,-1.9293,-2.0521,0.0,0.0,0.0,-2.4923,-2.5173,0.0,0.0,0.0,0.0,0.0,0.0,0.0,0.0,0.0,0.0,0.0,0.0,0.0,0.0,0.0,0.0,0.0,0.0,0.0,0.0,0.0,0.0,0.0,0.0,0.0,0.0,0.0,0.0,0.0,0.0,0.0,0.0,0.0,0.0,0.0,0.0,0.0,0.0,0.0,0.0,0.0,0.0,0.0,0.0,0.0,0.0,0.0,0.0,0.0,0.0,0.0,0.0,0.0,0.0,0.0,0.0,0.0,-3.1572,-3.3748,-3.4926,-3.4951,-3.5466,-3.5755,-3.573,-3.5215,0.0,0.0,0.0,0.0,0.0,0.0,0.0,0.0,0.0,0.0,0.0,0.0,0.0,0.0,0.0,0.0,0.0,0.0,0.0,0.0,0.0,0.0,0.0,0.0,0.0,0.0,0.0,-1.6039,0.0,0.0,0.0,0.0,0.0,0.0,0.0,0.0,0.0,0.0,0.0,0.0,0.0,0.0,-2.1347,-2.2322,-2.365,-2.493,0.0,0.0,-2.7547,-2.7453,-2.8613,-2.8822,0.0,0.0,0.0,0.0,0.0,0.0,0.0,0.0,0.0,0.0,0.0,0.0,0.0,0.0,0.0,0.0,0.0,0.0,0.0,0.0,0.0,0.0,0.0,0.0,0.0,0.0,0.0,0.0,0.0,0.0,0.0,0.0,0.0,0.0,0.0,0.0,0.0,0.0,0.0,0.0,0.0,0.0,0.0,0.0,0.0,0.0,0.0,0.0,0.0,0.0,0.0,0.0,0.0,0.0,0.0,-3.2074,-3.4301,-3.5479,-3.5411,-3.6031,-3.6307,-3.6295,-3.578,-3.5215,0.0,0.0,0.0,0.0,0.0,0.0,0.0,0.0,0.0,0.0,0.0,0.0,0.0,0.0,0.0,0.0,0.0,0.0,0.0,0.0,0.0,0.0,0.0,0.0,0.0,0.0,0.0,0.0,0.0,0.0,0.0,0.0,0.0,0.0,0.0,0.0,0.0,0.0,0.0,0.0,0.0,-2.2573,-2.3715,-2.5318,-2.661,0.0,0.0,-2.9327,-2.9565,-3.0296,-3.0296,-2.8719,0.0,0.0,0.0,0.0,0.0,0.0,0.0,0.0,0.0,0.0,0.0,0.0,0.0,0.0,0.0,0.0,0.0,0.0,0.0,0.0,0.0,0.0,0.0,0.0,0.0,0.0,0.0,0.0,0.0,0.0,0.0,0.0,0.0,0.0,0.0,0.0,0.0,0.0,0.0,0.0,0.0,0.0,0.0,0.0,0.0,0.0,0.0,0.0,0.0,0.0,0.0,0.0,0.0,-3.2117,-3.3101,-3.4997,-3.6044,-3.6044,-3.6257,-3.637,-3.637,-3.583,-3.5278,0.0,0.0,0.0,0.0,0.0,0.0,0.0,0.0,0.0,0.0,0.0,0.0,0.0,0.0,0.0,0.0,0.0,0.0,0.0,0.0,0.0,0.0,0.0,0.0,0.0,0.0,0.0,0.0,-1.8991,-1.9259,-1.9025,0.0,0.0,0.0,0.0,0.0,0.0,0.0,0.0,0.0,0.0,-2.5369,-2.6804,-2.7855,0.0,0.0,-2.9393,-2.9757,-2.9986,-3.048,-3.0558,-2.9831,-2.9611,0.0,0.0,0.0,0.0,0.0,0.0,0.0,0.0,0.0,0.0,0.0,0.0,0.0,0.0,0.0,0.0,0.0,0.0,0.0,0.0,0.0,0.0,0.0,0.0,0.0,0.0,0.0,0.0,0.0,0.0,0.0,0.0,0.0,0.0,0.0,0.0,0.0,0.0,0.0,0.0,0.0,0.0,0.0,0.0,0.0,0.0,0.0,0.0,0.0,0.0,0.0,0.0,-3.2955,-3.3906,-3.5525,-3.637,-3.637,-3.637,-3.637,-3.6358,-3.5994,-3.5529,0.0,0.0,0.0,0.0,0.0,0.0,0.0,0.0,0.0,0.0,0.0,0.0,0.0,0.0,0.0,0.0,0.0,0.0,0.0,0.0,0.0,0.0,0.0,0.0,0.0,0.0,0.0,0.0,-2.0057,-2.0435,-2.0444,0.0,0.0,0.0,0.0,0.0,0.0,0.0,0.0,0.0,0.0,-2.7701,-2.8847,-2.9642,-3.019,-3.041,-3.0295,-3.019,-3.0515,-3.079,-3.0878,-3.0564,0.0,0.0,0.0,0.0,0.0,0.0,0.0,0.0,0.0,0.0,0.0,0.0,0.0,0.0,0.0,0.0,0.0,0.0,0.0,0.0,0.0,0.0,0.0,0.0,0.0,0.0,0.0,0.0,0.0,0.0,-3.0263,0.0,0.0,0.0,0.0,0.0,0.0,0.0,0.0,0.0,0.0,0.0,0.0,0.0,0.0,0.0,0.0,0.0,0.0,0.0,0.0,0.0,0.0,-3.3618,-3.44,-3.5725,-3.637,-3.637,-3.637,-3.637,-3.637,-3.6358,-3.6081,-3.5424,0.0,0.0,0.0,0.0,0.0,0.0,0.0,0.0,0.0,0.0,0.0,0.0,0.0,0.0,0.0,0.0,0.0,0.0,0.0,0.0,0.0,0.0,0.0,0.0,0.0,0.0,-2.0272,-2.1377,-2.2094,0.0,0.0,0.0,0.0,0.0,0.0,0.0,0.0,0.0,0.0,-2.7582,-2.9028,-2.9306,-3.0248,-3.0869,-3.0869,-3.0869,-3.0986,-3.1199,-3.1325,-3.1325,0.0,0.0,0.0,0.0,0.0,0.0,0.0,0.0,0.0,0.0,0.0,0.0,0.0,0.0,0.0,0.0,0.0,0.0,0.0,0.0,0.0,0.0,0.0,0.0,0.0,0.0,0.0,-3.2503,-3.2478,0.0,0.0,0.0,0.0,0.0,0.0,0.0,0.0,0.0,0.0,0.0,-3.1113,-3.0905,0.0,0.0,0.0,0.0,0.0,0.0,0.0,0.0,0.0,0.0,0.0,0.0,-3.4133,-3.491,-3.5887,-3.637,-3.637,-3.637,-3.637,-3.637,-3.637,-3.6107,-3.5554,0.0,0.0,0.0,0.0,0.0,0.0,0.0,0.0,0.0,0.0,0.0,0.0,0.0,0.0,0.0,0.0,0.0,0.0,0.0,0.0,0.0,0.0,0.0,0.0,0.0,-2.1548,0.0,0.0,0.0,0.0,0.0,0.0,0.0,0.0,0.0,0.0,0.0,-2.646,-2.777,-2.8639,-2.9507,-3.0267,-3.0675,-3.0986,0.0,0.0,0.0,0.0,0.0,0.0,0.0,0.0,0.0,0.0,0.0,0.0,0.0,0.0,-3.031,-2.924,-2.8969,-2.8806,-2.8689,0.0,0.0,0.0,0.0,0.0,0.0,0.0,0.0,0.0,0.0,0.0,0.0,0.0,0.0,-3.3646,0.0,-3.3257,0.0,0.0,0.0,0.0,0.0,0.0,0.0,0.0,-3.3546,-3.3669,-3.3395,-3.3183,-3.3089,0.0,-3.2524,-3.1553,0.0,0.0,0.0,0.0,0.0,0.0,0.0,0.0,-3.4706,-3.5356,-3.5987,-3.637,-3.637,-3.637,-3.637,-3.637,-3.637,-3.6194,-3.5843,-3.4725,-3.3611,0.0,0.0,0.0,0.0,0.0,0.0,0.0,0.0,0.0,0.0,0.0,0.0,0.0,0.0,0.0,0.0,0.0,0.0,0.0,0.0,0.0,0.0,0.0,-2.3626,0.0,0.0,0.0,0.0,0.0,0.0,0.0,0.0,0.0,-2.6337,-2.7122,-2.8164,-2.9125,-2.9785,-3.0257,-3.0869,0.0,0.0,0.0,0.0,0.0,0.0,0.0,-3.2037,-3.2844,-3.2675,-3.2534,-3.271,-3.2509,-3.2168,-3.2168,0.0,0.0,-3.0839,-3.0533,-3.0496,-3.0486,-3.0367,-3.0238,-3.0496,-3.0496,-3.0615,0.0,0.0,0.0,0.0,0.0,0.0,0.0,0.0,-3.4738,-3.4738,0.0,-3.4713,0.0,0.0,0.0,0.0,0.0,-3.3891,0.0,0.0,-3.5563,-3.5881,-3.4903,-3.4785,-3.4878,-3.4748,-3.3922,-3.3494,-3.3655,-3.3086,0.0,0.0,0.0,0.0,0.0,0.0,-3.5344,-3.5512,-3.6094,-3.637,-3.637,-3.637,-3.637,-3.637,-3.637,-3.6358,-3.6332,-3.4473,-3.3121,-3.2773,-3.05,0.0,0.0,0.0,0.0,0.0,0.0,0.0,0.0,0.0,0.0,0.0,0.0,0.0,0.0,0.0,0.0,0.0,0.0,0.0,0.0,-2.5681,0.0,0.0,0.0,0.0,0.0,0.0,0.0,0.0,0.0,0.0,-2.8094,-2.8831,-2.9556,-2.9815,0.0,0.0,0.0,0.0,-3.2021,-3.1631,-3.1904,-3.2401,-3.3005,-3.2864,-3.2883,-3.3689,0.0,0.0,-3.2812,-3.248,-3.2236,-3.2217,-3.2559,-3.2685,-3.2275,-3.2197,-3.2207,-3.2207,-3.2207,-3.2207,-3.2207,-3.2085,-3.2197,-4.1077,0.0,0.0,0.0,0.0,-3.6651,-3.638,-3.6493,-3.5656,-3.5224,-3.5316,-3.5303,0.0,0.0,0.0,0.0,0.0,0.0,-3.5119,-3.5064,-3.5937,-3.627,-3.5931,-3.5931,-3.5918,-3.5918,-3.5675,-3.5518,-3.56,-3.54,-3.4922,-3.4114,0.0,0.0,0.0,0.0,-3.5637,-3.6119,-3.6282,-3.637,-3.637,-3.637,-3.637,-3.637,-3.637,-3.637,-3.6358,-3.5817,-3.457,-3.2637,-3.1694,0.0,0.0,0.0,0.0,0.0,0.0,0.0,0.0,0.0,0.0,0.0,0.0,0.0,0.0,0.0,0.0,0.0,0.0,0.0,-2.6607,-2.651,-2.6554,0.0,0.0,0.0,0.0,0.0,0.0,0.0,0.0,0.0,-3.0449,-3.0441,-3.0577,0.0,0.0,-3.1592,-3.1777,-3.2012,-3.2226,-3.2402,-3.2275,0.0,0.0,-3.2831,-3.2893,-3.3709,-3.3783,-3.3618,-3.3242,-3.3135,-3.3057,-3.3057,-3.3164,-3.3193,-3.3105,-3.3057,-3.3057,-3.3066,-3.3066,-3.3066,-3.3057,-3.3066,-3.3057,-4.2361,-4.1178,-4.0412,-3.9907,-3.9285,-3.8025,-3.7542,-3.749,-3.6386,-3.5881,-3.5868,-3.5868,-3.5567,-3.5039,-3.4826,0.0,0.0,0.0,-3.5667,-3.5868,-3.6219,-3.637,-3.637,-3.637,-3.637,-3.637,-3.637,-3.637,-3.637,-3.637,-3.6031,-3.5219,0.0,0.0,-3.5868,-3.5868,-3.6031,-3.6358,-3.637,-3.637,-3.637,-3.637,-3.637,-3.637,-3.637,-3.637,-3.6358,-3.587,-3.4619,-3.2522,-3.1219,-2.9558,0.0,0.0,0.0,0.0,0.0,0.0,0.0,0.0,0.0,0.0,0.0,-2.6737,-2.6741,0.0,0.0,0.0,-2.7946,-2.821,-2.8634,-2.8254,0.0,0.0,0.0,0.0,0.0,0.0,0.0,-3.05,-3.1005,-3.1484,-3.1738,-3.1553,-3.1494,-3.1738,-3.1924,-3.206,-3.2158,0.0,-3.2695,-3.2783,-3.2715,-3.2878,-3.3495,-3.3184,-3.3115,-3.3619,-3.3618,-3.367,-3.3418,-3.3418,-3.3418,-3.3418,-3.3418,-3.3418,-3.3418,-3.3418,-3.3418,-3.3418,-3.3418,-3.3418,-3.3418,-3.3418,-3.3418,-4.3344,-4.3235,-4.24,-4.1616,-4.0859,-3.9549,-3.8662,-3.803,-3.6896,-3.637,-3.637,-3.637,-3.6081,-3.5592,-3.5077,0.0,-3.5617,-3.5604,-3.5881,-3.637,-3.637,-3.637,-3.637,-3.637,-3.637,-3.637,-3.637,-3.637,-3.637,-3.637,-3.637,-3.637,-3.637,-3.637,-3.637,-3.637,-3.637,-3.637,-3.637,-3.637,-3.637,-3.637,-3.637,-3.637,-3.637,-3.6358,-3.6263,-3.5078,-3.3662,-3.2208,-2.9768,-2.8236,-2.7731,0.0,0.0,0.0,0.0,0.0,0.0,0.0,0.0,0.0,0.0,0.0,0.0,0.0,0.0,0.0,-2.999,0.0,-3.0801,-3.0478,0.0,0.0,0.0,-3.0293,-3.0303,-3.1084,-3.1601,-3.1572,0.0,0.0,-3.2217,0.0,-3.2226,-3.2266,-3.2568,-3.2666,-3.2314,-3.293,-3.3281,-3.291,-3.3164,-3.3534,-3.3747,-3.3485,-3.335,-3.3369,-3.3418,-3.3418,-3.3418,-3.3418,-3.3418,-3.3418,-3.3418,-3.3418,-3.3418,-3.3418,-3.3418,-3.3418,-3.3418,-3.3418,-3.3418,-3.3418,-3.3418,-4.3344,-4.325,-4.3076,-4.2386,-4.1351,-4.0145,-3.9094,-3.803,-3.6896,-3.637,-3.637,-3.637,-3.6282,-3.6169,-3.6019,-3.6044,-3.6169,-3.6169,-3.6232,-3.6358,-3.637,-3.637,-3.637,-3.637,-3.637,-3.637,-3.637,-3.637,-3.637,-3.637,-3.637,-3.637,-3.637,-3.637,-3.637,-3.637,-3.637,-3.637,-3.637,-3.637,-3.637,-3.637,-3.637,-3.637,-3.637,-3.5966,-3.4884,-3.4581,-3.3266,-3.0916,-3.015,-2.9239,-2.778,-2.7584,0.0,0.0,0.0,0.0,0.0,0.0,0.0,0.0,0.0,-2.8076,-2.8281,0.0,-2.9346,0.0,-3.0264,-3.0635,-3.0381,-3.0586,0.0,0.0,-3.0791,-3.1201,-3.1211,-3.1973,-3.2373,-3.2051,-3.2383,-3.2646,-3.2646,-3.2646,-3.2764,-3.3076,-3.293,-3.2871,-3.3076,-3.3281,-3.3389,-3.3291,-3.335,-3.3418,-3.3544,-3.3418,-3.3418,-3.3418,-3.3418,-3.3418,-3.3418,-3.3418,-3.3418,-3.3418,-3.3418,-3.3418,-3.3418,-3.3418,-3.3418,-3.3418,-3.3418,-3.3418,-3.3418,-3.3418,-3.3418,-4.3344,-4.3344,-4.3344,-4.2629,-4.1504,-4.0404,-3.9183,-3.803,-3.6883,-3.637,-3.637,-3.637,-3.637,-3.637,-3.637,-3.637,-3.637,-3.637,-3.637,-3.637,-3.637,-3.637,-3.637,-3.637,-3.637,-3.637,-3.637,-3.637,-3.637,-3.637,-3.637,-3.637,-3.637,-3.637,-3.637,-3.637,-3.637,-3.637,-3.637,-3.637,-3.637,-3.637,-3.637,-3.6193,-3.6086,-3.5488,-3.4483,-3.419,-3.2967,-3.0618,-3.0317,-2.9599,-2.8055,-2.7773,-2.7461,0.0,0.0,0.0,0.0,0.0,0.0,0.0,0.0,0.0,0.0,0.0,-2.9648,-2.9834,-3.0488,-3.0859,-3.0791,-3.1016,-3.1143,-3.1094,-3.168,-3.209,-3.209,-3.2676,-3.2988,-3.2754,-3.293,-3.3076,-3.3076,-3.3066,-3.3154,-3.3398,-3.3223,-3.3154,-3.3369,-3.3418,-3.3418,-3.3418,-3.3418,-3.3418,-3.3418,-3.3418,-3.3418,-3.3418,-3.3418,-3.3418,-3.3418,-3.3418,-3.3418,-3.3418,-3.3418,-3.3418,-3.3418,-3.3418,-3.3418,-3.3418,-3.3418,-3.3418,-3.3418,-3.3418,-3.3418,-4.3344,-4.3344,-4.3344,-4.2644,-4.1489,-4.049,-3.9346,-3.8017,-3.7057,-3.6546,-3.637,-3.637,-3.637,-3.637,-3.637,-3.637,-3.637,-3.637,-3.637,-3.637,-3.637,-3.637,-3.637,-3.637,-3.637,-3.637,-3.637,-3.637,-3.637,-3.637,-3.637,-3.637,-3.637,-3.637,-3.637,-3.637,-3.637,-3.637,-3.637,-3.637,-3.637,-3.637,-3.6275,-3.6015,-3.5716,-3.5102,-3.419,-3.3598,-3.2364,-3.0618,-3.0214,-2.9513,-2.8388,-2.7939,-2.7715,0.0,-2.7402,0.0,0.0,0.0,0.0,0.0,0.0,0.0,0.0,-2.9619,-2.9824,-3.0244,-3.0644,-3.1064,-3.1484,-3.1572,-3.1768,-3.2197,-3.2627,-3.2871,-3.2891,-3.3203,-3.3418,-3.3418,-3.3418,-3.3418,-3.3398,-3.3418,-3.3408,-3.3418,-3.3398,-3.3389,-3.3418,-3.3418,-3.3418,-3.3418,-3.3418,-3.3418,-3.3418,-3.3418,-3.3418,-3.3418,-3.3418,-3.3418,-3.3418,-3.3418,-3.3418,-3.3418,-3.3418,-3.3418,-3.3418,-3.3418,-3.3418,-3.3418,-3.3418,-3.3418,-3.3418,-3.3418,-3.3418,-4.3344,-4.3344,-4.3344,-4.2644,-4.1601,-4.1337,-4.0031,-3.8121,-3.7848,-3.7243,-3.6465,-3.637,-3.637,-3.637,-3.637,-3.637,-3.637,-3.637,-3.637,-3.637,-3.637,-3.637,-3.637,-3.637,-3.637,-3.637,-3.637,-3.637,-3.637,-3.637,-3.637,-3.637,-3.637,-3.637,-3.637,0.0,0.0,0.0,-3.637,-3.637,-3.637,-3.637,-3.6275,-3.6015,-3.55,0.0,-3.2867,-3.2083,-3.0877,-2.9227,-2.8804,0.0,0.0,0.0,0.0,0.0,0.0,0.0,0.0,0.0,0.0,0.0,-2.9375,-2.9394,-2.956,-2.9883,-3.0273,-3.0713,-3.084,-3.1055,-3.1475,-3.1836,-3.2217,-3.2637,-3.3047,-3.3301,-3.3301,-3.3379,-3.3418,-3.3418,-3.3418,-3.3418,-3.3418,-3.3418,-3.3418,-3.3418,-3.3418,-3.3418,-3.3418,-3.3418,-3.3418,-3.3418,-3.3418,-3.3418,-3.3418,-3.3418,-3.3418,-3.3418,-3.3418,-3.3418,-3.3418,-3.3418,-3.3418,-3.3418,-3.3418,-3.3418,-3.3418,-3.3418,-3.3418,-3.3418,-3.3418,-3.3418,-3.3418,-3.3418,-3.3418,-4.3344,0.0,-4.3344,-4.2996,0.0,-4.2467,-4.107,-3.8917,-3.8379,-3.7494,-3.6465,-3.637,-3.637,-3.637,-3.637,-3.637,-3.637,-3.637,-3.637,-3.637,-3.637,-3.637,-3.637,-3.637,-3.637,-3.637,-3.637,-3.637,-3.637,-3.637,-3.637,-3.637,-3.637,-3.637,-3.637,-3.637,-3.637,-3.637,-3.637,-3.637,-3.637,-3.637,-3.6275,-3.6003,0.0,0.0,0.0,0.0,0.0,0.0,0.0,0.0,0.0,0.0,0.0,-2.8291,-2.8691,-2.9014,-2.9228,-2.9639,-2.998,-3.0215,-3.0225,-3.0127,-2.9902,-3.0283,-3.0635,-3.0869,-3.1074,-3.1367,-3.1628,-3.2197,-3.2646,-3.3057,-3.3301,-3.3418,-3.3418,-3.3418,-3.3418,-3.3418,-3.3418,-3.3418,-3.3418,-3.3418,-3.3418,-3.3418,-3.3418,-3.3418,-3.3418,-3.3418,-3.3418,-3.3418,-3.3418,-3.3418,-3.3418,-3.3418,-3.3418,-3.3418,-3.3418,-3.3418,-3.3418,-3.3418,-3.3418,-3.3418,-3.3418,-3.3418,-3.3418,-3.3418,-3.3418,-3.3418,-3.3418,-3.3418,-3.3418,-3.3418,-3.3418,-4.3344,-4.3344,-4.3344,-4.3344,-4.3344,-4.3344,-4.1961,-3.9798,0.0,0.0,0.0,-3.637,-3.637,-3.637,-3.637,-3.637,-3.637,-3.637,-3.637,-3.637,-3.637,-3.637,-3.637,-3.637,-3.637,-3.637,-3.637,-3.637,-3.637,-3.637,-3.637,-3.637,-3.637,-3.637,-3.637,-3.637,-3.637,-3.637,-3.637,-3.637,-3.637,-3.637,-3.6275,-3.6015,-3.4397,-3.3189,-3.2376,-3.0442,-2.9227,-2.8727,-2.8398,-2.8301,-2.8301,-2.8301,-2.8476,-2.8877,-2.8984,-2.9375,-3.0137,-3.0273,-3.0478,-3.0869,-3.0898,-3.0732,-3.0351,-3.0674,-3.0898,-3.0898,-3.1269,-3.154,-3.1648,-3.2377,-3.2959,-3.3369,-3.3418,-3.3418,-3.3418,-3.3418,-3.3418,-3.3418,-3.3418,-3.3418,-3.3418,-3.3418,-3.3418,-3.3418,-3.3418,-3.3418,-3.3418,-3.3418,-3.3418,-3.3418,-3.3418,-3.3418,-3.3418,-3.3418,-3.3418,-3.3418,-3.3418,-3.3418,-3.3418,-3.3418,-3.3418,-3.3418,-3.3418,-3.3418,-3.3418,-3.3418,-3.3418,-3.3418,-3.3418,-3.3418,-3.3418,-3.3418,-3.3418,-4.3344,-4.3344,-4.3344,-4.3344,-4.3344,-4.3344,-4.2044,-3.9724,-3.7612,-3.6534,-3.637,-3.637,-3.637,-3.637,-3.637,-3.637,-3.637,-3.637,-3.637,0.0,-3.637,-3.637,-3.637,-3.637,-3.637,-3.637,-3.637,-3.637,-3.637,-3.637,-3.637,-3.637,-3.637,-3.637,-3.637,-3.637,-3.637,-3.637,-3.637,-3.637,-3.637,-3.637,-3.6263,-3.592,-3.4201,-3.2989,-3.2353,-3.0349,-2.9026,-2.8727,-2.8398,-2.8301,-2.8301,-2.8301,-2.8476,-2.8896,-2.9268,-2.9697,-3.0166,-3.0566,-3.082,-3.0889,-3.0898,-3.0859,-3.081,-3.085,-3.0898,-3.0908,-3.1289,-3.154,-3.1779,-3.2387,-3.2978,-3.335,-3.3418,-3.3418,-3.3418,-3.3418,-3.3418,-3.3418,-3.3418,-3.3418,-3.3418,-3.3418,-3.3418,-3.3418,-3.3418,-3.3418,-3.3418,-3.3418,-3.3418,-3.3418,-3.3418,-3.3418,-3.3418,-3.3418,-3.3418,-3.3418,-3.3418,-3.3418,-3.3418,-3.3418,-3.3418,-3.3418,-3.3418,-3.3418,-3.3418,-3.3418,-3.3418,-3.3418,-3.3418,-3.3418,-3.3418,-3.3418,-3.3418,-4.3344,-4.3344,-4.3344,-4.3344,-4.325,-4.2644,-4.1435,-3.9798,-3.803,-3.6989,-3.6452,-3.637,-3.637,-3.637,-3.637,-3.637,-3.637,-3.637,-3.637,-3.637,-3.637,-3.637,-3.637,-3.637,-3.637,-3.637,-3.637,-3.637,-3.637,-3.637,-3.637,-3.637,-3.637,-3.637,-3.637,-3.637,-3.637,-3.637,-3.637,-3.637,-3.637,-3.637,-3.6358,-3.6193,-3.469,-3.3685,-3.3476,-3.1051,-2.9723,-2.9523,-2.8814,-2.8301,-2.8301,-2.8301,-2.8584,-2.9219,-2.9453,-2.9873,-3.0537,-3.0762,-3.0898,-3.0898,-3.0898,-3.0898,-3.0898,-3.0898,-3.0898,-3.0918,-3.1475,-3.1953,-3.2158,-3.2744,-3.3213,-3.3398,-3.3418,-3.3418,-3.3418,-3.3418,-3.3418,-3.3418,-3.3418,-3.3418,-3.3418,-3.3418,-3.3418,-3.3418,-3.3418,-3.3418,-3.3418,-3.3418,-3.3418,-3.3418,-3.3418,-3.3418,-3.3418,-3.3418,-3.3418,-3.3418,-3.3418,-3.3418,-3.3418,-3.3418,-3.3418,-3.3418,-3.3418,-3.3418,-3.3418,-3.3418,-3.3418,-3.3418,-3.3418,-3.3418,-3.3418,-3.3418,-3.3418,-4.3344,-4.3344,-4.3344,-4.3344,-4.3155,-4.2111,-4.0916,-3.9812,-3.8649,-3.7494,-3.6452,-3.637,-3.637,-3.637,-3.637,-3.637,-3.637,-3.637,-3.637,-3.637,-3.637,-3.637,-3.637,-3.637,-3.637,-3.637,-3.637,-3.637,-3.637,-3.637,-3.637,-3.637,-3.637,-3.637,-3.637,-3.637,-3.637,-3.637,-3.637,-3.637,-3.637,-3.637,-3.637,-3.6358,-3.5078,-3.4385,-3.4276,-3.1746,-3.0328,-3.0224,-2.9006,-2.8301,-2.8301,-2.8301,-2.8623,-2.9326,-2.9521,-2.9961,-3.0791,-3.0898,-3.0898,-3.0898,-3.0898,-3.0898,-3.0898,-3.0898,-3.0898,-3.0986,-3.165,-3.2299,-3.2578,-3.3083,-3.3418,-3.3418,-3.3418,-3.3418,-3.3418,-3.3418,-3.3418,-3.3418,-3.3418,-3.3418,-3.3418,-3.3418,-3.3418,-3.3418,-3.3418,-3.3418,-3.3418,-3.3418,-3.3418,-3.3418,-3.3418,-3.3418,-3.3418,-3.3418,-3.3418,-3.3418,-3.3418,-3.3418,-3.3418,-3.3418,-3.3418,-3.3418,-3.3418,-3.3418,-3.3418,-3.3418,-3.3418,-3.3418,-3.3418,-3.3418,-3.3418,-3.3418,-3.3418,-4.3344,-4.3344,-4.3344,-4.3344,-4.317,-4.2029,-4.0916,-3.9798,-3.8649,-3.7507,-3.6452,-3.637,-3.637,-3.637,-3.637,-3.637,-3.637,-3.637,-3.637,-3.637,-3.637,-3.637,-3.637,-3.637,-3.637,-3.637,-3.637,-3.637,-3.637,-3.637,-3.637,-3.637,-3.637,-3.637,-3.637,-3.637,-3.637,-3.637,-3.637,-3.637,-3.637,-3.637,-3.637,-3.6358,-3.5078,-3.4385,-3.4385,-3.1746,-3.0328,-3.0214,-2.9006,-2.8301,-2.8301,-2.8301,-2.8496,-2.8955,-2.9355,-2.9961,-3.0781,-3.0898,-3.0898,-3.0898,-3.0898,-3.0898,-3.0898,-3.0898,-3.0898,-3.1025,-3.166,-3.2299,-3.2548,-3.3083,-3.3408,-3.3418,-3.3418,-3.3418,-3.3418,-3.3418,-3.3418,-3.3418,-3.3418,-3.3418,-3.3418,-3.3418,-3.3418,-3.3418,-3.3418,-3.3418,-3.3418,-3.3418,-3.3418,-3.3418,-3.3418,-3.3418,-3.3418,-3.3418,-3.3418,-3.3418,-3.3418,-3.3418,-3.3418,-3.3418,-3.3418,-3.3418,-3.3418,-3.3418,-3.3418,-3.3418,-3.3418,-3.3418,-3.3418,-3.3418,-3.3418,-3.3418,-3.3418,-4.3344,-4.3344,-4.3344,-4.29,-4.229,-4.1753,-4.0547,-3.8827,-3.8289,-3.7507,-3.6452,-3.637,-3.637,-3.637,-3.637,-3.637,-3.637,-3.637,-3.637,-3.637,-3.637,-3.637,-3.637,-3.637,-3.637,-3.637,-3.637,-3.637,-3.637,-3.637,-3.637,-3.637,-3.637,-3.637,-3.637,-3.637,-3.637,-3.637,-3.637,-3.637,-3.637,-3.637,-3.637,-3.6263,-3.5078,-3.4385,-3.4178,-3.1746,-3.0328,-3.0214,-2.8996,-2.8301,-2.8301,-2.8301,-2.8476,-2.8906,-2.956,-3.0225,-3.085,-3.0898,-3.0898,-3.0898,-3.0898,-3.0898,-3.0898,-3.0898,-3.0898,-3.0996,-3.167,-3.2299,-3.2397,-3.2939,-3.3418,-3.3418,-3.3418,-3.3418,-3.3418,-3.3418,-3.3418,-3.3418,-3.3418,-3.3418,-3.3418,-3.3418,-3.3418,-3.3418,-3.3418,-3.3418,-3.3418,-3.3418,-3.3418,-3.3418,-3.3418,-3.3418,-3.3418,-3.3418,-3.3418,-3.3418,-3.3418,-3.3418,-3.3418,-3.3418,-3.3418,-3.3418,-3.3418,-3.3418,-3.3418,-3.3418,-3.3418,-3.3418,-3.3418,-3.3418,-3.3418,-3.3418,-3.3418,-4.3344,-4.3344,-4.3344,-4.2629,-4.1587,-4.1253,-3.9944,-3.8198,-3.7769,-3.7137,-3.6465,-3.637,-3.637,-3.637,-3.637,-3.637,-3.637,-3.637,-3.637,-3.637,-3.637,-3.637,-3.637,-3.637,-3.637,-3.637,-3.637,-3.637,-3.637,-3.637,-3.637,-3.637,-3.637,-3.637,-3.637,-3.637,-3.637,-3.637,-3.637,-3.637,-3.6358,-3.6061,-3.587,-3.5763,-3.4569,-3.3871,-3.3773,-3.1531,-3.0328,-3.0328,-2.8996,-2.8301,-2.8301,-2.8301,-2.8525,-2.9072,-2.9668,-3.0283,-3.085,-3.0898,-3.0898,-3.0898,-3.0898,-3.0898,-3.0898,-3.0898,-3.0898,-3.0937,-3.1562,-3.2002,-3.2236,-3.292,-3.3389,-3.3418,-3.3418,-3.3418,-3.3418,-3.3418,-3.3418,-3.3418,-3.3418,-3.3418,-3.3418,-3.3418,-3.3418,-3.3418,-3.3418,-3.3418,-3.3418,-3.3418,-3.3418,-3.3418,-3.3418,-3.3418,-3.3418,-3.3418,-3.3418,-3.3418,-3.3418,-3.3418,-3.3418,-3.3418,-3.3418,-3.3418,-3.3418,-3.3418,-3.3418,-3.3418,-3.3418,-3.3418,-3.3418,-3.3418,-3.3418,-3.3418,-3.3418,-4.3344,-4.3344,-4.325,-4.2548,-4.1504,-4.0404,-3.9258,-3.7939,-3.6977,-3.6452,-3.6452,-3.637,-3.637,-3.637,-3.637,-3.637,-3.637,-3.637,-3.637,-3.637,-3.637,-3.637,-3.637,-3.637,-3.637,-3.637,-3.637,-3.637,-3.637,-3.637,-3.637,-3.637,-3.637,-3.637,-3.637,-3.637,-3.637,-3.637,-3.637,-3.637,-3.6263,-3.5174,-3.4483,-3.4374,-3.3155,-3.2431,-3.2241,-3.1019,-3.0224,-3.0328,-2.9006,-2.8301,-2.8301,-2.8301,-2.8652,-2.9404,-2.958,-2.999,-3.0752,-3.0898,-3.0898,-3.0898,-3.0898,-3.0898,-3.0898,-3.0898,-3.0898,-3.0898,-3.1318,-3.1738,-3.2178,-3.2871,-3.3369,-3.3418,-3.3418,-3.3418,-3.3418,-3.3418,-3.3418,-3.3418,-3.3418,-3.3418,-3.3418,-3.3418,-3.3418,-3.3418,-3.3418,-3.3418,-3.3418,-3.3418,-3.3418,-3.3418,-3.3418,-3.3418,-3.3418,-3.3418,-3.3418,-3.3418,-3.3418,-3.3418,-3.3418,-3.3418,-3.3418,-3.3418,-3.3418,-3.3418,-3.3418,-3.3418,-3.3418,-3.3418,-3.3418,-3.3418,-3.3418,-3.3418,-3.3418,-4.3344,-4.325,-4.2548,-4.1518,-4.0404,-3.9271,-3.8121,-3.6964,-3.6628,-3.637,-3.637,-3.637,-3.637,-3.637,-3.637,-3.637,-3.637,-3.637,-3.637,-3.637,-3.637,-3.637,-3.637,-3.637,-3.637,-3.637,-3.637,-3.637,-3.637,-3.637,-3.637,-3.637,-3.637,-3.637,-3.637,-3.637,-3.637,-3.637,-3.637,-3.637,-3.6168,-3.4252,-3.3055,-3.2955,-3.1735,-3.1019,-3.1019,-2.9702,-2.9006,-2.8996,-2.8495,-2.8301,-2.8301,-2.8301,-2.8682,-2.9453,-2.958,-2.9961,-3.0732,-3.0898,-3.0898,-3.0898,-3.0898,-3.0898,-3.0898,-3.0898,-3.0898,-3.0967,-3.1269,-3.1699,-3.2148,-3.2695,-3.3135,-3.3359,-3.3418,-3.3418,-3.3418,-3.3418,-3.3418,-3.3418,-3.3418,-3.3418,-3.3418,-3.3418,-3.3418,-3.3418,-3.3418,-3.3418,-3.3418,-3.3418,-3.3418,-3.3418,-3.3418,-3.3418,-3.3418,-3.3418,-3.3418,-3.3418,-3.3418,-3.3418,-3.3418,-3.3418,-3.3418,-3.3418,-3.3418,-3.3418,-3.3418,-3.3418,-3.3418,-3.3418,-3.3418,-3.3418,-3.3418,-3.3418,-3.3418,-4.3344,-4.3155,-4.2097,-4.0916,-3.9812,-3.8662,-3.7415,-3.6452,-3.637,-3.637,-3.637,-3.637,-3.637,-3.637,-3.637,-3.637,-3.637,-3.637,-3.637,-3.637,-3.637,-3.637,-3.637,-3.637,-3.637,-3.637,-3.637,-3.637,-3.637,-3.637,-3.637,-3.637,-3.637,-3.637,-3.637,-3.637,-3.637,-3.637,-3.637,-3.6263,-3.5571,-3.354,-3.2028,-3.152,-3.0307,-2.9713,-2.9608,-2.8804,-2.8301,-2.8301,-2.8301,-2.8301,-2.8301,-2.8301,-2.8672,-2.9443,-2.958,-2.9951,-3.0732,-3.0898,-3.0898,-3.0898,-3.0898,-3.0898,-3.0898,-3.0898,-3.0898,-3.0957,-3.1123,-3.1494,-3.1914,-3.2344,-3.2812,-3.3281,-3.3418,-3.3418,-3.3418,-3.3418,-3.3418,-3.3418,-3.3418,-3.3418,-3.3418,-3.3418,-3.3418,-3.3418,-3.3418,-3.3418,-3.3418,-3.3418,-3.3418,-3.3418,-3.3418,-3.3418,-3.3418,-3.3418,-3.3418,-3.3418,-3.3418,-3.3418,-3.3418,-3.3418,-3.3418,-3.3418,-3.3418,-3.3418,-3.3418,-3.3418,-3.3418,-3.3418,-3.3418,-3.3418,-3.3418,-3.3418,-3.3019,-4.325,-4.3076,-4.2029,-4.0817,-3.9623,-3.8469,-3.7415,-3.6546,-3.637,-3.637,-3.637,-3.637,-3.637,-3.637,-3.637,-3.637,-3.637,-3.637,-3.637,-3.637,-3.637,-3.637,-3.637,-3.637,-3.637,-3.637,-3.637,-3.637,-3.637,-3.637,-3.637,-3.637,-3.637,-3.637,-3.637,-3.637,-3.637,-3.637,-3.637,-3.5775,-3.4471,-3.3044,-3.1735,-3.0411,-2.9102,-2.8495,-2.8388,-2.8291,-2.8301,-2.8301,-2.8301,-2.8301,-2.8301,-2.8301,-2.8682,-2.9404,-2.958,-3.001,-3.0752,-3.0898,-3.0898,-3.0898,-3.0898,-3.0898,-3.0898,-3.0898,-3.0898,-3.0908,-3.0937,-3.1113,-3.1533,-3.1924,-3.248,-3.3242,-3.3379,-3.3418,-3.3418,-3.3418,-3.3418,-3.3418,-3.3418,-3.3418,-3.3418,-3.3418,-3.3418,-3.3418,-3.3418,-3.3418,-3.3418,-3.3418,-3.3418,-3.3418,-3.3418,-3.3418,-3.3418,-3.3418,-3.3418,-3.3418,-3.3418,-3.3418,-3.3418,-3.3418,-3.3418,-3.3418,-3.3418,-3.3418,-3.3418,-3.3418,-3.3418,-3.3418,-3.3418,-3.3146,-3.2756,-3.2492,-3.1835,-4.282,-4.2029,-4.0916,-3.9697,-3.8559,-3.7415,-3.6709,-3.6452,-3.637,-3.637,-3.637,-3.637,-3.637,-3.637,-3.637,-3.637,-3.637,-3.637,-3.637,-3.637,-3.637,-3.637,-3.637,-3.637,-3.637,-3.637,-3.637,-3.637,-3.637,-3.637,-3.637,-3.637,-3.637,-3.637,-3.637,-3.637,-3.637,-3.637,-3.637,-3.5763,-3.4385,-3.3055,-3.1622,-3.0317,-2.9006,-2.8301,-2.8301,-2.8301,-2.8301,-2.8301,-2.8301,-2.8301,-2.8301,-2.8301,-2.8701,-2.9443,-2.958,-2.9951,-3.0732,-3.0898,-3.0898,-3.0898,-3.0898,-3.0898,-3.0898,-3.0898,-3.0898,-3.0898,-3.0898,-3.1064,-3.1435,-3.1631,-3.21,-3.2891,-3.3242,-3.3398,-3.3418,-3.3418,-3.3418,-3.3418,-3.3418,-3.3418,-3.3418,-3.3418,-3.3418,-3.3418,-3.3418,-3.3418,-3.3418,-3.3418,-3.3418,-3.3418,-3.3418,-3.3418,-3.3418,-3.3418,-3.3418,-3.3418,-3.3418,-3.3418,-3.3418,-3.3418,-3.3418,-3.3418,-3.3418,-3.3418,-3.3418,-3.3155,-3.3019,-3.3155,-3.3019,-3.2492,-3.1826,-3.1176,-3.0642,-4.2629,-4.1489,-4.0418,-3.9197,-3.803,-3.6896,-3.637,-3.637,-3.637,-3.637,-3.637,-3.637,-3.637,-3.637,-3.637,-3.637,-3.637,-3.637,-3.637,-3.637,-3.637,-3.637,-3.637,-3.637,-3.637,-3.637,-3.637,-3.637,-3.637,-3.637,-3.637,-3.637,-3.637,-3.637,-3.637,-3.637,-3.637,-3.6358,-3.587,-3.4969,-3.365,-3.2241,-3.0927,-2.9608,-2.8698,-2.8291,-2.8301,-2.8301,-2.8301,-2.8301,-2.8301,-2.8301,-2.8301,-2.832,-2.8672,-2.9365,-2.9629,-2.9951,-3.0752,-3.0898,-3.0898,-3.0898,-3.0898,-3.0898,-3.0898,-3.0898,-3.0898,-3.0898,-3.0898,-3.1006,-3.124,-3.1455,-3.1768,-3.2246,-3.2842,-3.3223,-3.3359,-3.3418,-3.3418,-3.3418,-3.3418,-3.3418,-3.3418,-3.3418,-3.3418,-3.3418,-3.3418,-3.3418,-3.3418,-3.3418,-3.3418,-3.3418,-3.3418,-3.3418,-3.3418,-3.3418,-3.3418,-3.3418,-3.3418,-3.3418,-3.3418,-3.3418,-3.3418,-3.3418,-3.3418,-3.3418,-3.3418,-3.2492,-3.21,-3.2228,-3.21,-3.0918,-2.9865,-2.9865,-2.9205,-4.2548,-4.142,-4.0232,-3.9006,-3.7861,-3.679,-3.637,-3.637,-3.637,-3.637,-3.637,-3.637,-3.637,-3.637,-3.637,-3.637,-3.637,-3.637,-3.637,-3.637,-3.637,-3.637,-3.637,-3.637,-3.637,-3.637,-3.637,-3.637,-3.637,-3.637,-3.637,-3.637,-3.637,-3.637,-3.6358,-3.6358,-3.6168,-3.5966,-3.4884,-3.3563,-3.223,-3.1019,-2.9817,-2.8485,-2.8388,-2.8301,-2.8301,-2.8301,-2.8301,-2.8301,-2.8301,-2.8301,-2.8301,-2.8301,-2.8672,-2.9424,-2.9541,-3.0,-3.0625,-3.0869,-3.0898,-3.0898,-3.0898,-3.0898,-3.0898,-3.0898,-3.0898,-3.0898,-3.0898,-3.0908,-3.1006,-3.1211,-3.1465,-3.1621,-3.2373,-3.2978,-3.335,-3.3418,-3.3418,-3.3418,-3.3418,-3.3418,-3.3418,-3.3418,-3.3418,-3.3418,-3.3418,-3.3418,-3.3418,-3.3418,-3.3418,-3.3418,-3.3418,-3.3418,-3.3418,-3.3418,-3.3418,-3.3418,-3.3418,-3.3418,-3.3418,-3.3292,-3.3418,-3.3418,-3.2892,-3.3019,-3.2756,-3.157,-3.078,-3.0651,-2.9865,-2.8558,-2.8032,-2.8023,-2.7495,-4.1351,-4.0232,-3.9094,-3.7952,-3.6883,-3.6452,-3.637,-3.637,-3.637,-3.637,-3.637,-3.637,-3.637,-3.637,-3.637,-3.637,-3.637,-3.637,-3.637,-3.637,-3.637,-3.637,-3.637,-3.637,-3.637,-3.637,-3.637,-3.637,-3.637,-3.637,-3.637,-3.637,-3.637,-3.637,-3.6358,-3.5463,-3.4981,-3.4763,-3.3552,-3.2241,-3.103,-3.0525,-2.9713,-2.8504,-2.8301,-2.8301,-2.8301,-2.8301,-2.8301,-2.8301,-2.8301,-2.8301,-2.8301,-2.8301,-2.8555,-2.9043,-2.9414,-2.9785,-3.0303,-3.0684,-3.0869,-3.0898,-3.0898,-3.0898,-3.0898,-3.0898,-3.0898,-3.0898,-3.0898,-3.0898,-3.0908,-3.0996,-3.1191,-3.1562,-3.2226,-3.29,-3.3271,-3.3418,-3.3418,-3.3418,-3.3418,-3.3418,-3.3418,-3.3418,-3.3418,-3.3418,-3.3418,-3.3418,-3.3418,-3.3418,-3.3418,-3.3418,-3.3418,-3.3418,-3.3418,-3.3418,-3.3418,-3.3418,-3.3418,-3.3418,-3.3292,-3.3292,-3.3292,-3.3418,-3.1707,-3.1442,-3.0909,-2.9995,-2.9596,-2.8812,-2.8163,-2.7246,-2.6447,-2.6172,-2.5517,-4.1351,-3.9798,-3.9183,-3.7952,-3.6452,-3.637,-3.637,-3.637,-3.637,-3.637,-3.637,-3.637,-3.637,-3.637,-3.637,-3.637,-3.637,-3.637,-3.637,-3.637,-3.637,-3.637,-3.637,-3.637,-3.637,-3.637,-3.637,-3.637,-3.637,-3.637,-3.637,-3.637,-3.637,-3.637,-3.6263,-3.5078,-3.4385,-3.408,-3.2543,-3.103,-3.0317,-2.9713,-2.9102,-2.8398,-2.8301,-2.8301,-2.8301,-2.8301,-2.8301,-2.8301,-2.8301,-2.8301,-2.8301,-2.8301,-2.8486,-2.8896,-2.917,-2.9541,-3.0107,-3.0469,-3.0684,-3.085,-3.0898,-3.0898,-3.0898,-3.0898,-3.0898,-3.0898,-3.0898,-3.0898,-3.0898,-3.0898,-3.1094,-3.1484,-3.1963,-3.251,-3.3076,-3.331,-3.3398,-3.3418,-3.3418,-3.3418,-3.3418,-3.3418,-3.3418,-3.3418,-3.3418,-3.3418,-3.3418,-3.3418,-3.3418,-3.3418,-3.3418,-3.3418,-3.3418,-3.3418,-3.3155,-3.3155,-3.2629,-3.2765,-3.2765,-3.2638,-3.2365,-3.1963,-3.0651,-2.9596,-2.9074,-2.841,-2.7487,-2.6964,-2.6581,-2.592,-2.4986,-2.4716,-2.3924,-4.1782,-3.9899,-3.9637,-3.8315,-3.6546,-3.637,-3.637,-3.637,-3.637,-3.637,-3.637,-3.637,-3.637,-3.637,-3.637,-3.637,-3.637,-3.637,-3.637,-3.637,-3.637,-3.637,-3.637,-3.637,-3.637,-3.637,-3.637,-3.637,-3.637,-3.637,-3.637,-3.637,-3.637,-3.637,-3.6061,-3.4872,-3.4276,-3.3563,-3.1338,-3.011,-2.9713,-2.9006,-2.8495,-2.8398,-2.8301,-2.8301,-2.8301,-2.8301,-2.8301,-2.8301,-2.8301,-2.8301,-2.8301,-2.8301,-2.8447,-2.875,-2.8926,-2.9297,-2.9883,-3.0049,-3.0332,-3.0654,-3.0771,-3.0869,-3.0869,-3.0898,-3.0898,-3.0898,-3.0898,-3.0898,-3.0898,-3.0898,-3.1035,-3.1338,-3.1494,-3.1914,-3.251,-3.3066,-3.3369,-3.3418,-3.3418,-3.3418,-3.3418,-3.3418,-3.3418,-3.3418,-3.3418,-3.3418,-3.3418,-3.3418,-3.3418,-3.3418,-3.3418,-3.3418,-3.3418,-3.3418,-3.3019,-3.2756,-3.1845,-3.1579,-3.1579,-3.1322,-3.0918,-3.0125,-2.8943,-2.8155,-2.7759,-2.6839,-2.5778,-2.5113,-2.4858,-2.3931,-2.3133,-2.3529,-2.3126,-4.0332,-3.9724,-3.7952,-3.6896,-3.6452,-3.637,-3.637,-3.637,-3.637,-3.637,-3.637,-3.637,-3.637,-3.637,-3.637,-3.637,-3.637,-3.637,-3.637,-3.637,-3.637,-3.637,-3.637,-3.637,-3.637,-3.637,-3.637,-3.637,-3.637,-3.637,-3.637,-3.637,-3.6263,-3.637,-3.6048,-3.3946,-3.2744,-3.2331,-3.011,-2.89,-2.89,-2.8601,-2.8301,-2.8301,-2.8301,-2.8301,-2.8301,-2.8301,-2.8301,-2.8301,-2.8301,-2.8301,-2.8301,-2.8301,-2.8359,-2.8486,-2.875,-2.9004,-2.9219,-2.9551,-2.9883,-3.0273,-3.0371,-3.0508,-3.0869,-3.0859,-3.0869,-3.0889,-3.0898,-3.0898,-3.0898,-3.0898,-3.0957,-3.1103,-3.1318,-3.1562,-3.1875,-3.249,-3.3037,-3.3301,-3.3398,-3.3418,-3.3418,-3.3418,-3.3418,-3.3418,-3.3418,-3.3418,-3.3292,-3.3282,-3.3019,-3.2756,-3.2365,-3.21,-3.21,-3.1973,-3.1707,-3.1442,-3.0789,-2.9874,-2.9874,-2.9865,-2.9466,-2.841,-2.723,-2.6573,-2.6046,-2.5121,-2.3924,-2.3529,-2.3263,-2.3133,-2.2866,-2.2866,-2.2866,-4.0404,-3.9724,-3.7939,-3.6883,-3.6452,-3.637,-3.637,-3.637,-3.637,-3.637,-3.637,-3.637,-3.637,-3.637,-3.637,-3.637,-3.637,-3.637,-3.637,-3.637,-3.637,-3.637,-3.637,-3.637,-3.637,-3.637,-3.637,-3.637,-3.637,-3.637,-3.637,-3.6263,-3.5763,-3.5367,-3.5066,-3.2833,-3.1531,-3.103,-2.9408,-2.8301,-2.8301,-2.8301,-2.8301,-2.8301,-2.8301,-2.8301,-2.8301,-2.8301,-2.8301,-2.8301,-2.8301,-2.8301,-2.8301,-2.8301,-2.8301,-2.835,-2.8467,-2.875,-2.8926,-2.9141,-2.9443,-2.9863,-2.9902,-3.0156,-3.043,-3.0566,-3.0703,-3.083,-3.0898,-3.0898,-3.0898,-3.0898,-3.0898,-3.0928,-3.1084,-3.1289,-3.1592,-3.2266,-3.2851,-3.3125,-3.3291,-3.3379,-3.3418,-3.3389,-3.3418,-3.3418,-3.3418,-3.3418,-3.2892,-3.2756,-3.2091,-3.1698,-3.1047,-3.066,-3.066,-3.0401,-3.0004,-2.9744,-2.9352,-2.8295,-2.7495,-2.7627,-2.7751,-2.6698,-2.5644,-2.4723,-2.406,-2.3133,-2.2866,-2.2996,-2.2996,-2.2996,-2.2866,-2.2866,-2.2866,-4.0746,-3.9812,-3.8379,-3.723,-3.6452,-3.637,-3.637,-3.637,-3.637,-3.637,-3.637,-3.637,-3.637,-3.637,-3.637,-3.637,-3.637,-3.637,-3.637,-3.637,-3.637,-3.637,-3.637,-3.637,-3.6168,-3.6168,-3.6358,-3.6358,-3.6358,-3.6156,-3.587,-3.5775,-3.4666,-3.4166,-3.3464,-3.1746,-3.0525,-3.0328,-2.9112,-2.8301,-2.8301,-2.8301,-2.8301,-2.8301,-2.8301,-2.8301,-2.8301,-2.8301,-2.8301,-2.8301,-2.8301,-2.8301,-2.8301,-2.8301,-2.8301,-2.8301,-2.834,-2.8476,-2.8682,-2.8828,-2.9014,-2.9424,-2.9473,-2.9678,-2.998,-3.0137,-3.0322,-3.0625,-3.0801,-3.0898,-3.0898,-3.0898,-3.0898,-3.0898,-3.0898,-3.1064,-3.1455,-3.2129,-3.2471,-3.2734,-3.2978,-3.3174,-3.3281,-3.332,-3.3369,-3.3292,-3.3282,-3.3155,-3.2756,-3.21,-3.1304,-3.078,-3.0133,-2.9613,-2.9483,-2.8418,-2.8155,-2.7759,-2.7511,-2.6447,-2.5517,-2.5517,-2.551,-2.5113,-2.4188,-2.3529,-2.3263,-2.2996,-2.2866,-2.2866,-2.2866,-2.2866,-2.2866,-2.2866,-2.2866,-4.0073,-3.9711,-3.7612,-3.6546,-3.6465,-3.637,-3.637,-3.637,-3.637,-3.637,-3.637,-3.637,-3.637,-3.637,-3.637,-3.637,-3.637,-3.637,-3.637,-3.637,-3.637,-3.637,-3.637,-3.637,-3.587,-3.5271,-3.5667,-3.6156,-3.5858,-3.5367,-3.4775,-3.4471,-3.3353,-3.2644,-3.2241,-3.1122,-3.012,-2.9922,-2.89,-2.8291,-2.8301,-2.8301,-2.8301,-2.8301,-2.8301,-2.8301,-2.8301,-2.8301,-2.8301,-2.8301,-2.8301,-2.8301,-2.8301,-2.8301,-2.8301,-2.8301,-2.8301,-2.8369,-2.8447,-2.8447,-2.8623,-2.8906,-2.9033,-2.9238,-2.9541,-2.9697,-2.9893,-3.0264,-3.0635,-3.0869,-3.0889,-3.0879,-3.0898,-3.0898,-3.0908,-3.0937,-3.1103,-3.1326,-3.1653,-3.1764,-3.2283,-3.269,-3.2546,-3.2545,-3.2378,-3.2181,-3.21,-3.21,-3.1973,-3.1304,-3.0504,-2.9856,-2.9344,-2.8821,-2.8435,-2.6972,-2.6046,-2.5778,-2.5256,-2.4595,-2.3795,-2.3529,-2.3263,-2.3522,-2.3522,-2.3126,-2.2996,-2.2866,-2.2866,-2.2866,-2.2866,-2.2866,-2.2866,-2.2866,-2.2866,-3.9402,-3.9184,-3.7206,-3.637,-3.637,-3.637,-3.637,-3.637,-3.637,-3.637,-3.637,-3.637,-3.637,-3.637,-3.637,-3.637,-3.637,-3.637,-3.637,-3.637,-3.637,-3.637,-3.637,-3.637,-3.6061,-3.5571,-3.5463,-3.4957,-3.424,-3.365,-3.3365,-3.2955,-3.1938,-3.1327,-3.0916,-2.9911,-2.9408,-2.9112,-2.8708,-2.8301,-2.8301,-2.8301,-2.8301,-2.8301,-2.8301,-2.8301,-2.8301,-2.8301,-2.8301,-2.8301,-2.8301,-2.8301,-2.8301,-2.8301,-2.8301,-2.8301,-2.8301,-2.8301,-2.8301,-2.8301,-2.8418,-2.8545,-2.8603,-2.8799,-2.9101,-2.9268,-2.9453,-2.9844,-3.0254,-3.0537,-3.0518,-3.0742,-3.0879,-3.0898,-3.0889,-3.0889,-3.0694,-3.023,-3.02,-3.0483,-3.1415,-3.1703,-3.1286,-3.1299,-3.1221,-3.1075,-3.0891,-3.0909,-3.1038,-2.9986,-2.8795,-2.7883,-2.7097,-2.6573,-2.6314,-2.5517,-2.4588,-2.4188,-2.3924,-2.3126,-2.2866,-2.2996,-2.2996,-2.2996,-2.2859,-2.2866,-2.2866,-2.2866,-2.2866,-2.2866,-2.2866,-2.2866,-2.2866,-2.2866,-2.2866,-3.8679,-3.8474,-3.6869,-3.627,-3.6358,-3.637,-3.637,-3.637,-3.637,-3.637,-3.637,-3.637,-3.637,-3.637,-3.637,-3.637,-3.637,-3.637,-3.637,-3.637,-3.637,-3.637,-3.637,-3.637,-3.6168,-3.5367,-3.4459,-3.3563,-3.3243,-3.2241,-3.1938,-3.1531,-3.0618,-2.9911,-2.9608,-2.8996,-2.8398,-2.8301,-2.8301,-2.8301,-2.8301,-2.8301,-2.8301,-2.8301,-2.8301,-2.8301,-2.8301,-2.8301,-2.8301,-2.8301,-2.8301,-2.8301,-2.8301,-2.8301,-2.8301,-2.8301,-2.8301,-2.8301,-2.8301,-2.8301,-2.831,-2.8369,-2.832,-2.8496,-2.8711,-2.8926,-2.9092,-2.9434,-2.9814,-3.0156,-3.0273,-3.0527,-3.0509,-3.0274,-3.0265,-3.0147,-2.9403,-2.8719,-2.8113,-2.8769,-3.013,-3.0174,-2.9342,-2.9536,-2.9415,-2.9532,-2.9353,-2.9397,-2.9275,-2.7619,-2.6432,-2.5241,-2.4452,-2.3924,-2.3659,-2.3931,-2.3529,-2.3393,-2.3393,-2.2996,-2.2866,-2.2866,-2.2866,-2.2866,-2.2866,-2.2866,-2.2866,-2.2866,-2.2866,-2.2866,-2.2866,-2.2866,-2.2866,-2.2866,-2.2866,-3.7884,-3.7414,-3.6118,-3.5918,-3.6307,-3.6332,-3.6345,-3.637,-3.637,-3.637,-3.637,-3.637,-3.637,-3.637,-3.637,-3.637,-3.637,-3.637,-3.637,-3.637,-3.637,-3.637,-3.637,-3.637,-3.5667,-3.4763,-3.3254,-3.3365,-3.2855,-3.1429,-3.0525,-3.0214,-2.9408,-2.8601,-2.8804,-2.8495,-2.8291,-2.8301,-2.8301,-2.8301,-2.8301,-2.8301,-2.8301,-2.8301,-2.8301,-2.8301,-2.8301,-2.8301,-2.8301,-2.8301,-2.8301,-2.8301,-2.8301,-2.8301,-2.8301,-2.8301,-2.8301,-2.8301,-2.8301,-2.8301,-2.8301,-2.8301,-2.8301,-2.833,-2.8476,-2.8701,-2.8887,-2.8975,-2.9274,-2.9389,-2.9507,-2.9957,-2.9621,-2.909,-2.8701,-2.8006,-2.7185,-2.697,-2.6357,-2.6122,-2.7068,-2.7064,-2.6628,-2.721,-2.7646,-2.7769,-2.7726,-2.7613,-2.725,-2.5718,-2.4851,-2.406,-2.3659,-2.3133,-2.2866,-2.2866,-2.2866,-2.2866,-2.2866,-2.2866,-2.2866,-2.2866,-2.2866,-2.2866,-2.2866,-2.2866,-2.2866,-2.2866,-2.2866,-2.2866,-2.2866,-2.2866,-2.2866,-2.2866,-2.2866,-3.6714,-3.6226,-3.5366,-3.5403,-3.5868,-3.5893,-3.6081,-3.632,-3.637,-3.637,-3.637,-3.637,-3.637,-3.637,-3.637,-3.637,-3.637,-3.637,-3.637,-3.637,-3.637,-3.637,-3.6168,-3.5667,-3.4787,-3.397,-3.2443,-3.1327,-3.1327,-3.0421,-2.9197,-2.9102,-2.8698,-2.8398,-2.8301,-2.8301,-2.8301,-2.8301,-2.8301,-2.8301,-2.8301,-2.8301,-2.8301,-2.8301,-2.8301,-2.8301,-2.8301,-2.8301,-2.8301,-2.8301,-2.8301,-2.8301,-2.8301,-2.8301,-2.8301,-2.8301,-2.8301,-2.8301,-2.8301,-2.8301,-2.8301,-2.8301,-2.8301,-2.8301,-2.834,-2.834,-2.8013,-2.7313,-2.7696,-2.779,-2.7323,-2.7238,-2.7087,-2.6854,-2.679,-2.6456,-2.5659,-2.5008,-2.454,-2.4294,-2.4054,-2.4192,-2.4446,-2.4944,-2.5134,-2.4887,-2.48,-2.4788,-2.4642,-2.4075,-2.3474,-2.327,-2.3133,-2.2859,-2.2866,-2.2866,-2.2866,-2.2866,-2.2866,-2.2866,-2.2866,-2.2866,-2.2866,-2.2866,-2.2866,-2.2866,-2.2866,-2.2866,-2.2866,-2.2866,-2.2866,-2.2866,-2.2866,-2.2866,-2.2866,-3.5452,-3.4881,-3.4629,-3.4839,-3.5353,-3.5479,-3.578,-3.6132,-3.6307,-3.637,-3.637,-3.637,-3.637,-3.637,-3.637,-3.637,-3.637,-3.637,-3.637,-3.637,-3.6358,-3.6156,-3.5667,-3.4787,-3.4276,-3.3871,-3.1644,-3.0618,-3.0005,-2.9197,-2.8388,-2.8301,-2.8398,-2.8301,-2.8301,-2.8301,-2.8301,-2.8301,-2.8301,-2.8301,-2.8301,-2.8301,-2.8301,-2.8301,-2.8301,-2.8301,-2.8301,-2.8301,-2.8301,-2.8301,-2.8301,-2.8301,-2.8301,-2.8301,-2.8301,-2.8301,-2.8301,-2.8301,-2.8301,-2.8301,-2.8301,-2.8301,-2.8184,-2.8067,-2.7618,-2.7726,-2.7168,-2.5762,-2.5745,-2.5527,-2.5142,-2.5273,-2.5053,-2.5217,-2.4954,-2.49,-2.459,-2.3701,-2.3047,-2.2834,-2.2459,-2.1964,-2.2328,-2.282,-2.2794,-2.2182,-2.1937,-2.2031,-2.2258,-2.2667,-2.2754,-2.2652,-2.2686,-2.2726,-2.2839,-2.2839,-2.2853,-2.2812,-2.2812,-2.2846,-2.2839,-2.2853,-2.2866,-2.2866,-2.2866,-2.2866,-2.2866,-2.2866,-2.2866,-2.2866,-2.2866,-2.2866,-2.2866,-2.2866,-2.2866,-3.4204,-3.3341,-3.3721,-3.4274,-3.4813,-3.5236,-3.5542,-3.5642,-3.6119,-3.632,-3.637,-3.637,-3.637,-3.637,-3.637,-3.637,-3.637,-3.637,-3.637,-3.637,-3.6358,-3.5763,-3.4981,-3.4276,-3.3563,-3.2342,-3.0721,-3.012,-2.9911,-2.89,-2.8398,-2.8301,-2.8301,-2.8301,-2.8301,-2.8301,-2.8301,-2.8301,-2.8301,-2.8301,-2.8301,-2.8301,-2.8301,-2.8301,-2.8301,-2.8301,-2.8301,-2.8301,-2.8301,-2.8301,-2.8301,-2.8301,-2.8301,-2.8301,-2.8301,-2.8301,-2.8301,-2.8301,-2.8301,-2.8291,-2.8291,-2.8291,-2.795,-2.7276,-2.6381,-2.6273,-2.5489,-2.4267,-2.4161,-2.4465,-2.4805,-2.5138,-2.3705,-2.3363,-2.3006,-2.2862,-2.2573,-2.2178,-2.1637,-2.1335,-2.1235,-2.1102,-2.1102,-2.1837,-2.2166,-2.1666,-2.171,-2.1804,-2.1931,-2.2164,-2.2285,-2.2358,-2.2418,-2.2532,-2.2759,-2.2752,-2.2619,-2.2592,-2.2605,-2.2706,-2.2792,-2.2812,-2.2759,-2.2866,-2.2866,-2.2866,-2.2866,-2.2866,-2.2866,-2.2866,-2.2866,-2.2866,-2.2866,-2.2866,-2.2866,-3.4037,-3.3093,-3.3307,-3.3709,-3.4236,-3.4449,-3.4726,-3.5102,-3.5617,-3.6069,-3.6345,-3.637,-3.637,-3.637,-3.637,-3.637,-3.637,-3.637,-3.637,-3.637,-3.6263,-3.5571,-3.4678,-3.3365,-3.2342,-3.1019,-2.9807,-2.9112,-2.891,-2.8495,-2.8398,-2.8301,-2.8301,-2.8301,-2.8301,-2.8301,-2.8301,-2.8301,-2.8301,-2.8301,-2.8301,-2.8301,-2.8301,-2.8301,-2.8301,-2.8301,-2.8301,-2.8301,-2.8301,-2.8301,-2.8301,-2.8301,-2.8301,-2.8301,-2.8301,-2.8301,-2.8301,-2.8301,-2.8291,-2.8184,-2.796,-2.6834,-2.6164,-2.538,-2.482,-2.471,-2.3925,-2.3039,-2.2371,-2.2777,-2.1795,-2.1624,-2.1133,-2.1074,-2.1082,-2.0935,-2.0897,-2.0846,-2.0935,-2.1108,-2.1056,-2.1102,-2.1102,-2.1116,-2.1303,-2.1269,-2.143,-2.1583,-2.1697,-2.1817,-2.1951,-2.2064,-2.2131,-2.2198,-2.2405,-2.2392,-2.2345,-2.2372,-2.2392,-2.2472,-2.2565,-2.2579,-2.2572,-2.2712,-2.2812,-2.2766,-2.2766,-2.2839,-2.2859,-2.2853,-2.2853,-2.2866,-2.2866,-2.2866,-2.2866,-3.3797,-3.3167,-3.3081,-3.3294,-3.3646,-3.3834,-3.411,-3.4525,-3.5064,-3.5604,-3.6119,-3.6257,-3.637,-3.637,-3.637,-3.637,-3.637,-3.637,-3.637,-3.637,-3.6263,-3.5355,-3.3958,-3.2744,-3.152,-2.9911,-2.9006,-2.8398,-2.8398,-2.8291,-2.8301,-2.8301,-2.8301,-2.8301,-2.8301,-2.8301,-2.8301,-2.8301,-2.8301,-2.8301,-2.8301,-2.8301,-2.8301,-2.8301,-2.8301,-2.8301,-2.8301,-2.8301,-2.8301,-2.8301,-2.8301,-2.8301,-2.8301,-2.8301,-2.8301,-2.8291,-2.8291,-2.8291,-2.8184,-2.7726,-2.7276,-2.6273,-2.482,-2.3933,-2.3263,-2.3151,-2.2476,-2.1259,-2.0923,-2.0479,-1.9366,-1.9754,-2.002,-2.0151,-2.0328,-2.0301,-2.0476,-2.0428,-2.0681,-2.0869,-2.0929,-2.0975,-2.1102,-2.1102,-2.1122,-2.1169,-2.1236,-2.1343,-2.1396,-2.1523,-2.1663,-2.1764,-2.185,-2.1917,-2.1991,-2.2064,-2.2138,-2.2164,-2.2178,-2.2184,-2.2238,-2.2271,-2.2305,-2.2378,-2.2465,-2.2572,-2.2552,-2.2472,-2.2632,-2.2832,-2.2819,-2.2799,-2.2866,-2.2866,-2.2866,-3.3154,-3.3081,-3.3081,-3.3093,-3.3206,-3.3671,-3.3884,-3.3997,-3.45,-3.509,-3.5667,-3.6094,-3.6332,-3.6345,-3.637,-3.637,-3.637,-3.6358,-3.6263,-3.6168,-3.5966,-3.4642,-3.3132,-3.1825,-3.0813,-2.89,-2.8301,-2.8301,-2.8301,-2.8301,-2.8301,-2.8301,-2.8301,-2.8301,-2.8301,-2.8301,-2.8301,-2.8301,-2.8301,-2.8301,-2.8301,-2.8301,-2.8301,-2.8301,-2.8301,-2.8301,-2.8301,-2.8301,-2.8301,-2.8301,-2.8301,-2.8301,-2.8301,-2.8301,-2.8184,-2.8067,-2.8057,-2.8057,-2.8077,-2.6825,-2.5927,-2.5261,-2.3599,-2.271,-2.1926,-2.1472,-2.1252,-2.0141,-1.9815,-1.9707,-1.9366,-1.9372,-1.9399,-1.9466,-1.9653,-1.9813,-1.9993,-2.0127,-2.0374,-2.0648,-2.0715,-2.0782,-2.0982,-2.1102,-2.1102,-2.1116,-2.1109,-2.1136,-2.1189,-2.1263,-2.1416,-2.147,-2.1563,-2.161,-2.169,-2.1844,-2.1924,-2.1951,-2.1924,-2.1884,-2.1917,-2.1977,-2.2011,-2.2051,-2.2151,-2.2285,-2.2171,-2.2031,-2.2285,-2.2539,-2.2686,-2.2719,-2.2799,-2.2819,-2.2766,-3.3081,-3.3081,-3.3081,-3.3081,-3.3106,-3.3257,-3.3357,-3.3445,-3.396,-3.4688,-3.5441,-3.5768,-3.6056,-3.6245,-3.637,-3.637,-3.6358,-3.6358,-3.6168,-3.5174,-3.5066,-3.3254,-3.1735,-3.0927,-3.0005,-2.8804,-2.8301,-2.8301,-2.8301,-2.8301,-2.8301,-2.8301,-2.8301,-2.8301,-2.8301,-2.8301,-2.8301,-2.8301,-2.8301,-2.8301,-2.8301,-2.8301,-2.8301,-2.8301,-2.8301,-2.8301,-2.8301,-2.8301,-2.8301,-2.8301,-2.8301,-2.8291,-2.8184,-2.8184,-2.7726,-2.7032,-2.6562,-2.5982,-2.5243,-2.4036,-2.3143,-2.271,-2.2047,-2.0931,-2.0263,-2.0148,-1.9809,-1.9584,-1.9482,-1.9366,-1.9366,-1.9366,-1.9386,-1.9379,-1.9512,-1.9646,-1.9793,-1.988,-2.006,-2.0347,-2.0508,-2.0755,-2.0969,-2.1022,-2.1029,-2.1089,-2.1102,-2.1102,-2.1142,-2.1136,-2.1216,-2.1223,-2.1269,-2.1309,-2.139,-2.153,-2.1557,-2.153,-2.1503,-2.147,-2.1537,-2.167,-2.1784,-2.1857,-2.1931,-2.1984,-2.1884,-2.1844,-2.2017,-2.2218,-2.2265,-2.2345,-2.2392,-2.2465,-2.2539,-3.3081,-3.3081,-3.3081,-3.3081,-3.3081,-3.3081,-3.3081,-3.3181,-3.3671,-3.4424,-3.5152,-3.5441,-3.5843,-3.6232,-3.637,-3.637,-3.6358,-3.5763,-3.5463,-3.4276,-3.3773,-3.2342,-3.103,-3.012,-2.9608,-2.8601,-2.8301,-2.8301,-2.8301,-2.8301,-2.8301,-2.8301,-2.8301,-2.8301,-2.8301,-2.8301,-2.8301,-2.8301,-2.8301,-2.8301,-2.8301,-2.8301,-2.8301,-2.8301,-2.8301,-2.8301,-2.8301,-2.8301,-2.8291,-2.8291,-2.8184,-2.795,-2.7726,-2.7394,-2.6717,-2.5682,-2.4997,-2.4208,-2.3135,-2.2589,-2.1805,-2.0916,-1.9809,-1.9482,-1.9366,-1.9591,-1.9591,-1.9482,-1.9366,-1.9366,-1.9366,-1.9366,-1.9366,-1.9366,-1.9412,-1.9546,-1.9573,-1.9666,-1.9773,-2.006,-2.0254,-2.0561,-2.0875,-2.0929,-2.0935,-2.1022,-2.1102,-2.1102,-2.1096,-2.1102,-2.1102,-2.1116,-2.1122,-2.1182,-2.1196,-2.1209,-2.1203,-2.1122,-2.1156,-2.1216,-2.1249,-2.1403,-2.1537,-2.1623,-2.1597,-2.1583,-2.163,-2.1677,-2.1704,-2.169,-2.167,-2.1777,-2.1924,-2.2098,-2.2251,-3.3081,-3.3081,-3.3081,-3.3081,-3.3081,-3.3081,-3.3081,-3.3119,-3.3621,-3.4161,-3.4726,-3.524,-3.5717,-3.6219,-3.6332,-3.637,-3.6263,-3.5271,-3.4569,-3.397,-3.3055,-3.1531,-3.0525,-2.9911,-2.9207,-2.8601,-2.8301,-2.8301,-2.8301,-2.8301,-2.8301,-2.8301,-2.8301,-2.8301,-2.8301,-2.8301,-2.8301,-2.8301,-2.8301,-2.8301,-2.8301,-2.8301,-2.8301,-2.8301,-2.8301,-2.8301,-2.8301,-2.8301,-2.8184,-2.8067,-2.8057,-2.7159,-2.6599,-2.6045,-2.5041,-2.4147,-2.3694,-2.2589,-2.1813,-2.1252,-2.0809,-2.0033,-1.9591,-1.9366,-1.9366,-1.9366,-1.9366,-1.9366,-1.9366,-1.9366,-1.9366,-1.9366,-1.9366,-1.9366,-1.9366,-1.9406,-1.9399,-1.9472,-1.9559,-1.972,-1.9846,-2.0127,-2.0535,-2.0681,-2.0728,-2.0895,-2.0982,-2.1056,-2.1062,-2.1102,-2.1102,-2.1102,-2.1109,-2.1102,-2.1102,-2.1102,-2.1102,-2.1102,-2.1102,-2.1149,-2.1156,-2.1169,-2.1283,-2.1323,-2.1196,-2.1196,-2.1336,-2.1316,-2.1229,-2.1223,-2.1323,-2.1416,-2.163,-2.183,-2.1971,-3.3081,-3.3081,-3.3081,-3.3081,-3.3081,-3.3081,-3.3081,-3.3119,-3.3269,-3.3633,-3.4173,-3.4713,-3.5278,-3.578,-3.6182,-3.632,-3.6263,-3.5763,-3.4459,-3.3353,-3.2241,-3.0721,-2.9713,-2.9006,-2.8601,-2.8504,-2.8301,-2.8301,-2.8301,-2.8301,-2.8301,-2.8301,-2.8301,-2.8301,-2.8301,-2.8301,-2.8301,-2.8301,-2.8301,-2.8301,-2.8301,-2.8301,-2.8301,-2.8301,-2.8301,-2.8301,-2.8301,-2.8301,-2.796,-2.7051,-2.6825,-2.6036,-2.4608,-2.4378,-2.3822,-2.2363,-2.1373,-2.0378,-2.0148,-2.004,-1.9931,-1.9591,-1.9366,-1.9366,-1.9366,-1.9366,-1.9366,-1.9366,-1.9366,-1.9366,-1.9366,-1.9366,-1.9366,-1.9366,-1.9366,-1.9366,-1.9366,-1.9392,-1.9479,-1.9512,-1.9633,-1.9867,-2.0261,-2.0361,-2.0441,-2.0668,-2.0828,-2.0895,-2.1009,-2.1042,-2.1102,-2.1102,-2.1102,-2.1102,-2.1102,-2.1102,-2.1102,-2.1102,-2.1102,-2.1102,-2.1122,-2.1129,-2.1109,-2.1102,-2.1102,-2.1102,-2.1136,-2.1102,-2.1102,-2.1102,-2.1182,-2.1243,-2.1329,-2.1537,-2.1677,-3.3081,-3.3081,-3.3081,-3.3081,-3.3081,-3.3081,-3.3081,-3.3081,-3.3081,-3.3382,-3.3909,-3.4248,-3.4813,-3.5529,-3.5893,-3.6132,-3.625,-3.4848,-3.3639,-3.2733,-3.1327,-2.9807,-2.8591,-2.8301,-2.8291,-2.8301,-2.8301,-2.8301,-2.8301,-2.8301,-2.8301,-2.8301,-2.8301,-2.8301,-2.8301,-2.8301,-2.8301,-2.8301,-2.8301,-2.8301,-2.8301,-2.8301,-2.8301,-2.8301,-2.8301,-2.8301,-2.8301,-2.8301,-2.7726,-2.6825,-2.6599,-2.538,-2.3718,-2.2822,-2.1934,-2.0587,-2.0148,-1.9707,-1.9591,-1.9475,-1.9482,-1.9366,-1.9366,-1.9366,-1.9366,-1.9366,-1.9366,-1.9366,-1.9366,-1.9366,-1.9366,-1.9366,-1.9366,-1.9366,-1.9366,-1.9366,-1.9366,-1.9366,-1.9386,-1.9406,-1.9546,-1.9746,-1.992,-2.0007,-2.0147,-2.0381,-2.0508,-2.0541,-2.0742,-2.0949,-2.1042,-2.1102,-2.1102,-2.1102,-2.1102,-2.1102,-2.1102,-2.1102,-2.1102,-2.1102,-2.1102,-2.1102,-2.1102,-2.1102,-2.1102,-2.1102,-2.1102,-2.1102,-2.1102,-2.1102,-2.1102,-2.1156,-2.1203,-2.1269,-2.137,-3.3081,-3.3081,-3.3081,-3.3081,-3.3081,-3.3081,-3.3081,-3.3081,-3.3081,-3.3357,-3.3759,-3.3897,-3.4512,-3.5265,-3.5592,-3.5956,-3.5627,-3.4447,-3.3243,-3.223,-3.0317,-2.889,-2.8485,-2.8301,-2.8301,-2.8301,-2.8301,-2.8301,-2.8301,-2.8301,-2.8301,-2.8301,-2.8301,-2.8301,-2.8301,-2.8301,-2.8301,-2.8301,-2.8301,-2.8301,-2.8301,-2.8301,-2.8301,-2.8301,-2.8301,-2.8301,-2.8301,-2.8291,-2.8174,-2.7501,-2.6608,-2.5049,-2.2822,-2.1266,-2.004,-1.9591,-1.9482,-1.9482,-1.9366,-1.9366,-1.9366,-1.9366,-1.9366,-1.9366,-1.9366,-1.9366,-1.9366,-1.9366,-1.9366,-1.9366,-1.9366,-1.9366,-1.9366,-1.9366,-1.9366,-1.9366,-1.9366,-1.9366,-1.9372,-1.9386,-1.9426,-1.9606,-1.9673,-1.9773,-1.988,-2.01,-1.9709,-1.9722,-1.9788,-2.0073,-2.0467,-2.0598,-2.0949,-2.0956,-2.1102,-2.1102,-2.1102,-2.1102,-2.0956,-2.1102,-2.1102,-2.1102,-2.1102,-2.1102,-2.1102,-2.1102,-2.1102,-2.1102,-2.1102,-2.1102,-2.1102,-2.1102,-2.1122,-2.1149,-2.1176,-3.3081,-3.3081,-3.3081,-3.3081,-3.3081,-3.3081,-3.3081,-3.3081,-3.3081,-3.3156,-3.3332,-3.3734,-3.4236,-3.4864,-3.5341,-3.5768,-3.5709,-3.4545,-3.3353,-3.214,-3.0421,-2.9006,-2.8388,-2.8301,-2.8301,-2.8301,-2.8301,-2.8301,-2.8301,-2.8301,-2.8301,-2.8301,-2.8301,-2.8301,-2.8301,-2.8301,-2.8301,-2.8301,-2.8301,-2.8301,-2.8301,-2.8301,-2.8301,-2.8301,-2.8301,-2.8184,-2.8184,-2.8184,-2.6834,-2.527,-2.4718,-2.2934,-2.0594,-1.9815,-1.9475,-1.9366,-1.9366,-1.9366,-1.9366,-1.9366,-1.9366,-1.9366,-1.9366,-1.9366,-1.9366,-1.9366,-1.9366,-1.9366,-1.9366,-1.9366,-1.9366,-1.9366,-1.9366,-1.9366,-1.9366,-1.9366,-1.9366,-1.9366,-1.9366,-1.9249,-1.9249,-1.9173,-1.9232,-1.9311,-1.9646,-1.9266,-1.8381,-1.7974,-1.7771,-1.7984,-1.8865,-1.9268,-2.0598,-2.079,-2.0644,-2.0333,-1.9884,-2.0206,-2.0093,-2.0517,-2.0829,-2.0716,-2.0456,-2.0969,-2.1102,-2.1102,-2.1102,-2.1102,-2.1102,-2.1102,-2.1102,-2.1102,-2.1102,-2.1122,-2.1116,-3.3081,-3.3081,-3.3081,-3.3081,-3.3081,-3.3081,-3.3081,-3.3081,-3.3081,-3.3081,-3.3106,-3.342,-3.3834,-3.4387,-3.4939,-3.5516,-3.5806,-3.4884,-3.3528,-3.2241,-3.0927,-2.9513,-2.8804,-2.8301,-2.8301,-2.8301,-2.8301,-2.8301,-2.8301,-2.8301,-2.8301,-2.8301,-2.8301,-2.8301,-2.8301,-2.8301,-2.8301,-2.8301,-2.8301,-2.8301,-2.8301,-2.8301,-2.8301,-2.8301,-2.8291,-2.8067,-2.7394,-2.7276,-2.5936,-2.4156,-2.3375,-2.1828,-2.0148,-1.9475,-1.9366,-1.9366,-1.9366,-1.9366,-1.9366,-1.9366,-1.9366,-1.9366,-1.9366,-1.9366,-1.9366,-1.9366,-1.9366,-1.9366,-1.9366,-1.9366,-1.9366,-1.9366,-1.9366,-1.9366,-1.9366,-1.9366,-1.9004,-1.8642,-1.8402,-1.8046,-1.7572,-1.675,-1.6672,-1.6672,-1.6984,-1.6872,-1.6214,-1.6242,-1.6035,-1.5575,-1.6552,-1.7291,-1.8149,-1.8656,-1.7958,-1.7821,-1.7952,-1.8423,-1.9059,-1.8631,-1.8412,-1.9382,-1.9935,-1.9871,-2.0251,-2.1102,-2.1102,-2.0631,-2.0949,-2.1102,-2.1102,-2.1102,-2.0976,-2.0843,-2.0843,-3.3081,-3.3081,-3.3081,-3.3081,-3.3081,-3.3081,-3.3081,-3.3081,-3.3081,-3.3081,-3.3081,-3.3106,-3.342,-3.3935,-3.4487,-3.5027,-3.5102,-3.4667,-3.3627,-3.2241,-3.0916,-2.9608,-2.8698,-2.8301,-2.8301,-2.8301,-2.8301,-2.8301,-2.8301,-2.8301,-2.8301,-2.8301,-2.8301,-2.8301,-2.8301,-2.8301,-2.8301,-2.8301,-2.8301,-2.8301,-2.8301,-2.8301,-2.8301,-2.8291,-2.795,-2.7394,-2.649,-2.5709,-2.4939,-2.3599,-2.204,-2.0823,-1.9931,-1.9366,-1.9366,-1.9366,-1.9366,-1.9366,-1.9366,-1.9366,-1.9366,-1.9366,-1.9366,-1.9366,-1.9366,-1.9366,-1.9366,-1.9366,-1.9366,-1.9366,-1.9366,-1.9366,-1.9366,-1.9127,-1.9127,-1.8765,-1.8163,-1.7566,-1.7091,-1.6615,-1.5902,-1.4842,-1.4718,-1.4599,-1.4599,-1.4485,-1.4366,-1.4366,-1.4177,-1.3588,-1.3699,-1.3991,-1.446,-1.478,-1.5504,-1.5934,-1.6355,-1.6664,-1.7161,-1.6292,-1.612,-1.7345,-1.811,-1.818,-1.8837,-1.9323,-1.9588,-1.9142,-1.9745,-2.0213,-2.0326,-2.0048,-2.0195,-2.0068,-2.0322,-3.3081,-3.3081,-3.3081,-3.3081,-3.3081,-3.3081,-3.3081,-3.3081,-3.3081,-3.3081,-3.3081,-3.3119,-3.3382,-3.3922,-3.4474,-3.4898,-3.5164,-3.4679,-3.3616,-3.2241,-3.0927,-2.9608,-2.8708,-2.8301,-2.8301,-2.8301,-2.8301,-2.8301,-2.8301,-2.8301,-2.8301,-2.8301,-2.8301,-2.8301,-2.8301,-2.8301,-2.8301,-2.8291,-2.8067,-2.8067,-2.8067,-2.8174,-2.8291,-2.7843,-2.7159,-2.6608,-2.5827,-2.482,-2.3487,-2.204,-2.0816,-1.9924,-1.9591,-1.9366,-1.9366,-1.9366,-1.9366,-1.9366,-1.9366,-1.9366,-1.9366,-1.9366,-1.9366,-1.9366,-1.9366,-1.9366,-1.9366,-1.9127,-1.9127,-1.9127,-1.9127,-1.9127,-1.9004,-1.8525,-1.8286,-1.6979,-1.6026,-1.5548,-1.5192,-1.4955,-1.4599,-1.4123,-1.4004,-1.4004,-1.4004,-1.3646,-1.2933,-1.2813,-1.2573,-1.1893,-1.1206,-1.1355,-1.1508,-1.3137,-1.4809,-1.4804,-1.4958,-1.5246,-1.5172,-1.4528,-1.4692,-1.5508,-1.6154,-1.627,-1.6359,-1.68,-1.6935,-1.7798,-1.7314,-1.7628,-1.8423,-1.8728,-1.8885,-1.8933,-1.8855]},{"header":{"parameterUnit":"m.s-1","parameterCategory":1,"la1":31.0,"la2":29.5877,"lo1":-88.7671,"lo2":-86.6584,"dy":0.0162,"dx":0.0185,"nx":115,"ny":88,"refTime":"2023-06-22T12:00:00:Z","depth":0,"parameterNumber":3,"parameterNumberName":"V-component_of_WINDS"},"data":[0.0,0.0,0.0,0.0,0.0,0.0,0.0,0.0,0.0,0.0,0.0,0.0,0.0,0.0,0.0,0.0,0.0,0.0,0.0,0.0,0.0,0.0,0.0,0.0,0.0,0.0,0.0,0.0,0.0,0.0,0.0,0.0,0.0,0.0,0.0,0.0,0.0,0.0,0.0,0.0,0.0,0.0,0.0,0.0,0.0,0.0,0.0,0.0,0.0,0.0,0.0,0.0,0.0,0.0,0.0,0.0,0.0,0.0,0.0,0.0,0.0,0.0,0.0,0.0,0.0,0.0,0.0,0.0,0.0,0.0,0.0,0.0,0.0,0.0,0.0,0.0,0.0,0.0,0.0,0.0,0.0,0.0,0.0,0.0,0.0,0.0,0.0,0.0,0.0,0.0,0.0,0.0,0.0,0.0,0.0,0.0,0.0,0.0,0.0,0.0,0.0,0.0,0.0,0.0,0.0,0.0,0.0,0.0,0.0,0.0,0.0,0.0,0.0,0.0,0.0,0.0,0.0,0.0,0.0,0.0,0.0,0.0,0.0,0.0,0.0,0.0,0.0,0.0,0.0,0.0,0.0,0.0,0.0,0.0,0.0,0.0,0.0,0.0,0.0,0.0,0.0,0.0,0.0,0.0,0.0,0.0,0.0,0.0,0.0,0.0,0.0,0.0,0.0,0.0,0.0,0.0,0.0,0.0,0.0,0.0,0.0,0.0,0.0,0.0,0.0,0.0,0.0,0.0,0.0,0.0,0.0,0.0,0.0,0.0,0.0,0.0,0.0,0.0,0.0,0.0,0.0,0.0,0.0,0.0,0.0,0.0,0.0,0.0,0.0,0.0,0.0,0.0,0.0,0.0,0.0,0.0,0.0,0.0,0.0,0.0,0.0,0.0,0.0,0.0,0.0,0.0,0.0,0.0,0.0,0.0,0.0,0.0,0.0,0.0,0.0,0.0,0.0,0.0,0.0,0.0,0.0,0.0,0.0,0.0,0.0,0.0,0.0,0.0,0.0,0.0,0.0,0.0,0.0,0.0,0.0,0.0,0.0,0.0,0.0,0.0,0.0,0.0,0.0,0.0,0.0,0.0,0.0,0.0,0.0,0.0,0.0,0.0,0.0,0.0,0.0,0.0,0.0,0.0,0.0,0.0,0.0,0.0,0.0,0.0,0.0,0.0,0.0,0.0,0.0,0.0,0.0,0.0,0.0,0.0,0.0,0.0,0.0,0.0,0.0,0.0,0.0,0.0,0.0,0.0,0.0,0.0,0.0,0.0,0.0,0.0,0.0,0.0,0.0,0.0,0.0,0.0,0.0,0.0,0.0,0.0,0.0,0.0,0.0,0.0,0.0,0.0,0.0,0.0,0.0,0.0,0.0,0.0,0.0,0.0,0.0,0.0,0.0,0.0,0.0,0.0,0.0,0.0,0.0,0.0,0.0,0.0,0.0,0.0,0.0,0.0,0.0,0.0,0.0,0.0,0.0,0.0,0.0,0.0,0.0,0.0,0.0,0.0,0.0,0.0,0.0,0.0,0.0,0.0,0.0,0.0,0.0,0.0,0.0,0.0,0.0,0.0,0.0,0.0,0.0,0.0,0.0,0.0,0.0,0.0,0.0,0.0,0.0,0.0,0.0,0.0,0.0,0.0,0.0,0.0,0.0,0.0,0.0,0.0,0.0,0.0,0.0,0.0,0.0,0.0,0.0,0.0,0.0,0.0,0.0,0.0,0.0,0.0,0.0,0.0,0.0,0.0,0.0,0.0,0.0,0.0,0.0,0.0,0.0,0.0,0.0,0.0,0.0,0.0,0.0,0.0,0.0,0.0,0.0,0.0,0.0,0.0,0.0,0.0,0.0,0.0,0.0,0.0,0.0,0.0,0.0,0.0,0.0,0.0,0.0,0.0,0.0,0.0,0.0,0.0,0.0,0.0,0.0,0.0,0.0,0.0,0.0,0.0,0.0,0.0,0.0,0.0,0.0,0.0,0.0,0.0,0.0,0.0,0.0,0.0,0.0,0.0,0.0,0.0,0.0,0.0,0.0,0.0,0.0,0.0,0.0,0.0,0.0,0.0,0.0,0.0,0.0,0.0,0.0,0.0,0.0,0.0,0.0,0.0,0.0,0.0,0.0,0.0,0.0,0.0,0.0,0.0,0.0,0.0,0.0,0.0,0.0,0.0,0.0,0.0,0.0,0.0,0.0,0.0,0.0,0.0,0.0,0.0,0.0,0.0,0.0,0.0,0.0,0.0,0.0,0.0,0.0,0.0,0.0,0.0,0.0,0.0,0.0,0.0,0.0,0.0,0.0,0.0,0.0,0.0,0.0,0.0,0.0,0.0,0.0,0.0,0.0,0.0,0.0,0.0,0.0,0.0,0.0,0.0,0.0,0.0,0.0,0.0,0.0,0.0,0.0,0.0,0.0,0.0,0.0,0.0,0.0,0.0,0.0,0.0,0.0,0.0,0.0,0.0,0.0,0.0,0.0,0.0,0.0,0.0,0.0,0.0,0.0,0.0,0.0,0.0,0.0,0.0,0.0,0.0,0.0,0.0,0.0,0.0,0.0,0.0,0.0,0.0,0.0,0.0,0.0,0.0,0.0,0.0,0.0,0.0,0.0,0.0,0.0,0.0,0.0,0.0,0.0,0.0,0.0,0.0,0.0,0.0,0.0,0.0,0.0,0.0,0.0,0.0,0.0,0.0,0.0,0.0,0.0,0.0,0.0,0.0,0.0,0.0,0.0,0.0,0.0,0.0,0.0,0.0,0.0,0.0,0.0,0.0,0.0,0.0,0.0,0.0,0.0,0.0,0.0,0.0,0.0,0.0,0.0,0.0,0.0,0.0,0.0,0.0,0.0,0.0,0.0,0.0,0.0,0.0,0.0,0.0,0.0,0.0,0.0,0.0,0.0,0.0,0.0,0.0,0.0,0.0,0.0,0.0,0.0,0.0,0.0,0.0,0.0,0.0,0.0,0.0,0.0,0.0,0.0,0.0,0.0,0.0,0.0,0.0,0.0,0.0,0.0,0.0,0.0,0.0,0.0,0.0,0.0,0.0,0.0,0.0,0.0,0.0,0.0,0.0,0.0,0.0,0.0,0.0,0.0,0.0,0.0,0.0,0.0,0.0,0.0,0.0,0.0,0.0,0.0,0.0,0.0,0.0,0.0,0.0,0.0,0.0,0.0,0.0,0.0,0.0,0.0,0.0,0.0,0.0,0.0,0.0,0.0,0.0,0.0,0.0,0.0,0.0,0.0,0.0,0.0,0.0,0.0,0.0,0.0,0.0,0.0,0.0,0.0,0.0,0.0,0.0,0.0,0.0,0.0,0.0,0.0,0.0,0.0,0.0,0.0,0.0,0.0,0.0,0.0,0.0,0.0,0.0,0.0,0.0,0.0,0.0,0.0,0.0,0.0,0.0,0.0,0.0,0.0,0.0,0.0,0.0,0.0,0.0,0.0,0.0,0.0,0.0,0.0,0.0,0.0,0.0,0.0,0.0,0.0,0.0,0.0,0.0,0.0,0.0,0.0,0.0,0.0,0.0,0.0,0.0,0.0,0.0,0.0,0.0,0.0,0.0,0.0,0.0,0.0,0.0,0.0,0.0,0.0,0.0,0.0,0.0,0.0,0.0,0.0,0.0,0.0,0.0,0.0,0.0,0.0,0.0,0.0,0.0,0.0,0.0,0.0,0.0,0.0,0.0,0.0,0.0,0.0,0.0,0.0,0.0,0.0,0.0,0.0,0.0,0.0,0.0,0.0,0.0,0.0,0.0,0.0,0.0,0.0,0.0,0.0,0.0,0.0,0.0,0.0,0.0,0.0,0.0,0.0,0.0,0.0,0.0,0.0,0.0,0.0,0.0,0.0,0.0,0.0,0.0,0.0,0.0,0.0,0.0,0.0,0.0,0.0,0.0,0.0,0.0,0.0,0.0,0.0,0.0,0.0,0.0,0.0,0.0,0.0,0.0,0.0,0.0,0.0,0.0,0.0,0.0,0.0,0.0,0.0,0.0,0.0,0.0,0.0,0.0,0.0,0.0,0.0,0.0,0.0,0.0,0.0,0.0,0.0,0.0,0.0,0.0,0.0,0.0,0.0,0.0,0.0,0.0,0.0,0.0,0.0,0.0,0.0,0.0,0.0,0.0,0.0,0.0,0.0,0.0,0.0,0.0,0.0,0.0,0.0,0.0,0.0,0.0,0.0,0.0,0.0,0.0,0.0,0.0,0.0,0.0,0.0,0.0,0.0,0.0,0.0,0.0,0.0,0.0,0.0,0.0,-4.0338,0.0,0.0,0.0,0.0,0.0,0.0,0.0,0.0,0.0,0.0,0.0,0.0,0.0,0.0,0.0,0.0,0.0,0.0,0.0,0.0,0.0,0.0,0.0,0.0,0.0,0.0,0.0,0.0,0.0,0.0,0.0,0.0,0.0,0.0,0.0,0.0,0.0,0.0,0.0,0.0,0.0,0.0,0.0,0.0,0.0,0.0,0.0,0.0,0.0,0.0,0.0,0.0,0.0,0.0,0.0,0.0,0.0,0.0,0.0,0.0,0.0,0.0,0.0,0.0,0.0,0.0,0.0,0.0,0.0,0.0,0.0,0.0,0.0,0.0,0.0,0.0,0.0,0.0,0.0,0.0,0.0,0.0,0.0,0.0,0.0,0.0,0.0,0.0,0.0,0.0,0.0,0.0,0.0,0.0,0.0,0.0,0.0,0.0,0.0,0.0,0.0,0.0,0.0,0.0,0.0,0.0,0.0,0.0,0.0,0.0,-4.0457,-4.0507,-4.0591,-4.0635,-4.0674,0.0,0.0,0.0,0.0,0.0,0.0,0.0,0.0,0.0,0.0,0.0,0.0,0.0,0.0,0.0,0.0,0.0,0.0,0.0,0.0,0.0,0.0,0.0,0.0,0.0,0.0,0.0,0.0,0.0,0.0,0.0,0.0,0.0,0.0,0.0,0.0,0.0,0.0,0.0,0.0,0.0,0.0,0.0,0.0,0.0,0.0,0.0,0.0,0.0,0.0,0.0,0.0,0.0,0.0,0.0,0.0,0.0,0.0,0.0,0.0,0.0,0.0,0.0,0.0,0.0,0.0,0.0,0.0,0.0,0.0,0.0,0.0,0.0,0.0,0.0,0.0,0.0,0.0,0.0,0.0,0.0,0.0,0.0,0.0,0.0,0.0,0.0,0.0,0.0,0.0,0.0,0.0,0.0,0.0,0.0,0.0,0.0,0.0,0.0,0.0,0.0,0.0,0.0,0.0,0.0,0.0,0.0,0.0,0.0,0.0,0.0,0.0,-4.0817,-4.0871,-4.0929,0.0,0.0,0.0,0.0,0.0,0.0,0.0,0.0,0.0,0.0,0.0,0.0,0.0,0.0,0.0,0.0,0.0,0.0,0.0,0.0,0.0,0.0,0.0,0.0,0.0,0.0,0.0,0.0,0.0,0.0,0.0,0.0,0.0,0.0,0.0,0.0,0.0,0.0,0.0,0.0,0.0,0.0,0.0,0.0,0.0,0.0,0.0,0.0,0.0,0.0,0.0,0.0,0.0,0.0,0.0,0.0,0.0,0.0,0.0,0.0,0.0,0.0,0.0,0.0,0.0,0.0,0.0,0.0,0.0,0.0,0.0,0.0,0.0,0.0,0.0,0.0,0.0,0.0,0.0,0.0,0.0,0.0,0.0,0.0,0.0,0.0,0.0,0.0,0.0,0.0,0.0,0.0,0.0,0.0,0.0,0.0,0.0,0.0,0.0,0.0,0.0,0.0,0.0,0.0,0.0,0.0,0.0,0.0,0.0,0.0,-4.0965,-4.0974,-4.0976,0.0,-4.0994,0.0,0.0,0.0,0.0,0.0,0.0,0.0,0.0,0.0,0.0,0.0,0.0,0.0,0.0,0.0,0.0,0.0,0.0,0.0,0.0,0.0,0.0,0.0,0.0,0.0,0.0,0.0,0.0,0.0,0.0,0.0,0.0,0.0,0.0,0.0,0.0,0.0,0.0,0.0,0.0,0.0,0.0,0.0,0.0,0.0,0.0,0.0,0.0,0.0,0.0,0.0,0.0,0.0,0.0,0.0,0.0,0.0,0.0,0.0,0.0,0.0,0.0,0.0,0.0,0.0,0.0,0.0,0.0,0.0,0.0,0.0,0.0,0.0,0.0,0.0,0.0,0.0,0.0,0.0,0.0,0.0,0.0,0.0,0.0,0.0,0.0,0.0,0.0,0.0,0.0,0.0,0.0,0.0,0.0,0.0,0.0,0.0,0.0,0.0,0.0,0.0,0.0,0.0,0.0,0.0,0.0,0.0,0.0,0.0,0.0,-4.0902,-4.0813,-4.0746,-4.0727,0.0,0.0,0.0,0.0,0.0,0.0,0.0,0.0,0.0,0.0,0.0,0.0,0.0,0.0,0.0,0.0,0.0,0.0,0.0,0.0,0.0,0.0,0.0,0.0,0.0,0.0,0.0,0.0,0.0,0.0,0.0,0.0,0.0,0.0,0.0,0.0,0.0,0.0,0.0,0.0,0.0,0.0,0.0,0.0,0.0,0.0,0.0,0.0,0.0,0.0,0.0,0.0,0.0,0.0,0.0,0.0,0.0,0.0,0.0,0.0,0.0,0.0,0.0,0.0,0.0,0.0,0.0,0.0,0.0,0.0,0.0,0.0,0.0,0.0,0.0,0.0,0.0,0.0,0.0,0.0,0.0,0.0,0.0,0.0,0.0,0.0,0.0,0.0,0.0,0.0,0.0,0.0,0.0,0.0,0.0,0.0,0.0,0.0,0.0,0.0,0.0,0.0,0.0,0.0,0.0,0.0,0.0,0.0,0.0,0.0,-4.0864,-4.0731,-4.0574,-4.0468,-4.0439,-4.0486,0.0,0.0,0.0,0.0,0.0,0.0,0.0,0.0,0.0,0.0,0.0,0.0,0.0,0.0,0.0,0.0,0.0,0.0,0.0,0.0,0.0,0.0,0.0,0.0,0.0,0.0,0.0,0.0,0.0,0.0,0.0,0.0,0.0,0.0,0.0,0.0,0.0,0.0,0.0,0.0,0.0,0.0,0.0,0.0,0.0,0.0,0.0,0.0,0.0,0.0,0.0,0.0,0.0,0.0,0.0,0.0,0.0,0.0,0.0,0.0,0.0,0.0,0.0,0.0,0.0,0.0,0.0,0.0,0.0,0.0,0.0,0.0,0.0,0.0,0.0,0.0,0.0,0.0,0.0,0.0,0.0,0.0,0.0,0.0,0.0,0.0,0.0,0.0,0.0,0.0,0.0,0.0,0.0,0.0,0.0,0.0,0.0,0.0,0.0,0.0,0.0,0.0,0.0,0.0,0.0,0.0,0.0,0.0,-4.0898,-4.0696,-4.05,-4.02,-4.0221,-4.0221,0.0,0.0,0.0,0.0,0.0,0.0,0.0,0.0,0.0,0.0,0.0,0.0,0.0,0.0,0.0,0.0,0.0,0.0,0.0,0.0,0.0,0.0,0.0,0.0,0.0,0.0,0.0,0.0,0.0,0.0,0.0,0.0,0.0,0.0,0.0,0.0,0.0,0.0,0.0,0.0,0.0,0.0,0.0,0.0,0.0,0.0,0.0,0.0,0.0,0.0,0.0,0.0,0.0,0.0,0.0,0.0,0.0,0.0,0.0,0.0,0.0,0.0,0.0,0.0,0.0,0.0,0.0,0.0,0.0,0.0,0.0,0.0,0.0,0.0,0.0,0.0,0.0,0.0,0.0,0.0,0.0,0.0,0.0,0.0,0.0,0.0,0.0,0.0,0.0,0.0,0.0,0.0,0.0,0.0,0.0,0.0,0.0,0.0,0.0,0.0,0.0,0.0,0.0,0.0,0.0,0.0,0.0,0.0,0.0,-4.0584,-4.0095,-3.9705,-3.9453,-3.9339,-3.9295,0.0,0.0,0.0,0.0,0.0,0.0,0.0,0.0,0.0,0.0,0.0,0.0,0.0,0.0,0.0,0.0,0.0,0.0,0.0,0.0,0.0,0.0,0.0,0.0,0.0,0.0,0.0,0.0,0.0,0.0,0.0,0.0,0.0,0.0,0.0,0.0,0.0,0.0,0.0,0.0,0.0,0.0,0.0,0.0,0.0,0.0,0.0,0.0,0.0,0.0,0.0,0.0,0.0,0.0,0.0,0.0,0.0,0.0,0.0,0.0,0.0,0.0,0.0,0.0,0.0,0.0,0.0,0.0,0.0,0.0,0.0,0.0,0.0,0.0,0.0,0.0,0.0,0.0,0.0,0.0,0.0,0.0,0.0,0.0,0.0,0.0,0.0,0.0,0.0,0.0,0.0,0.0,0.0,0.0,0.0,0.0,0.0,0.0,0.0,0.0,0.0,0.0,0.0,0.0,0.0,0.0,0.0,0.0,0.0,-4.0093,0.0,-3.9034,-3.882,-3.8693,-3.8645,0.0,0.0,0.0,0.0,0.0,0.0,0.0,0.0,0.0,0.0,0.0,0.0,0.0,0.0,0.0,0.0,0.0,0.0,0.0,0.0,0.0,0.0,0.0,0.0,0.0,0.0,0.0,0.0,0.0,0.0,0.0,0.0,0.0,0.0,0.0,0.0,0.0,0.0,0.0,0.0,0.0,0.0,0.0,0.0,0.0,0.0,0.0,0.0,0.0,0.0,0.0,0.0,0.0,0.0,0.0,0.0,0.0,0.0,0.0,0.0,0.0,0.0,0.0,0.0,0.0,0.0,0.0,0.0,0.0,0.0,0.0,0.0,0.0,0.0,0.0,0.0,0.0,0.0,0.0,0.0,0.0,0.0,0.0,0.0,0.0,0.0,0.0,0.0,0.0,0.0,0.0,0.0,0.0,0.0,0.0,0.0,0.0,0.0,0.0,0.0,0.0,0.0,0.0,0.0,0.0,0.0,0.0,0.0,-4.02,-3.9419,-3.8934,-3.8559,-3.8368,-3.8291,-3.8259,0.0,0.0,0.0,0.0,0.0,0.0,0.0,0.0,0.0,0.0,0.0,0.0,0.0,0.0,0.0,0.0,0.0,0.0,0.0,0.0,0.0,0.0,0.0,0.0,0.0,0.0,0.0,0.0,0.0,0.0,0.0,0.0,0.0,0.0,0.0,0.0,0.0,0.0,0.0,0.0,0.0,0.0,0.0,0.0,0.0,0.0,0.0,0.0,0.0,0.0,0.0,0.0,0.0,0.0,0.0,0.0,0.0,0.0,0.0,0.0,0.0,0.0,0.0,0.0,0.0,0.0,0.0,0.0,0.0,0.0,0.0,0.0,0.0,0.0,0.0,0.0,0.0,0.0,0.0,0.0,0.0,0.0,0.0,0.0,0.0,0.0,0.0,0.0,0.0,0.0,0.0,0.0,0.0,0.0,0.0,0.0,0.0,0.0,0.0,0.0,0.0,0.0,0.0,0.0,0.0,0.0,0.0,0.0,0.0,-3.8802,-3.8204,-3.7719,-3.7379,-3.721,-3.7135,0.0,0.0,0.0,0.0,0.0,0.0,0.0,0.0,0.0,0.0,0.0,0.0,0.0,0.0,0.0,0.0,0.0,0.0,0.0,0.0,0.0,0.0,0.0,0.0,0.0,0.0,0.0,0.0,0.0,0.0,0.0,0.0,0.0,0.0,0.0,0.0,0.0,0.0,0.0,0.0,0.0,0.0,0.0,0.0,0.0,0.0,0.0,0.0,0.0,0.0,0.0,0.0,0.0,0.0,0.0,0.0,0.0,0.0,0.0,0.0,0.0,0.0,0.0,0.0,0.0,0.0,0.0,0.0,0.0,0.0,0.0,0.0,0.0,0.0,0.0,0.0,0.0,0.0,0.0,0.0,0.0,0.0,0.0,0.0,0.0,0.0,0.0,0.0,0.0,0.0,0.0,0.0,0.0,0.0,0.0,0.0,0.0,0.0,0.0,0.0,0.0,0.0,0.0,0.0,0.0,0.0,0.0,0.0,0.0,-3.9227,-3.8772,-3.8342,-3.791,-3.7498,-3.7136,-3.6842,0.0,0.0,0.0,0.0,0.0,0.0,0.0,0.0,0.0,0.0,0.0,0.0,0.0,0.0,0.0,0.0,0.0,0.0,0.0,0.0,0.0,0.0,0.0,0.0,0.0,0.0,0.0,0.0,0.0,0.0,0.0,0.0,0.0,0.0,0.0,0.0,0.0,0.0,0.0,0.0,0.0,0.0,0.0,0.0,0.0,0.0,0.0,0.0,0.0,0.0,0.0,0.0,0.0,0.0,0.0,0.0,0.0,0.0,0.0,0.0,0.0,0.0,0.0,0.0,0.0,0.0,0.0,0.0,0.0,0.0,0.0,0.0,0.0,0.0,0.0,0.0,0.0,0.0,0.0,0.0,0.0,0.0,0.0,0.0,0.0,0.0,0.0,0.0,0.0,0.0,0.0,0.0,0.0,0.0,0.0,0.0,0.0,0.0,0.0,0.0,0.0,0.0,0.0,0.0,0.0,0.0,0.0,0.0,-4.0428,-4.0438,-4.0127,-3.953,-3.8733,-3.7969,0.0,0.0,0.0,0.0,0.0,0.0,0.0,0.0,0.0,0.0,0.0,0.0,0.0,0.0,0.0,0.0,0.0,0.0,0.0,0.0,0.0,0.0,0.0,0.0,0.0,0.0,0.0,0.0,0.0,0.0,0.0,0.0,0.0,0.0,0.0,0.0,0.0,0.0,0.0,0.0,0.0,0.0,0.0,0.0,0.0,0.0,0.0,0.0,0.0,0.0,0.0,0.0,0.0,0.0,0.0,0.0,0.0,0.0,0.0,0.0,0.0,0.0,0.0,0.0,0.0,0.0,0.0,0.0,0.0,0.0,0.0,0.0,0.0,0.0,0.0,0.0,0.0,0.0,0.0,0.0,0.0,0.0,0.0,0.0,0.0,0.0,0.0,0.0,0.0,0.0,0.0,0.0,0.0,0.0,0.0,0.0,0.0,0.0,0.0,0.0,0.0,0.0,0.0,0.0,0.0,0.0,0.0,0.0,0.0,-4.056,-4.1439,-4.1059,-3.9239,-3.8162,-3.7279,0.0,0.0,0.0,0.0,0.0,0.0,0.0,0.0,0.0,0.0,0.0,0.0,0.0,0.0,0.0,0.0,0.0,0.0,0.0,0.0,0.0,0.0,0.0,0.0,0.0,0.0,0.0,0.0,0.0,0.0,0.0,0.0,0.0,0.0,0.0,0.0,0.0,0.0,0.0,0.0,0.0,0.0,0.0,0.0,0.0,0.0,0.0,0.0,0.0,0.0,0.0,0.0,0.0,0.0,0.0,0.0,0.0,0.0,0.0,0.0,0.0,0.0,0.0,0.0,0.0,0.0,0.0,0.0,0.0,0.0,0.0,0.0,0.0,0.0,0.0,0.0,0.0,0.0,0.0,0.0,0.0,0.0,0.0,0.0,0.0,0.0,0.0,0.0,0.0,0.0,0.0,0.0,0.0,0.0,0.0,0.0,0.0,0.0,0.0,0.0,0.0,0.0,0.0,0.0,0.0,0.0,0.0,0.0,-4.0705,-4.0745,-4.1422,-4.112,-3.9746,-3.855,-3.7519,0.0,0.0,0.0,0.0,0.0,0.0,0.0,0.0,0.0,0.0,0.0,0.0,0.0,0.0,0.0,0.0,0.0,0.0,0.0,0.0,0.0,0.0,0.0,0.0,0.0,0.0,0.0,0.0,0.0,0.0,0.0,0.0,0.0,0.0,0.0,0.0,0.0,0.0,0.0,0.0,0.0,0.0,0.0,0.0,0.0,0.0,0.0,0.0,0.0,0.0,0.0,0.0,0.0,0.0,0.0,0.0,0.0,0.0,0.0,0.0,0.0,0.0,0.0,0.0,0.0,0.0,0.0,0.0,0.0,0.0,0.0,0.0,0.0,0.0,0.0,0.0,0.0,0.0,0.0,0.0,0.0,0.0,0.0,0.0,0.0,0.0,0.0,0.0,0.0,0.0,0.0,0.0,0.0,0.0,0.0,0.0,0.0,0.0,0.0,0.0,0.0,0.0,0.0,0.0,0.0,0.0,0.0,0.0,-4.07,-4.0843,-4.0767,-4.069,-4.0492,-3.9345,-3.8189,0.0,0.0,0.0,0.0,0.0,0.0,0.0,0.0,0.0,0.0,0.0,0.0,0.0,0.0,0.0,0.0,0.0,0.0,0.0,0.0,0.0,0.0,0.0,0.0,0.0,0.0,0.0,0.0,0.0,0.0,0.0,0.0,0.0,0.0,0.0,0.0,0.0,0.0,0.0,0.0,0.0,0.0,0.0,0.0,0.0,0.0,0.0,0.0,0.0,0.0,0.0,0.0,0.0,0.0,0.0,0.0,0.0,0.0,0.0,0.0,0.0,0.0,0.0,0.0,0.0,0.0,0.0,0.0,0.0,0.0,0.0,0.0,0.0,0.0,0.0,0.0,0.0,0.0,0.0,0.0,0.0,0.0,0.0,0.0,0.0,0.0,0.0,0.0,0.0,0.0,0.0,0.0,0.0,0.0,0.0,0.0,0.0,0.0,0.0,0.0,0.0,0.0,0.0,0.0,0.0,0.0,0.0,0.0,-4.0114,-3.9942,-4.0442,-4.0378,-3.9651,-3.8831,-3.8054,0.0,0.0,0.0,0.0,0.0,0.0,0.0,0.0,0.0,0.0,0.0,0.0,0.0,0.0,0.0,0.0,0.0,0.0,0.0,0.0,0.0,0.0,0.0,0.0,0.0,0.0,0.0,0.0,0.0,0.0,0.0,0.0,0.0,0.0,0.0,0.0,0.0,0.0,0.0,0.0,0.0,0.0,0.0,0.0,0.0,0.0,0.0,0.0,-4.7889,0.0,0.0,0.0,0.0,0.0,0.0,0.0,0.0,0.0,0.0,0.0,0.0,0.0,0.0,0.0,0.0,0.0,0.0,0.0,0.0,0.0,0.0,0.0,0.0,0.0,0.0,0.0,0.0,0.0,0.0,0.0,0.0,0.0,0.0,0.0,0.0,0.0,0.0,0.0,0.0,0.0,0.0,0.0,0.0,0.0,0.0,0.0,0.0,0.0,0.0,0.0,0.0,0.0,0.0,0.0,0.0,0.0,0.0,0.0,-3.9609,-3.9447,-3.9849,-3.9864,-3.9379,-3.8687,-3.7946,0.0,0.0,0.0,0.0,0.0,0.0,0.0,0.0,0.0,0.0,0.0,0.0,0.0,0.0,0.0,0.0,0.0,0.0,0.0,0.0,0.0,0.0,0.0,0.0,0.0,0.0,0.0,0.0,0.0,0.0,0.0,0.0,0.0,0.0,0.0,0.0,0.0,0.0,0.0,0.0,0.0,0.0,0.0,0.0,0.0,0.0,0.0,0.0,0.0,0.0,0.0,0.0,0.0,0.0,0.0,0.0,0.0,0.0,0.0,0.0,0.0,0.0,0.0,0.0,0.0,0.0,0.0,0.0,0.0,0.0,0.0,0.0,0.0,0.0,0.0,0.0,0.0,0.0,0.0,0.0,0.0,0.0,0.0,0.0,0.0,0.0,0.0,0.0,0.0,0.0,0.0,0.0,0.0,0.0,0.0,0.0,0.0,0.0,0.0,0.0,0.0,0.0,0.0,0.0,0.0,0.0,0.0,-3.9383,-3.9274,-3.9253,-3.9339,-3.9424,-3.9409,-3.8856,-3.8067,-3.7041,0.0,0.0,0.0,0.0,0.0,0.0,0.0,0.0,0.0,0.0,0.0,0.0,0.0,0.0,0.0,0.0,0.0,0.0,0.0,0.0,0.0,0.0,0.0,0.0,0.0,0.0,0.0,0.0,0.0,0.0,0.0,0.0,0.0,0.0,0.0,0.0,0.0,0.0,-4.9044,-4.8874,0.0,0.0,0.0,0.0,0.0,0.0,0.0,0.0,-4.8533,0.0,0.0,0.0,0.0,0.0,0.0,0.0,0.0,0.0,0.0,0.0,0.0,0.0,0.0,0.0,0.0,0.0,0.0,0.0,0.0,0.0,0.0,0.0,0.0,0.0,0.0,0.0,0.0,0.0,0.0,0.0,0.0,0.0,0.0,0.0,0.0,0.0,0.0,0.0,0.0,0.0,0.0,0.0,0.0,0.0,0.0,0.0,0.0,0.0,0.0,0.0,0.0,0.0,0.0,0.0,0.0,-3.9524,-3.9188,-3.9062,-3.9358,-3.9364,-3.9424,-3.9409,-3.9305,-3.8616,-3.7368,0.0,0.0,0.0,0.0,0.0,0.0,0.0,0.0,0.0,0.0,0.0,0.0,0.0,0.0,0.0,0.0,0.0,0.0,0.0,0.0,0.0,0.0,0.0,0.0,0.0,0.0,0.0,0.0,0.0,0.0,0.0,0.0,0.0,0.0,0.0,0.0,0.0,0.0,0.0,-4.9879,-4.9579,0.0,0.0,0.0,0.0,0.0,0.0,0.0,0.0,-4.9934,0.0,0.0,0.0,0.0,0.0,0.0,0.0,0.0,0.0,0.0,0.0,0.0,0.0,0.0,0.0,0.0,0.0,0.0,0.0,0.0,0.0,0.0,0.0,0.0,0.0,0.0,0.0,0.0,0.0,0.0,0.0,0.0,0.0,0.0,0.0,0.0,0.0,0.0,0.0,0.0,0.0,0.0,0.0,0.0,0.0,0.0,0.0,0.0,0.0,0.0,0.0,0.0,0.0,0.0,0.0,-3.9298,-3.9032,-3.9086,-3.9394,-3.9753,-3.9918,-3.9933,-3.9918,-3.9305,0.0,0.0,0.0,0.0,0.0,0.0,0.0,0.0,0.0,0.0,0.0,0.0,0.0,0.0,0.0,0.0,0.0,0.0,0.0,0.0,0.0,0.0,0.0,0.0,0.0,0.0,0.0,0.0,0.0,0.0,0.0,0.0,0.0,0.0,0.0,0.0,0.0,0.0,0.0,0.0,-5.0798,-5.0596,-5.1385,0.0,0.0,0.0,0.0,0.0,0.0,-5.0897,-5.0428,0.0,0.0,0.0,0.0,0.0,0.0,0.0,0.0,0.0,0.0,0.0,0.0,0.0,0.0,0.0,0.0,0.0,0.0,0.0,0.0,0.0,0.0,0.0,0.0,0.0,0.0,0.0,0.0,0.0,0.0,0.0,0.0,0.0,0.0,0.0,0.0,0.0,0.0,0.0,0.0,0.0,0.0,0.0,0.0,0.0,0.0,0.0,0.0,0.0,0.0,0.0,0.0,0.0,0.0,0.0,-3.8997,-3.906,-3.9269,-3.9604,-4.0247,-4.0591,-4.0606,-4.0472,-3.9843,0.0,0.0,0.0,0.0,0.0,0.0,0.0,0.0,0.0,0.0,0.0,0.0,0.0,0.0,0.0,0.0,0.0,0.0,0.0,0.0,0.0,0.0,0.0,0.0,0.0,0.0,0.0,0.0,0.0,0.0,0.0,0.0,0.0,0.0,0.0,0.0,0.0,0.0,0.0,0.0,0.0,-5.1432,-5.2432,-5.0823,0.0,0.0,0.0,0.0,-5.1211,-5.1256,0.0,0.0,0.0,0.0,0.0,0.0,0.0,0.0,0.0,0.0,0.0,0.0,0.0,0.0,0.0,0.0,0.0,0.0,0.0,0.0,0.0,0.0,0.0,0.0,0.0,0.0,0.0,0.0,0.0,0.0,0.0,0.0,0.0,0.0,0.0,0.0,0.0,0.0,0.0,0.0,0.0,0.0,0.0,0.0,0.0,0.0,0.0,0.0,0.0,0.0,0.0,0.0,0.0,0.0,0.0,0.0,-3.8753,-3.9467,-3.9964,-4.0277,-4.0935,-4.128,-4.1265,-4.0711,-4.0053,0.0,0.0,0.0,0.0,0.0,0.0,0.0,0.0,0.0,0.0,0.0,0.0,0.0,0.0,0.0,0.0,0.0,0.0,0.0,0.0,0.0,0.0,0.0,0.0,0.0,0.0,0.0,0.0,0.0,0.0,0.0,0.0,0.0,0.0,0.0,0.0,0.0,0.0,0.0,0.0,0.0,-5.1456,-5.359,-5.1955,-5.0777,0.0,0.0,-5.1377,-5.1401,-5.1615,0.0,0.0,0.0,0.0,0.0,0.0,0.0,0.0,0.0,0.0,0.0,0.0,0.0,0.0,0.0,0.0,0.0,0.0,0.0,0.0,0.0,0.0,0.0,0.0,0.0,0.0,0.0,0.0,0.0,0.0,0.0,0.0,0.0,0.0,0.0,0.0,0.0,0.0,0.0,0.0,0.0,0.0,0.0,0.0,0.0,0.0,0.0,0.0,0.0,0.0,0.0,0.0,0.0,0.0,0.0,-3.9706,-3.9849,-4.0405,-4.0815,-4.0965,-4.1594,-4.1938,-4.1938,-4.1309,-4.0636,0.0,0.0,0.0,0.0,0.0,0.0,0.0,0.0,0.0,0.0,0.0,0.0,0.0,0.0,0.0,0.0,0.0,0.0,0.0,0.0,0.0,0.0,0.0,0.0,0.0,0.0,0.0,0.0,0.0,0.0,0.0,0.0,0.0,0.0,0.0,0.0,0.0,0.0,0.0,0.0,0.0,0.0,-5.265,-5.1764,0.0,0.0,0.0,-5.1384,-5.1327,0.0,0.0,0.0,0.0,0.0,0.0,0.0,0.0,0.0,0.0,0.0,0.0,0.0,0.0,0.0,0.0,0.0,0.0,0.0,0.0,0.0,0.0,0.0,0.0,0.0,0.0,0.0,0.0,0.0,0.0,0.0,0.0,0.0,0.0,0.0,0.0,0.0,0.0,0.0,0.0,0.0,0.0,0.0,0.0,0.0,0.0,0.0,0.0,0.0,0.0,0.0,0.0,0.0,0.0,0.0,0.0,0.0,-4.0593,-4.1306,-4.1624,-4.1654,-4.2267,-4.2611,-4.2581,-4.1968,0.0,0.0,0.0,0.0,0.0,0.0,0.0,0.0,0.0,0.0,0.0,0.0,0.0,0.0,0.0,0.0,0.0,0.0,0.0,0.0,0.0,0.0,0.0,0.0,0.0,0.0,0.0,-4.7935,0.0,0.0,0.0,0.0,0.0,0.0,0.0,0.0,0.0,0.0,0.0,0.0,0.0,0.0,-5.1535,-5.2269,-5.1896,-5.1684,0.0,0.0,-5.1537,-5.1632,-5.2426,-5.2535,0.0,0.0,0.0,0.0,0.0,0.0,0.0,0.0,0.0,0.0,0.0,0.0,0.0,0.0,0.0,0.0,0.0,0.0,0.0,0.0,0.0,0.0,0.0,0.0,0.0,0.0,0.0,0.0,0.0,0.0,0.0,0.0,0.0,0.0,0.0,0.0,0.0,0.0,0.0,0.0,0.0,0.0,0.0,0.0,0.0,0.0,0.0,0.0,0.0,0.0,0.0,0.0,0.0,0.0,0.0,-4.0323,-4.161,-4.2282,-4.2389,-4.294,-4.3269,-4.3254,-4.2641,-4.1968,0.0,0.0,0.0,0.0,0.0,0.0,0.0,0.0,0.0,0.0,0.0,0.0,0.0,0.0,0.0,0.0,0.0,0.0,0.0,0.0,0.0,0.0,0.0,0.0,0.0,0.0,0.0,0.0,0.0,0.0,0.0,0.0,0.0,0.0,0.0,0.0,0.0,0.0,0.0,0.0,0.0,-5.2225,-5.358,-5.308,-5.2794,0.0,0.0,-5.2635,-5.2524,-5.3007,-5.3007,-5.1811,0.0,0.0,0.0,0.0,0.0,0.0,0.0,0.0,0.0,0.0,0.0,0.0,0.0,0.0,0.0,0.0,0.0,0.0,0.0,0.0,0.0,0.0,0.0,0.0,0.0,0.0,0.0,0.0,0.0,0.0,0.0,0.0,0.0,0.0,0.0,0.0,0.0,0.0,0.0,0.0,0.0,0.0,0.0,0.0,0.0,0.0,0.0,0.0,0.0,0.0,0.0,0.0,0.0,-4.148,-4.1427,-4.2454,-4.2955,-4.2955,-4.321,-4.3344,-4.3344,-4.2701,-4.2043,0.0,0.0,0.0,0.0,0.0,0.0,0.0,0.0,0.0,0.0,0.0,0.0,0.0,0.0,0.0,0.0,0.0,0.0,0.0,0.0,0.0,0.0,0.0,0.0,0.0,0.0,0.0,0.0,-5.1825,-5.2205,-5.1917,0.0,0.0,0.0,0.0,0.0,0.0,0.0,0.0,0.0,0.0,-5.2014,-5.3177,-5.2944,0.0,0.0,-5.2755,-5.2595,-5.2465,-5.306,-5.3195,-5.2194,-5.2072,0.0,0.0,0.0,0.0,0.0,0.0,0.0,0.0,0.0,0.0,0.0,0.0,0.0,0.0,0.0,0.0,0.0,0.0,0.0,0.0,0.0,0.0,0.0,0.0,0.0,0.0,0.0,0.0,0.0,0.0,0.0,0.0,0.0,0.0,0.0,0.0,0.0,0.0,0.0,0.0,0.0,0.0,0.0,0.0,0.0,0.0,0.0,0.0,0.0,0.0,0.0,0.0,-4.1991,-4.2058,-4.2904,-4.3344,-4.3344,-4.3344,-4.3344,-4.3329,-4.2895,-4.2342,0.0,0.0,0.0,0.0,0.0,0.0,0.0,0.0,0.0,0.0,0.0,0.0,0.0,0.0,0.0,0.0,0.0,0.0,0.0,0.0,0.0,0.0,0.0,0.0,0.0,0.0,0.0,0.0,-5.2594,-5.2889,-5.2235,0.0,0.0,0.0,0.0,0.0,0.0,0.0,0.0,0.0,0.0,-5.2097,-5.2855,-5.2929,-5.2821,-5.2672,-5.2738,-5.2821,-5.2588,-5.3061,-5.3213,-5.2673,0.0,0.0,0.0,0.0,0.0,0.0,0.0,0.0,0.0,0.0,0.0,0.0,0.0,0.0,0.0,0.0,0.0,0.0,0.0,0.0,0.0,0.0,0.0,0.0,0.0,0.0,0.0,0.0,0.0,0.0,-3.6712,0.0,0.0,0.0,0.0,0.0,0.0,0.0,0.0,0.0,0.0,0.0,0.0,0.0,0.0,0.0,0.0,0.0,0.0,0.0,0.0,0.0,0.0,-4.2264,-4.1731,-4.2764,-4.3344,-4.3344,-4.3344,-4.3344,-4.3344,-4.3329,-4.3,-4.2404,0.0,0.0,0.0,0.0,0.0,0.0,0.0,0.0,0.0,0.0,0.0,0.0,0.0,0.0,0.0,0.0,0.0,0.0,0.0,0.0,0.0,0.0,0.0,0.0,0.0,0.0,-5.1464,-5.2578,-5.3339,0.0,0.0,0.0,0.0,0.0,0.0,0.0,0.0,0.0,0.0,-5.2425,-5.2912,-5.287,-5.3192,-5.3467,-5.3467,-5.3467,-5.3399,-5.323,-5.3179,-5.3179,0.0,0.0,0.0,0.0,0.0,0.0,0.0,0.0,0.0,0.0,0.0,0.0,0.0,0.0,0.0,0.0,0.0,0.0,0.0,0.0,0.0,0.0,0.0,0.0,0.0,0.0,0.0,-3.8736,-3.8706,0.0,0.0,0.0,0.0,0.0,0.0,0.0,0.0,0.0,0.0,0.0,-4.2433,-4.2537,0.0,0.0,0.0,0.0,0.0,0.0,0.0,0.0,0.0,0.0,0.0,0.0,-4.2151,-4.2349,-4.2959,-4.3344,-4.3344,-4.3344,-4.3344,-4.3344,-4.3344,-4.303,-4.2372,0.0,0.0,0.0,0.0,0.0,0.0,0.0,0.0,0.0,0.0,0.0,0.0,0.0,0.0,0.0,0.0,0.0,0.0,0.0,0.0,0.0,0.0,0.0,0.0,0.0,-5.2022,0.0,0.0,0.0,0.0,0.0,0.0,0.0,0.0,0.0,0.0,0.0,-5.2213,-5.2503,-5.2746,-5.2959,-5.3226,-5.3399,-5.367,0.0,0.0,0.0,0.0,0.0,0.0,0.0,0.0,0.0,0.0,0.0,0.0,0.0,0.0,-5.4122,-5.275,-5.3078,-5.361,-5.3673,0.0,0.0,0.0,0.0,0.0,0.0,0.0,0.0,0.0,0.0,0.0,0.0,0.0,0.0,-4.0098,0.0,-3.9634,0.0,0.0,0.0,0.0,0.0,0.0,0.0,0.0,-4.2744,-4.3094,-4.2936,-4.3051,-4.3123,0.0,-4.3161,-4.2642,0.0,0.0,0.0,0.0,0.0,0.0,0.0,0.0,-4.2289,-4.2511,-4.3079,-4.3344,-4.3344,-4.3344,-4.3344,-4.3344,-4.3344,-4.3135,-4.2716,-4.2501,-4.2444,0.0,0.0,0.0,0.0,0.0,0.0,0.0,0.0,0.0,0.0,0.0,0.0,0.0,0.0,0.0,0.0,0.0,0.0,0.0,0.0,0.0,0.0,0.0,-5.2143,0.0,0.0,0.0,0.0,0.0,0.0,0.0,0.0,0.0,-5.1969,-5.2379,-5.2691,-5.2814,-5.3185,-5.3479,-5.3467,0.0,0.0,0.0,0.0,0.0,0.0,0.0,-5.4119,-5.4661,-5.4921,-5.5232,-5.5808,-5.5744,-5.5716,-5.5716,0.0,0.0,-5.3957,-5.4243,-5.4734,-5.4717,-5.4783,-5.4832,-5.4734,-5.4734,-5.4667,0.0,0.0,0.0,0.0,0.0,0.0,0.0,0.0,-4.1399,-4.1399,0.0,-4.1369,0.0,0.0,0.0,0.0,0.0,-4.1113,0.0,0.0,-4.295,-4.3142,-4.291,-4.2955,-4.2879,-4.291,-4.2646,-4.2487,-4.231,-4.2731,0.0,0.0,0.0,0.0,0.0,0.0,-4.2496,-4.2509,-4.3015,-4.3344,-4.3344,-4.3344,-4.3344,-4.3344,-4.3344,-4.3329,-4.3299,-4.3729,-4.4153,-4.4291,-4.4377,0.0,0.0,0.0,0.0,0.0,0.0,0.0,0.0,0.0,0.0,0.0,0.0,0.0,0.0,0.0,0.0,0.0,0.0,0.0,0.0,-5.1228,0.0,0.0,0.0,0.0,0.0,0.0,0.0,0.0,0.0,0.0,-5.2286,-5.2552,-5.2776,-5.2697,0.0,0.0,0.0,0.0,-5.5463,-5.4786,-5.526,-5.5559,-5.5202,-5.524,-5.5547,-5.6067,0.0,0.0,-5.6833,-5.6258,-5.5835,-5.5801,-5.6393,-5.6613,-5.5902,-5.5767,-5.5784,-5.5784,-5.5784,-5.5784,-5.5784,-5.5854,-5.5767,-3.6662,0.0,0.0,0.0,0.0,-3.9476,-4.0228,-4.0887,-4.1748,-4.2164,-4.2087,-4.2073,0.0,0.0,0.0,0.0,0.0,0.0,-4.2226,-4.2348,-4.3019,-4.3225,-4.3202,-4.3202,-4.3187,-4.3187,-4.3085,-4.3087,-4.2995,-4.3134,-4.2743,-4.194,0.0,0.0,0.0,0.0,-4.2659,-4.3045,-4.324,-4.3344,-4.3344,-4.3344,-4.3344,-4.3344,-4.3344,-4.3344,-4.3329,-4.3449,-4.3852,-4.4512,-4.4639,0.0,0.0,0.0,0.0,0.0,0.0,0.0,0.0,0.0,0.0,0.0,0.0,0.0,0.0,0.0,0.0,0.0,0.0,0.0,-5.0841,-5.1749,-5.1836,0.0,0.0,0.0,0.0,0.0,0.0,0.0,0.0,0.0,-5.3819,-5.3532,-5.3499,0.0,0.0,-5.4718,-5.504,-5.5446,-5.5818,-5.6122,-5.5902,0.0,0.0,-5.5737,-5.5564,-5.6101,-5.6784,-5.7358,-5.7577,-5.7391,-5.7256,-5.7256,-5.7442,-5.7492,-5.734,-5.7256,-5.7256,-5.7273,-5.7273,-5.7273,-5.7256,-5.7273,-5.7256,-3.6501,-3.6431,-3.7193,-3.7705,-3.8269,-3.9548,-4.0435,-4.1093,-4.2228,-4.2761,-4.2746,-4.2746,-4.2387,-4.1758,-4.1504,0.0,0.0,0.0,-4.2506,-4.2746,-4.3165,-4.3344,-4.3344,-4.3344,-4.3344,-4.3344,-4.3344,-4.3344,-4.3344,-4.3344,-4.294,-4.2346,0.0,0.0,-4.2746,-4.2746,-4.294,-4.3329,-4.3344,-4.3344,-4.3344,-4.3344,-4.3344,-4.3344,-4.3344,-4.3344,-4.3329,-4.3708,-4.431,-4.5175,-4.5423,-4.5733,0.0,0.0,0.0,0.0,0.0,0.0,0.0,0.0,0.0,0.0,0.0,-4.7257,-4.7995,0.0,0.0,0.0,-5.0676,-5.1155,-5.1925,-5.231,0.0,0.0,0.0,0.0,0.0,0.0,0.0,-5.3364,-5.3974,-5.4532,-5.4972,-5.4651,-5.4549,-5.4972,-5.5294,-5.553,-5.57,0.0,-5.663,-5.6782,-5.6664,-5.666,-5.6864,-5.6617,-5.6499,-5.6791,-5.7358,-5.7735,-5.7881,-5.7881,-5.7881,-5.7881,-5.7881,-5.7881,-5.7881,-5.7881,-5.7881,-5.7881,-5.7881,-5.7881,-5.7881,-5.7881,-5.7881,-3.637,-3.6439,-3.7348,-3.8134,-3.8944,-4.0246,-4.1099,-4.1684,-4.282,-4.3344,-4.3344,-4.3344,-4.3,-4.2417,-4.1803,0.0,-4.2447,-4.2432,-4.2761,-4.3344,-4.3344,-4.3344,-4.3344,-4.3344,-4.3344,-4.3344,-4.3344,-4.3344,-4.3344,-4.3344,-4.3344,-4.3344,-4.3344,-4.3344,-4.3344,-4.3344,-4.3344,-4.3344,-4.3344,-4.3344,-4.3344,-4.3344,-4.3344,-4.3344,-4.3344,-4.3329,-4.3409,-4.4297,-4.5285,-4.6212,-4.6503,-4.6993,-4.7791,0.0,0.0,0.0,0.0,0.0,0.0,0.0,0.0,0.0,0.0,0.0,0.0,0.0,0.0,0.0,-5.1944,0.0,-5.3348,-5.279,0.0,0.0,0.0,-5.2469,-5.2486,-5.3839,-5.4735,-5.4685,0.0,0.0,-5.5801,0.0,-5.5818,-5.5886,-5.641,-5.6579,-5.597,-5.7036,-5.7645,-5.7002,-5.7442,-5.7792,-5.7577,-5.7707,-5.7763,-5.7797,-5.7881,-5.7881,-5.7881,-5.7881,-5.7881,-5.7881,-5.7881,-5.7881,-5.7881,-5.7881,-5.7881,-5.7881,-5.7881,-5.7881,-5.7881,-5.7881,-5.7881,-3.637,-3.6452,-3.6628,-3.7335,-3.8392,-3.9623,-4.0661,-4.1684,-4.282,-4.3344,-4.3344,-4.3344,-4.324,-4.3105,-4.2925,-4.2955,-4.3105,-4.3105,-4.318,-4.3329,-4.3344,-4.3344,-4.3344,-4.3344,-4.3344,-4.3344,-4.3344,-4.3344,-4.3344,-4.3344,-4.3344,-4.3344,-4.3344,-4.3344,-4.3344,-4.3344,-4.3344,-4.3344,-4.3344,-4.3344,-4.3344,-4.3344,-4.3344,-4.3344,-4.3344,-4.363,-4.445,-4.4662,-4.5577,-4.7155,-4.7325,-4.7481,-4.7875,-4.7537,0.0,0.0,0.0,0.0,0.0,0.0,0.0,0.0,0.0,-4.8629,-4.8984,0.0,-5.0828,0.0,-5.2418,-5.3061,-5.2621,-5.2976,0.0,0.0,-5.3331,-5.4042,-5.4059,-5.5378,-5.6072,-5.5513,-5.6089,-5.6545,-5.6545,-5.6545,-5.6748,-5.7289,-5.7036,-5.6934,-5.7289,-5.7645,-5.7831,-5.7662,-5.7763,-5.7881,-5.7808,-5.7881,-5.7881,-5.7881,-5.7881,-5.7881,-5.7881,-5.7881,-5.7881,-5.7881,-5.7881,-5.7881,-5.7881,-5.7881,-5.7881,-5.7881,-5.7881,-5.7881,-5.7881,-5.7881,-5.7881,-3.637,-3.637,-3.637,-3.7057,-3.8198,-3.936,-4.0575,-4.1684,-4.2805,-4.3344,-4.3344,-4.3344,-4.3344,-4.3344,-4.3344,-4.3344,-4.3344,-4.3344,-4.3344,-4.3344,-4.3344,-4.3344,-4.3344,-4.3344,-4.3344,-4.3344,-4.3344,-4.3344,-4.3344,-4.3344,-4.3344,-4.3344,-4.3344,-4.3344,-4.3344,-4.3344,-4.3344,-4.3344,-4.3344,-4.3344,-4.3344,-4.3344,-4.3344,-4.3518,-4.3581,-4.402,-4.4737,-4.4962,-4.5794,-4.7373,-4.7589,-4.7832,-4.8348,-4.8105,-4.7564,0.0,0.0,0.0,0.0,0.0,0.0,0.0,0.0,0.0,0.0,0.0,-5.1352,-5.1674,-5.2807,-5.345,-5.3331,-5.3721,-5.394,-5.3856,-5.4871,-5.5581,-5.5581,-5.6596,-5.7137,-5.6731,-5.7036,-5.7289,-5.7289,-5.7273,-5.7425,-5.7848,-5.7543,-5.7425,-5.7797,-5.7881,-5.7881,-5.7881,-5.7881,-5.7881,-5.7881,-5.7881,-5.7881,-5.7881,-5.7881,-5.7881,-5.7881,-5.7881,-5.7881,-5.7881,-5.7881,-5.7881,-5.7881,-5.7881,-5.7881,-5.7881,-5.7881,-5.7881,-5.7881,-5.7881,-5.7881,-3.637,-3.637,-3.637,-3.707,-3.8185,-3.9271,-4.039,-4.167,-4.2629,-4.317,-4.3344,-4.3344,-4.3344,-4.3344,-4.3344,-4.3344,-4.3344,-4.3344,-4.3344,-4.3344,-4.3344,-4.3344,-4.3344,-4.3344,-4.3344,-4.3344,-4.3344,-4.3344,-4.3344,-4.3344,-4.3344,-4.3344,-4.3344,-4.3344,-4.3344,-4.3344,-4.3344,-4.3344,-4.3344,-4.3344,-4.3344,-4.3344,-4.3423,-4.369,-4.391,-4.4328,-4.4962,-4.5405,-4.6221,-4.7373,-4.7655,-4.8161,-4.8923,-4.8392,-4.8003,0.0,-4.7462,0.0,0.0,0.0,0.0,0.0,0.0,0.0,0.0,-5.1302,-5.1657,-5.2384,-5.3078,-5.3805,-5.4532,-5.4685,-5.5023,-5.5767,-5.6511,-5.6934,-5.6968,-5.7509,-5.7881,-5.7881,-5.7881,-5.7881,-5.7848,-5.7881,-5.7865,-5.7881,-5.7848,-5.7831,-5.7881,-5.7881,-5.7881,-5.7881,-5.7881,-5.7881,-5.7881,-5.7881,-5.7881,-5.7881,-5.7881,-5.7881,-5.7881,-5.7881,-5.7881,-5.7881,-5.7881,-5.7881,-5.7881,-5.7881,-5.7881,-5.7881,-5.7881,-5.7881,-5.7881,-5.7881,-5.7881,-3.637,-3.637,-3.637,-3.707,-3.8121,-3.8379,-3.9683,-4.1601,-4.185,-4.2467,-4.3265,-4.3344,-4.3344,-4.3344,-4.3344,-4.3344,-4.3344,-4.3344,-4.3344,-4.3344,-4.3344,-4.3344,-4.3344,-4.3344,-4.3344,-4.3344,-4.3344,-4.3344,-4.3344,-4.3344,-4.3344,-4.3344,-4.3344,-4.3344,-4.3344,0.0,0.0,0.0,-4.3344,-4.3344,-4.3344,-4.3344,-4.3423,-4.369,-4.4035,0.0,-4.5865,-4.6464,-4.7321,-4.8403,-4.8656,0.0,0.0,0.0,0.0,0.0,0.0,0.0,0.0,0.0,0.0,0.0,-5.0879,-5.0913,-5.12,-5.1758,-5.2435,-5.3196,-5.3416,-5.3788,-5.4515,-5.5141,-5.5801,-5.6528,-5.7239,-5.7679,-5.7679,-5.7814,-5.7881,-5.7881,-5.7881,-5.7881,-5.7881,-5.7881,-5.7881,-5.7881,-5.7881,-5.7881,-5.7881,-5.7881,-5.7881,-5.7881,-5.7881,-5.7881,-5.7881,-5.7881,-5.7881,-5.7881,-5.7881,-5.7881,-5.7881,-5.7881,-5.7881,-5.7881,-5.7881,-5.7881,-5.7881,-5.7881,-5.7881,-5.7881,-5.7881,-5.7881,-5.7881,-5.7881,-5.7881,-3.637,0.0,-3.637,-3.6722,0.0,-3.7243,-3.8635,-4.0831,-4.1337,-4.2193,-4.3265,-4.3344,-4.3344,-4.3344,-4.3344,-4.3344,-4.3344,-4.3344,-4.3344,-4.3344,-4.3344,-4.3344,-4.3344,-4.3344,-4.3344,-4.3344,-4.3344,-4.3344,-4.3344,-4.3344,-4.3344,-4.3344,-4.3344,-4.3344,-4.3344,-4.3344,-4.3344,-4.3344,-4.3344,-4.3344,-4.3344,-4.3344,-4.3423,-4.3675,0.0,0.0,0.0,0.0,0.0,0.0,0.0,0.0,0.0,0.0,0.0,-4.9001,-4.9695,-5.0253,-5.0625,-5.1336,-5.1928,-5.2334,-5.235,-5.2181,-5.1792,-5.2452,-5.3061,-5.3467,-5.3822,-5.4329,-5.5058,-5.5767,-5.6545,-5.7256,-5.7679,-5.7881,-5.7881,-5.7881,-5.7881,-5.7881,-5.7881,-5.7881,-5.7881,-5.7881,-5.7881,-5.7881,-5.7881,-5.7881,-5.7881,-5.7881,-5.7881,-5.7881,-5.7881,-5.7881,-5.7881,-5.7881,-5.7881,-5.7881,-5.7881,-5.7881,-5.7881,-5.7881,-5.7881,-5.7881,-5.7881,-5.7881,-5.7881,-5.7881,-5.7881,-5.7881,-5.7881,-5.7881,-5.7881,-5.7881,-5.7881,-3.637,-3.637,-3.637,-3.637,-3.637,-3.637,-3.7782,-3.9972,0.0,0.0,0.0,-4.3344,-4.3344,-4.3344,-4.3344,-4.3344,-4.3344,-4.3344,-4.3344,-4.3344,-4.3344,-4.3344,-4.3344,-4.3344,-4.3344,-4.3344,-4.3344,-4.3344,-4.3344,-4.3344,-4.3344,-4.3344,-4.3344,-4.3344,-4.3344,-4.3344,-4.3344,-4.3344,-4.3344,-4.3344,-4.3344,-4.3344,-4.3423,-4.369,-4.4827,-4.5681,-4.6237,-4.7556,-4.8403,-4.8769,-4.894,-4.9018,-4.9018,-4.9018,-4.9323,-5.0016,-5.0202,-5.0879,-5.2198,-5.2435,-5.279,-5.3467,-5.3518,-5.323,-5.257,-5.3129,-5.3518,-5.3518,-5.416,-5.4906,-5.5654,-5.6362,-5.7087,-5.7797,-5.7881,-5.7881,-5.7881,-5.7881,-5.7881,-5.7881,-5.7881,-5.7881,-5.7881,-5.7881,-5.7881,-5.7881,-5.7881,-5.7881,-5.7881,-5.7881,-5.7881,-5.7881,-5.7881,-5.7881,-5.7881,-5.7881,-5.7881,-5.7881,-5.7881,-5.7881,-5.7881,-5.7881,-5.7881,-5.7881,-5.7881,-5.7881,-5.7881,-5.7881,-5.7881,-5.7881,-5.7881,-5.7881,-5.7881,-5.7881,-5.7881,-3.637,-3.637,-3.637,-3.637,-3.637,-3.637,-3.7691,-4.0073,-4.214,-4.3155,-4.3344,-4.3344,-4.3344,-4.3344,-4.3344,-4.3344,-4.3344,-4.3344,-4.3344,0.0,-4.3344,-4.3344,-4.3344,-4.3344,-4.3344,-4.3344,-4.3344,-4.3344,-4.3344,-4.3344,-4.3344,-4.3344,-4.3344,-4.3344,-4.3344,-4.3344,-4.3344,-4.3344,-4.3344,-4.3344,-4.3344,-4.3344,-4.3409,-4.3769,-4.4977,-4.5825,-4.6205,-4.7638,-4.8547,-4.8769,-4.894,-4.9018,-4.9018,-4.9018,-4.9323,-5.005,-5.0693,-5.1437,-5.2249,-5.2942,-5.3382,-5.3501,-5.3518,-5.345,-5.3365,-5.3433,-5.3518,-5.3534,-5.4194,-5.4906,-5.5602,-5.6379,-5.712,-5.7763,-5.7881,-5.7881,-5.7881,-5.7881,-5.7881,-5.7881,-5.7881,-5.7881,-5.7881,-5.7881,-5.7881,-5.7881,-5.7881,-5.7881,-5.7881,-5.7881,-5.7881,-5.7881,-5.7881,-5.7881,-5.7881,-5.7881,-5.7881,-5.7881,-5.7881,-5.7881,-5.7881,-5.7881,-5.7881,-5.7881,-5.7881,-5.7881,-5.7881,-5.7881,-5.7881,-5.7881,-5.7881,-5.7881,-5.7881,-5.7881,-5.7881,-3.637,-3.637,-3.637,-3.637,-3.6452,-3.707,-3.8302,-3.9972,-4.1684,-4.2739,-4.325,-4.3344,-4.3344,-4.3344,-4.3344,-4.3344,-4.3344,-4.3344,-4.3344,-4.3344,-4.3344,-4.3344,-4.3344,-4.3344,-4.3344,-4.3344,-4.3344,-4.3344,-4.3344,-4.3344,-4.3344,-4.3344,-4.3344,-4.3344,-4.3344,-4.3344,-4.3344,-4.3344,-4.3344,-4.3344,-4.3344,-4.3344,-4.3329,-4.3518,-4.4601,-4.5316,-4.5447,-4.7137,-4.8032,-4.8177,-4.8673,-4.9018,-4.9018,-4.9018,-4.9509,-5.0608,-5.1014,-5.1742,-5.2892,-5.3281,-5.3518,-5.3518,-5.3518,-5.3518,-5.3518,-5.3518,-5.3518,-5.3551,-5.4515,-5.5344,-5.57,-5.6714,-5.7526,-5.7848,-5.7881,-5.7881,-5.7881,-5.7881,-5.7881,-5.7881,-5.7881,-5.7881,-5.7881,-5.7881,-5.7881,-5.7881,-5.7881,-5.7881,-5.7881,-5.7881,-5.7881,-5.7881,-5.7881,-5.7881,-5.7881,-5.7881,-5.7881,-5.7881,-5.7881,-5.7881,-5.7881,-5.7881,-5.7881,-5.7881,-5.7881,-5.7881,-5.7881,-5.7881,-5.7881,-5.7881,-5.7881,-5.7881,-5.7881,-5.7881,-5.7881,-3.637,-3.637,-3.637,-3.637,-3.6534,-3.7586,-3.8827,-3.9986,-4.1085,-4.2193,-4.325,-4.3344,-4.3344,-4.3344,-4.3344,-4.3344,-4.3344,-4.3344,-4.3344,-4.3344,-4.3344,-4.3344,-4.3344,-4.3344,-4.3344,-4.3344,-4.3344,-4.3344,-4.3344,-4.3344,-4.3344,-4.3344,-4.3344,-4.3344,-4.3344,-4.3344,-4.3344,-4.3344,-4.3344,-4.3344,-4.3344,-4.3344,-4.3344,-4.3329,-4.4297,-4.4812,-4.4871,-4.6625,-4.7605,-4.7671,-4.8513,-4.9018,-4.9018,-4.9018,-4.9576,-5.0794,-5.1133,-5.1894,-5.3331,-5.3518,-5.3518,-5.3518,-5.3518,-5.3518,-5.3518,-5.3518,-5.3518,-5.367,-5.482,-5.5663,-5.5862,-5.7014,-5.7881,-5.7881,-5.7881,-5.7881,-5.7881,-5.7881,-5.7881,-5.7881,-5.7881,-5.7881,-5.7881,-5.7881,-5.7881,-5.7881,-5.7881,-5.7881,-5.7881,-5.7881,-5.7881,-5.7881,-5.7881,-5.7881,-5.7881,-5.7881,-5.7881,-5.7881,-5.7881,-5.7881,-5.7881,-5.7881,-5.7881,-5.7881,-5.7881,-5.7881,-5.7881,-5.7881,-5.7881,-5.7881,-5.7881,-5.7881,-5.7881,-5.7881,-5.7881,-3.637,-3.637,-3.637,-3.637,-3.6546,-3.7678,-3.8827,-3.9972,-4.1085,-4.2208,-4.325,-4.3344,-4.3344,-4.3344,-4.3344,-4.3344,-4.3344,-4.3344,-4.3344,-4.3344,-4.3344,-4.3344,-4.3344,-4.3344,-4.3344,-4.3344,-4.3344,-4.3344,-4.3344,-4.3344,-4.3344,-4.3344,-4.3344,-4.3344,-4.3344,-4.3344,-4.3344,-4.3344,-4.3344,-4.3344,-4.3344,-4.3344,-4.3344,-4.3329,-4.4297,-4.4812,-4.4812,-4.6625,-4.7605,-4.7655,-4.8513,-4.9018,-4.9018,-4.9018,-4.9357,-5.0152,-5.0845,-5.1894,-5.3315,-5.3518,-5.3518,-5.3518,-5.3518,-5.3518,-5.3518,-5.3518,-5.3518,-5.3737,-5.4837,-5.5663,-5.5812,-5.7014,-5.7865,-5.7881,-5.7881,-5.7881,-5.7881,-5.7881,-5.7881,-5.7881,-5.7881,-5.7881,-5.7881,-5.7881,-5.7881,-5.7881,-5.7881,-5.7881,-5.7881,-5.7881,-5.7881,-5.7881,-5.7881,-5.7881,-5.7881,-5.7881,-5.7881,-5.7881,-5.7881,-5.7881,-5.7881,-5.7881,-5.7881,-5.7881,-5.7881,-5.7881,-5.7881,-5.7881,-5.7881,-5.7881,-5.7881,-5.7881,-5.7881,-5.7881,-5.7881,-3.637,-3.637,-3.637,-3.6803,-3.7415,-3.7926,-3.9156,-4.0916,-4.142,-4.2208,-4.325,-4.3344,-4.3344,-4.3344,-4.3344,-4.3344,-4.3344,-4.3344,-4.3344,-4.3344,-4.3344,-4.3344,-4.3344,-4.3344,-4.3344,-4.3344,-4.3344,-4.3344,-4.3344,-4.3344,-4.3344,-4.3344,-4.3344,-4.3344,-4.3344,-4.3344,-4.3344,-4.3344,-4.3344,-4.3344,-4.3344,-4.3344,-4.3344,-4.3409,-4.4297,-4.4812,-4.4946,-4.6625,-4.7605,-4.7655,-4.8497,-4.9018,-4.9018,-4.9018,-4.9323,-5.0067,-5.12,-5.235,-5.3433,-5.3518,-5.3518,-5.3518,-5.3518,-5.3518,-5.3518,-5.3518,-5.3518,-5.3687,-5.4854,-5.5663,-5.5832,-5.7053,-5.7881,-5.7881,-5.7881,-5.7881,-5.7881,-5.7881,-5.7881,-5.7881,-5.7881,-5.7881,-5.7881,-5.7881,-5.7881,-5.7881,-5.7881,-5.7881,-5.7881,-5.7881,-5.7881,-5.7881,-5.7881,-5.7881,-5.7881,-5.7881,-5.7881,-5.7881,-5.7881,-5.7881,-5.7881,-5.7881,-5.7881,-5.7881,-5.7881,-5.7881,-5.7881,-5.7881,-5.7881,-5.7881,-5.7881,-5.7881,-5.7881,-5.7881,-5.7881,-3.637,-3.637,-3.637,-3.7057,-3.8107,-3.8469,-3.977,-4.1504,-4.1947,-4.2534,-4.3265,-4.3344,-4.3344,-4.3344,-4.3344,-4.3344,-4.3344,-4.3344,-4.3344,-4.3344,-4.3344,-4.3344,-4.3344,-4.3344,-4.3344,-4.3344,-4.3344,-4.3344,-4.3344,-4.3344,-4.3344,-4.3344,-4.3344,-4.3344,-4.3344,-4.3344,-4.3344,-4.3344,-4.3344,-4.3344,-4.3329,-4.3551,-4.3708,-4.3771,-4.4646,-4.5153,-4.5227,-4.6747,-4.7605,-4.7605,-4.8497,-4.9018,-4.9018,-4.9018,-4.9407,-5.0355,-5.1386,-5.2452,-5.3433,-5.3518,-5.3518,-5.3518,-5.3518,-5.3518,-5.3518,-5.3518,-5.3518,-5.3585,-5.4668,-5.5429,-5.5835,-5.7019,-5.7831,-5.7881,-5.7881,-5.7881,-5.7881,-5.7881,-5.7881,-5.7881,-5.7881,-5.7881,-5.7881,-5.7881,-5.7881,-5.7881,-5.7881,-5.7881,-5.7881,-5.7881,-5.7881,-5.7881,-5.7881,-5.7881,-5.7881,-5.7881,-5.7881,-5.7881,-5.7881,-5.7881,-5.7881,-5.7881,-5.7881,-5.7881,-5.7881,-5.7881,-5.7881,-5.7881,-5.7881,-5.7881,-5.7881,-5.7881,-5.7881,-5.7881,-5.7881,-3.637,-3.637,-3.6452,-3.715,-3.8198,-3.936,-4.0476,-4.1767,-4.2725,-4.325,-4.325,-4.3344,-4.3344,-4.3344,-4.3344,-4.3344,-4.3344,-4.3344,-4.3344,-4.3344,-4.3344,-4.3344,-4.3344,-4.3344,-4.3344,-4.3344,-4.3344,-4.3344,-4.3344,-4.3344,-4.3344,-4.3344,-4.3344,-4.3344,-4.3344,-4.3344,-4.3344,-4.3344,-4.3344,-4.3344,-4.3409,-4.422,-4.4737,-4.4796,-4.5634,-4.6103,-4.626,-4.7088,-4.7671,-4.7605,-4.8513,-4.9018,-4.9018,-4.9018,-4.9627,-5.093,-5.1234,-5.1944,-5.3264,-5.3518,-5.3518,-5.3518,-5.3518,-5.3518,-5.3518,-5.3518,-5.3518,-5.3518,-5.4245,-5.4972,-5.5733,-5.6934,-5.7797,-5.7881,-5.7881,-5.7881,-5.7881,-5.7881,-5.7881,-5.7881,-5.7881,-5.7881,-5.7881,-5.7881,-5.7881,-5.7881,-5.7881,-5.7881,-5.7881,-5.7881,-5.7881,-5.7881,-5.7881,-5.7881,-5.7881,-5.7881,-5.7881,-5.7881,-5.7881,-5.7881,-5.7881,-5.7881,-5.7881,-5.7881,-5.7881,-5.7881,-5.7881,-5.7881,-5.7881,-5.7881,-5.7881,-5.7881,-5.7881,-5.7881,-5.7881,-3.637,-3.6452,-3.715,-3.8211,-3.936,-4.049,-4.1601,-4.271,-4.3076,-4.3344,-4.3344,-4.3344,-4.3344,-4.3344,-4.3344,-4.3344,-4.3344,-4.3344,-4.3344,-4.3344,-4.3344,-4.3344,-4.3344,-4.3344,-4.3344,-4.3344,-4.3344,-4.3344,-4.3344,-4.3344,-4.3344,-4.3344,-4.3344,-4.3344,-4.3344,-4.3344,-4.3344,-4.3344,-4.3344,-4.3344,-4.3488,-4.484,-4.5706,-4.5778,-4.6609,-4.7088,-4.7088,-4.7998,-4.8513,-4.8497,-4.8861,-4.9018,-4.9018,-4.9018,-4.9678,-5.1014,-5.1234,-5.1894,-5.323,-5.3518,-5.3518,-5.3518,-5.3518,-5.3518,-5.3518,-5.3518,-5.3518,-5.3636,-5.416,-5.4905,-5.5683,-5.663,-5.7391,-5.778,-5.7881,-5.7881,-5.7881,-5.7881,-5.7881,-5.7881,-5.7881,-5.7881,-5.7881,-5.7881,-5.7881,-5.7881,-5.7881,-5.7881,-5.7881,-5.7881,-5.7881,-5.7881,-5.7881,-5.7881,-5.7881,-5.7881,-5.7881,-5.7881,-5.7881,-5.7881,-5.7881,-5.7881,-5.7881,-5.7881,-5.7881,-5.7881,-5.7881,-5.7881,-5.7881,-5.7881,-5.7881,-5.7881,-5.7881,-5.7881,-5.7881,-3.637,-3.6534,-3.7573,-3.8827,-3.9986,-4.1099,-4.229,-4.325,-4.3344,-4.3344,-4.3344,-4.3344,-4.3344,-4.3344,-4.3344,-4.3344,-4.3344,-4.3344,-4.3344,-4.3344,-4.3344,-4.3344,-4.3344,-4.3344,-4.3344,-4.3344,-4.3344,-4.3344,-4.3344,-4.3344,-4.3344,-4.3344,-4.3344,-4.3344,-4.3344,-4.3344,-4.3344,-4.3344,-4.3344,-4.3409,-4.3927,-4.5327,-4.6384,-4.673,-4.7572,-4.8015,-4.808,-4.8656,-4.9018,-4.9018,-4.9018,-4.9018,-4.9018,-4.9018,-4.9661,-5.0997,-5.1234,-5.1877,-5.323,-5.3518,-5.3518,-5.3518,-5.3518,-5.3518,-5.3518,-5.3518,-5.3518,-5.3619,-5.3907,-5.4549,-5.5277,-5.6021,-5.6833,-5.7645,-5.7881,-5.7881,-5.7881,-5.7881,-5.7881,-5.7881,-5.7881,-5.7881,-5.7881,-5.7881,-5.7881,-5.7881,-5.7881,-5.7881,-5.7881,-5.7881,-5.7881,-5.7881,-5.7881,-5.7881,-5.7881,-5.7881,-5.7881,-5.7881,-5.7881,-5.7881,-5.7881,-5.7881,-5.7881,-5.7881,-5.7881,-5.7881,-5.7881,-5.7881,-5.7881,-5.7881,-5.7881,-5.7881,-5.7881,-5.7881,-5.8065,-3.6452,-3.6628,-3.7678,-3.8903,-4.0145,-4.1253,-4.229,-4.317,-4.3344,-4.3344,-4.3344,-4.3344,-4.3344,-4.3344,-4.3344,-4.3344,-4.3344,-4.3344,-4.3344,-4.3344,-4.3344,-4.3344,-4.3344,-4.3344,-4.3344,-4.3344,-4.3344,-4.3344,-4.3344,-4.3344,-4.3344,-4.3344,-4.3344,-4.3344,-4.3344,-4.3344,-4.3344,-4.3344,-4.3344,-4.3786,-4.4721,-4.569,-4.6609,-4.7506,-4.8433,-4.8861,-4.8923,-4.9001,-4.9018,-4.9018,-4.9018,-4.9018,-4.9018,-4.9018,-4.9678,-5.093,-5.1234,-5.1978,-5.3264,-5.3518,-5.3518,-5.3518,-5.3518,-5.3518,-5.3518,-5.3518,-5.3518,-5.3534,-5.3585,-5.389,-5.4617,-5.5294,-5.6258,-5.7577,-5.7814,-5.7881,-5.7881,-5.7881,-5.7881,-5.7881,-5.7881,-5.7881,-5.7881,-5.7881,-5.7881,-5.7881,-5.7881,-5.7881,-5.7881,-5.7881,-5.7881,-5.7881,-5.7881,-5.7881,-5.7881,-5.7881,-5.7881,-5.7881,-5.7881,-5.7881,-5.7881,-5.7881,-5.7881,-5.7881,-5.7881,-5.7881,-5.7881,-5.7881,-5.7881,-5.7881,-5.7881,-5.7993,-5.8192,-5.8317,-5.8633,-3.6896,-3.7678,-3.8827,-4.0045,-4.1169,-4.229,-4.2981,-4.325,-4.3344,-4.3344,-4.3344,-4.3344,-4.3344,-4.3344,-4.3344,-4.3344,-4.3344,-4.3344,-4.3344,-4.3344,-4.3344,-4.3344,-4.3344,-4.3344,-4.3344,-4.3344,-4.3344,-4.3344,-4.3344,-4.3344,-4.3344,-4.3344,-4.3344,-4.3344,-4.3344,-4.3344,-4.3344,-4.3344,-4.3344,-4.3771,-4.4812,-4.5706,-4.6662,-4.7589,-4.8513,-4.9018,-4.9018,-4.9018,-4.9018,-4.9018,-4.9018,-4.9018,-4.9018,-4.9018,-4.9712,-5.0997,-5.1234,-5.1877,-5.323,-5.3518,-5.3518,-5.3518,-5.3518,-5.3518,-5.3518,-5.3518,-5.3518,-5.3518,-5.3518,-5.3805,-5.4448,-5.4786,-5.5598,-5.6968,-5.7577,-5.7848,-5.7881,-5.7881,-5.7881,-5.7881,-5.7881,-5.7881,-5.7881,-5.7881,-5.7881,-5.7881,-5.7881,-5.7881,-5.7881,-5.7881,-5.7881,-5.7881,-5.7881,-5.7881,-5.7881,-5.7881,-5.7881,-5.7881,-5.7881,-5.7881,-5.7881,-5.7881,-5.7881,-5.7881,-5.7881,-5.7881,-5.7881,-5.801,-5.8065,-5.801,-5.8065,-5.8317,-5.8616,-5.8943,-5.9178,-3.7057,-3.8185,-3.9373,-4.0589,-4.1684,-4.282,-4.3344,-4.3344,-4.3344,-4.3344,-4.3344,-4.3344,-4.3344,-4.3344,-4.3344,-4.3344,-4.3344,-4.3344,-4.3344,-4.3344,-4.3344,-4.3344,-4.3344,-4.3344,-4.3344,-4.3344,-4.3344,-4.3344,-4.3344,-4.3344,-4.3344,-4.3344,-4.3344,-4.3344,-4.3344,-4.3344,-4.3344,-4.3329,-4.3708,-4.4358,-4.5269,-4.626,-4.7172,-4.808,-4.8719,-4.9001,-4.9018,-4.9018,-4.9018,-4.9018,-4.9018,-4.9018,-4.9018,-4.9052,-4.9661,-5.0862,-5.1319,-5.1877,-5.3264,-5.3518,-5.3518,-5.3518,-5.3518,-5.3518,-5.3518,-5.3518,-5.3518,-5.3518,-5.3518,-5.3704,-5.411,-5.4482,-5.5023,-5.5852,-5.6884,-5.7543,-5.778,-5.7881,-5.7881,-5.7881,-5.7881,-5.7881,-5.7881,-5.7881,-5.7881,-5.7881,-5.7881,-5.7881,-5.7881,-5.7881,-5.7881,-5.7881,-5.7881,-5.7881,-5.7881,-5.7881,-5.7881,-5.7881,-5.7881,-5.7881,-5.7881,-5.7881,-5.7881,-5.7881,-5.7881,-5.7881,-5.7881,-5.8317,-5.8511,-5.8441,-5.8511,-5.9078,-5.9574,-5.9574,-5.9879,-3.715,-3.8289,-3.9536,-4.0746,-4.1864,-4.2886,-4.3344,-4.3344,-4.3344,-4.3344,-4.3344,-4.3344,-4.3344,-4.3344,-4.3344,-4.3344,-4.3344,-4.3344,-4.3344,-4.3344,-4.3344,-4.3344,-4.3344,-4.3344,-4.3344,-4.3344,-4.3344,-4.3344,-4.3344,-4.3344,-4.3344,-4.3344,-4.3344,-4.3344,-4.3329,-4.3329,-4.3488,-4.363,-4.445,-4.5358,-4.6244,-4.7088,-4.795,-4.8844,-4.8923,-4.9018,-4.9018,-4.9018,-4.9018,-4.9018,-4.9018,-4.9018,-4.9018,-4.9018,-4.9661,-5.0963,-5.1166,-5.1961,-5.3044,-5.3467,-5.3518,-5.3518,-5.3518,-5.3518,-5.3518,-5.3518,-5.3518,-5.3518,-5.3518,-5.3534,-5.3704,-5.4059,-5.4499,-5.4769,-5.6072,-5.712,-5.7763,-5.7881,-5.7881,-5.7881,-5.7881,-5.7881,-5.7881,-5.7881,-5.7881,-5.7881,-5.7881,-5.7881,-5.7881,-5.7881,-5.7881,-5.7881,-5.7881,-5.7881,-5.7881,-5.7881,-5.7881,-5.7881,-5.7881,-5.7881,-5.7881,-5.7954,-5.7881,-5.7881,-5.8137,-5.8065,-5.8192,-5.8755,-5.9128,-5.9195,-5.9574,-6.0211,-6.0458,-6.044,-6.0683,-3.8392,-3.9536,-4.0661,-4.1782,-4.2805,-4.325,-4.3344,-4.3344,-4.3344,-4.3344,-4.3344,-4.3344,-4.3344,-4.3344,-4.3344,-4.3344,-4.3344,-4.3344,-4.3344,-4.3344,-4.3344,-4.3344,-4.3344,-4.3344,-4.3344,-4.3344,-4.3344,-4.3344,-4.3344,-4.3344,-4.3344,-4.3344,-4.3344,-4.3344,-4.3329,-4.3989,-4.4373,-4.4495,-4.5342,-4.626,-4.7104,-4.7456,-4.8015,-4.8877,-4.9018,-4.9018,-4.9018,-4.9018,-4.9018,-4.9018,-4.9018,-4.9018,-4.9018,-4.9018,-4.9458,-5.0304,-5.0947,-5.1589,-5.2486,-5.3145,-5.3467,-5.3518,-5.3518,-5.3518,-5.3518,-5.3518,-5.3518,-5.3518,-5.3518,-5.3518,-5.3534,-5.3687,-5.4025,-5.4668,-5.5818,-5.6985,-5.7628,-5.7881,-5.7881,-5.7881,-5.7881,-5.7881,-5.7881,-5.7881,-5.7881,-5.7881,-5.7881,-5.7881,-5.7881,-5.7881,-5.7881,-5.7881,-5.7881,-5.7881,-5.7881,-5.7881,-5.7881,-5.7881,-5.7881,-5.7881,-5.7954,-5.7954,-5.7954,-5.7881,-5.8703,-5.8823,-5.9061,-5.9509,-5.9686,-6.0068,-6.0397,-6.0838,-6.1189,-6.1286,-6.1604,-3.8392,-3.9972,-4.0575,-4.1782,-4.325,-4.3344,-4.3344,-4.3344,-4.3344,-4.3344,-4.3344,-4.3344,-4.3344,-4.3344,-4.3344,-4.3344,-4.3344,-4.3344,-4.3344,-4.3344,-4.3344,-4.3344,-4.3344,-4.3344,-4.3344,-4.3344,-4.3344,-4.3344,-4.3344,-4.3344,-4.3344,-4.3344,-4.3344,-4.3344,-4.3409,-4.4297,-4.4812,-4.502,-4.6048,-4.7104,-4.7589,-4.8015,-4.8433,-4.894,-4.9018,-4.9018,-4.9018,-4.9018,-4.9018,-4.9018,-4.9018,-4.9018,-4.9018,-4.9018,-4.934,-5.005,-5.0524,-5.1166,-5.2147,-5.2773,-5.3145,-5.3433,-5.3518,-5.3518,-5.3518,-5.3518,-5.3518,-5.3518,-5.3518,-5.3518,-5.3518,-5.3518,-5.3856,-5.4532,-5.5361,-5.6308,-5.7289,-5.7695,-5.7848,-5.7881,-5.7881,-5.7881,-5.7881,-5.7881,-5.7881,-5.7881,-5.7881,-5.7881,-5.7881,-5.7881,-5.7881,-5.7881,-5.7881,-5.7881,-5.7881,-5.7881,-5.801,-5.801,-5.8263,-5.8209,-5.8209,-5.828,-5.8388,-5.8564,-5.9195,-5.9686,-5.9942,-6.0238,-6.0665,-6.092,-6.1131,-6.1436,-6.1842,-6.1951,-6.2324,-3.7952,-3.9899,-4.0159,-4.1449,-4.317,-4.3344,-4.3344,-4.3344,-4.3344,-4.3344,-4.3344,-4.3344,-4.3344,-4.3344,-4.3344,-4.3344,-4.3344,-4.3344,-4.3344,-4.3344,-4.3344,-4.3344,-4.3344,-4.3344,-4.3344,-4.3344,-4.3344,-4.3344,-4.3344,-4.3344,-4.3344,-4.3344,-4.3344,-4.3344,-4.3551,-4.4434,-4.4871,-4.5358,-4.69,-4.7721,-4.8015,-4.8513,-4.8861,-4.894,-4.9018,-4.9018,-4.9018,-4.9018,-4.9018,-4.9018,-4.9018,-4.9018,-4.9018,-4.9018,-4.9272,-4.9796,-5.0101,-5.0744,-5.1758,-5.2046,-5.2536,-5.3095,-5.3298,-5.3467,-5.3467,-5.3518,-5.3518,-5.3518,-5.3518,-5.3518,-5.3518,-5.3518,-5.3754,-5.4279,-5.4549,-5.5277,-5.6308,-5.7273,-5.7797,-5.7881,-5.7881,-5.7881,-5.7881,-5.7881,-5.7881,-5.7881,-5.7881,-5.7881,-5.7881,-5.7881,-5.7881,-5.7881,-5.7881,-5.7881,-5.7881,-5.7881,-5.8065,-5.8192,-5.8651,-5.8772,-5.8772,-5.8909,-5.9078,-5.9443,-6.0005,-6.0379,-6.0562,-6.0997,-6.1474,-6.177,-6.1915,-6.2342,-6.2705,-6.2515,-6.2686,-3.9461,-4.0073,-4.1782,-4.282,-4.325,-4.3344,-4.3344,-4.3344,-4.3344,-4.3344,-4.3344,-4.3344,-4.3344,-4.3344,-4.3344,-4.3344,-4.3344,-4.3344,-4.3344,-4.3344,-4.3344,-4.3344,-4.3344,-4.3344,-4.3344,-4.3344,-4.3344,-4.3344,-4.3344,-4.3344,-4.3344,-4.3344,-4.3409,-4.3344,-4.3536,-4.5048,-4.5905,-4.6173,-4.7721,-4.8576,-4.8576,-4.8798,-4.9018,-4.9018,-4.9018,-4.9018,-4.9018,-4.9018,-4.9018,-4.9018,-4.9018,-4.9018,-4.9018,-4.9018,-4.912,-4.934,-4.9796,-5.0236,-5.0608,-5.1183,-5.1758,-5.2435,-5.2604,-5.2841,-5.3467,-5.345,-5.3467,-5.3501,-5.3518,-5.3518,-5.3518,-5.3518,-5.3619,-5.3873,-5.4245,-5.4668,-5.5209,-5.6275,-5.7222,-5.7679,-5.7848,-5.7881,-5.7881,-5.7881,-5.7881,-5.7881,-5.7881,-5.7881,-5.7954,-5.7937,-5.8065,-5.8192,-5.8388,-5.8511,-5.8511,-5.8581,-5.8703,-5.8823,-5.9145,-5.9591,-5.9591,-5.9574,-5.9751,-6.0238,-6.0802,-6.1113,-6.1361,-6.1788,-6.2324,-6.2515,-6.2636,-6.2705,-6.2823,-6.2823,-6.2823,-3.936,-4.0073,-4.1767,-4.2805,-4.325,-4.3344,-4.3344,-4.3344,-4.3344,-4.3344,-4.3344,-4.3344,-4.3344,-4.3344,-4.3344,-4.3344,-4.3344,-4.3344,-4.3344,-4.3344,-4.3344,-4.3344,-4.3344,-4.3344,-4.3344,-4.3344,-4.3344,-4.3344,-4.3344,-4.3344,-4.3344,-4.3409,-4.3771,-4.4066,-4.4282,-4.5818,-4.6747,-4.7104,-4.8225,-4.9018,-4.9018,-4.9018,-4.9018,-4.9018,-4.9018,-4.9018,-4.9018,-4.9018,-4.9018,-4.9018,-4.9018,-4.9018,-4.9018,-4.9018,-4.9018,-4.9103,-4.9306,-4.9796,-5.0101,-5.0473,-5.0997,-5.1725,-5.1792,-5.2232,-5.2706,-5.2942,-5.3179,-5.3399,-5.3518,-5.3518,-5.3518,-5.3518,-5.3518,-5.3568,-5.3839,-5.4194,-5.4718,-5.5886,-5.69,-5.7374,-5.7662,-5.7814,-5.7881,-5.7831,-5.7881,-5.7881,-5.7881,-5.7881,-5.8137,-5.8192,-5.8494,-5.8686,-5.9011,-5.9212,-5.9212,-5.9346,-5.9526,-5.9656,-5.985,-6.0335,-6.0683,-6.0622,-6.0544,-6.1037,-6.153,-6.1969,-6.2271,-6.2705,-6.2823,-6.2755,-6.2755,-6.2755,-6.2823,-6.2823,-6.2823,-3.9006,-3.9986,-4.1337,-4.2452,-4.325,-4.3344,-4.3344,-4.3344,-4.3344,-4.3344,-4.3344,-4.3344,-4.3344,-4.3344,-4.3344,-4.3344,-4.3344,-4.3344,-4.3344,-4.3344,-4.3344,-4.3344,-4.3344,-4.3344,-4.3488,-4.3488,-4.3329,-4.3329,-4.3329,-4.3472,-4.3708,-4.3786,-4.4571,-4.493,-4.5431,-4.6625,-4.7456,-4.7605,-4.845,-4.9018,-4.9018,-4.9018,-4.9018,-4.9018,-4.9018,-4.9018,-4.9018,-4.9018,-4.9018,-4.9018,-4.9018,-4.9018,-4.9018,-4.9018,-4.9018,-4.9018,-4.9086,-4.9323,-4.9678,-4.9932,-5.0253,-5.0963,-5.1048,-5.1403,-5.1928,-5.2198,-5.252,-5.3044,-5.3348,-5.3518,-5.3518,-5.3518,-5.3518,-5.3518,-5.3518,-5.3805,-5.4482,-5.5649,-5.6241,-5.6697,-5.712,-5.7459,-5.7645,-5.7712,-5.7797,-5.7954,-5.7937,-5.801,-5.8192,-5.8511,-5.8875,-5.9128,-5.946,-5.9721,-5.9786,-6.0256,-6.0379,-6.0562,-6.0718,-6.1189,-6.1604,-6.1604,-6.1586,-6.177,-6.22,-6.2515,-6.2636,-6.2755,-6.2823,-6.2823,-6.2823,-6.2823,-6.2823,-6.2823,-6.2823,-3.9724,-4.0059,-4.214,-4.317,-4.3265,-4.3344,-4.3344,-4.3344,-4.3344,-4.3344,-4.3344,-4.3344,-4.3344,-4.3344,-4.3344,-4.3344,-4.3344,-4.3344,-4.3344,-4.3344,-4.3344,-4.3344,-4.3344,-4.3344,-4.3708,-4.4143,-4.3849,-4.3472,-4.3693,-4.4066,-4.451,-4.4721,-4.5488,-4.5977,-4.626,-4.702,-4.7737,-4.7885,-4.8576,-4.9001,-4.9018,-4.9018,-4.9018,-4.9018,-4.9018,-4.9018,-4.9018,-4.9018,-4.9018,-4.9018,-4.9018,-4.9018,-4.9018,-4.9018,-4.9018,-4.9018,-4.9018,-4.9137,-4.9272,-4.9272,-4.9576,-5.0067,-5.0287,-5.0642,-5.1166,-5.1437,-5.1775,-5.2418,-5.3061,-5.3467,-5.3501,-5.3484,-5.3518,-5.3518,-5.3534,-5.3585,-5.3873,-5.4533,-5.5381,-5.5858,-5.6484,-5.7196,-5.7525,-5.7817,-5.8112,-5.8355,-5.8511,-5.8511,-5.8581,-5.8875,-5.9227,-5.9556,-5.9832,-6.0086,-6.0291,-6.0938,-6.1361,-6.1474,-6.1733,-6.2041,-6.2394,-6.2515,-6.2636,-6.2497,-6.2497,-6.2686,-6.2755,-6.2823,-6.2823,-6.2823,-6.2823,-6.2823,-6.2823,-6.2823,-6.2823,-3.9402,-3.9701,-4.2239,-4.3344,-4.3344,-4.3344,-4.3344,-4.3344,-4.3344,-4.3344,-4.3344,-4.3344,-4.3344,-4.3344,-4.3344,-4.3344,-4.3344,-4.3344,-4.3344,-4.3344,-4.3344,-4.3344,-4.3344,-4.3344,-4.3551,-4.3927,-4.3989,-4.4343,-4.4825,-4.5269,-4.5504,-4.5778,-4.647,-4.6884,-4.7155,-4.7868,-4.8225,-4.845,-4.8736,-4.9018,-4.9018,-4.9018,-4.9018,-4.9018,-4.9018,-4.9018,-4.9018,-4.9018,-4.9018,-4.9018,-4.9018,-4.9018,-4.9018,-4.9018,-4.9018,-4.9018,-4.9018,-4.9018,-4.9018,-4.9018,-4.9221,-4.9441,-4.9543,-4.9881,-5.0405,-5.0693,-5.1014,-5.1691,-5.2401,-5.2892,-5.2858,-5.3247,-5.3484,-5.3518,-5.3501,-5.3501,-5.3703,-5.4256,-5.4764,-5.5277,-5.5809,-5.661,-5.7621,-5.7947,-5.841,-5.8753,-5.9026,-5.9061,-5.8993,-5.9491,-6.0033,-6.0484,-6.0861,-6.1113,-6.1247,-6.1604,-6.2023,-6.22,-6.2324,-6.2686,-6.2823,-6.2755,-6.2755,-6.2755,-6.2805,-6.2823,-6.2823,-6.2823,-6.2823,-6.2823,-6.2823,-6.2823,-6.2823,-6.2823,-6.2823,-3.9018,-3.9494,-4.2041,-4.3225,-4.3329,-4.3344,-4.3344,-4.3344,-4.3344,-4.3344,-4.3344,-4.3344,-4.3344,-4.3344,-4.3344,-4.3344,-4.3344,-4.3344,-4.3344,-4.3344,-4.3344,-4.3344,-4.3344,-4.3344,-4.3488,-4.4066,-4.4706,-4.5358,-4.5545,-4.626,-4.647,-4.6747,-4.7373,-4.7868,-4.808,-4.8497,-4.894,-4.9018,-4.9018,-4.9018,-4.9018,-4.9018,-4.9018,-4.9018,-4.9018,-4.9018,-4.9018,-4.9018,-4.9018,-4.9018,-4.9018,-4.9018,-4.9018,-4.9018,-4.9018,-4.9018,-4.9018,-4.9018,-4.9018,-4.9018,-4.9035,-4.9137,-4.9052,-4.9357,-4.9729,-5.0101,-5.0388,-5.098,-5.164,-5.2232,-5.2435,-5.2875,-5.3381,-5.3783,-5.3766,-5.3832,-5.4154,-5.4586,-5.4878,-5.5265,-5.5492,-5.6157,-5.7277,-5.7967,-5.8357,-5.891,-5.9196,-5.961,-5.9692,-6.0605,-6.1153,-6.1697,-6.2076,-6.2324,-6.2446,-6.2342,-6.2515,-6.2567,-6.2567,-6.2755,-6.2823,-6.2823,-6.2823,-6.2823,-6.2823,-6.2823,-6.2823,-6.2823,-6.2823,-6.2823,-6.2823,-6.2823,-6.2823,-6.2823,-6.2823,-3.906,-4.0474,-4.1918,-4.2806,-4.3269,-4.3299,-4.3314,-4.3344,-4.3344,-4.3344,-4.3344,-4.3344,-4.3344,-4.3344,-4.3344,-4.3344,-4.3344,-4.3344,-4.3344,-4.3344,-4.3344,-4.3344,-4.3344,-4.3344,-4.3849,-4.4495,-4.5561,-4.5504,-4.585,-4.6815,-4.7456,-4.7655,-4.8225,-4.8798,-4.8656,-4.8861,-4.9001,-4.9018,-4.9018,-4.9018,-4.9018,-4.9018,-4.9018,-4.9018,-4.9018,-4.9018,-4.9018,-4.9018,-4.9018,-4.9018,-4.9018,-4.9018,-4.9018,-4.9018,-4.9018,-4.9018,-4.9018,-4.9018,-4.9018,-4.9018,-4.9018,-4.9018,-4.9018,-4.9069,-4.9323,-4.9712,-5.0033,-5.0185,-5.096,-5.1681,-5.2153,-5.2414,-5.3164,-5.3857,-5.4264,-5.467,-5.5126,-5.5297,-5.557,-5.5702,-5.6118,-5.6423,-5.7104,-5.7694,-5.8288,-5.8878,-5.9459,-5.9898,-6.0493,-6.133,-6.1897,-6.2271,-6.2446,-6.2705,-6.2823,-6.2823,-6.2823,-6.2823,-6.2823,-6.2823,-6.2823,-6.2823,-6.2823,-6.2823,-6.2823,-6.2823,-6.2823,-6.2823,-6.2823,-6.2823,-6.2823,-6.2823,-6.2823,-6.2823,-6.2823,-3.8018,-3.9708,-4.1225,-4.2192,-4.2746,-4.2776,-4.3,-4.3284,-4.3344,-4.3344,-4.3344,-4.3344,-4.3344,-4.3344,-4.3344,-4.3344,-4.3344,-4.3344,-4.3344,-4.3344,-4.3344,-4.3344,-4.3488,-4.3849,-4.4526,-4.5079,-4.6119,-4.6884,-4.6884,-4.7523,-4.8353,-4.8433,-4.8719,-4.894,-4.9018,-4.9018,-4.9018,-4.9018,-4.9018,-4.9018,-4.9018,-4.9018,-4.9018,-4.9018,-4.9018,-4.9018,-4.9018,-4.9018,-4.9018,-4.9018,-4.9018,-4.9018,-4.9018,-4.9018,-4.9018,-4.9018,-4.9018,-4.9018,-4.9018,-4.9018,-4.9018,-4.9018,-4.9018,-4.9018,-4.9086,-4.9334,-4.9767,-5.0043,-5.0746,-5.1451,-5.2208,-5.2604,-5.345,-5.4157,-5.4624,-5.5155,-5.5659,-5.6169,-5.6438,-5.6545,-5.6668,-5.6992,-5.7244,-5.7711,-5.8501,-5.9349,-5.9872,-6.0215,-6.0991,-6.1909,-6.2369,-6.2654,-6.2705,-6.2805,-6.2823,-6.2823,-6.2823,-6.2823,-6.2823,-6.2823,-6.2823,-6.2823,-6.2823,-6.2823,-6.2823,-6.2823,-6.2823,-6.2823,-6.2823,-6.2823,-6.2823,-6.2823,-6.2823,-6.2823,-6.2823,-3.7522,-3.908,-4.0545,-4.1519,-4.2132,-4.2282,-4.2641,-4.306,-4.3269,-4.3344,-4.3344,-4.3344,-4.3344,-4.3344,-4.3344,-4.3344,-4.3344,-4.3344,-4.3344,-4.3344,-4.3329,-4.3472,-4.3849,-4.4526,-4.4871,-4.5153,-4.6694,-4.7373,-4.7786,-4.8353,-4.8923,-4.9018,-4.894,-4.9018,-4.9018,-4.9018,-4.9018,-4.9018,-4.9018,-4.9018,-4.9018,-4.9018,-4.9018,-4.9018,-4.9018,-4.9018,-4.9018,-4.9018,-4.9018,-4.9018,-4.9018,-4.9018,-4.9018,-4.9018,-4.9018,-4.9018,-4.9018,-4.9018,-4.9018,-4.9018,-4.9018,-4.9018,-4.9063,-4.9107,-4.9316,-4.9256,-4.9521,-5.0289,-5.0802,-5.1479,-5.2124,-5.269,-5.3421,-5.4077,-5.4758,-5.5275,-5.5884,-5.6521,-5.7043,-5.7234,-5.7382,-5.7594,-5.779,-5.7933,-5.8614,-5.9725,-6.0272,-6.0529,-6.1153,-6.1856,-6.2095,-6.2236,-6.2328,-6.2438,-6.275,-6.275,-6.2787,-6.2677,-6.2677,-6.2768,-6.275,-6.2787,-6.2823,-6.2823,-6.2823,-6.2823,-6.2823,-6.2823,-6.2823,-6.2823,-6.2823,-6.2823,-6.2823,-6.2823,-6.2823,-3.8323,-3.9384,-4.0187,-4.0846,-4.1489,-4.2179,-4.2357,-4.2476,-4.3045,-4.3284,-4.3344,-4.3344,-4.3344,-4.3344,-4.3344,-4.3344,-4.3344,-4.3344,-4.3344,-4.3344,-4.3329,-4.3771,-4.4373,-4.4871,-4.5358,-4.6189,-4.7306,-4.7737,-4.7868,-4.8576,-4.894,-4.9018,-4.9018,-4.9018,-4.9018,-4.9018,-4.9018,-4.9018,-4.9018,-4.9018,-4.9018,-4.9018,-4.9018,-4.9018,-4.9018,-4.9018,-4.9018,-4.9018,-4.9018,-4.9018,-4.9018,-4.9018,-4.9018,-4.9018,-4.9018,-4.9018,-4.9018,-4.9018,-4.9018,-4.9001,-4.9001,-4.9001,-4.9152,-4.9462,-4.9879,-4.9936,-5.0297,-5.0876,-5.1229,-5.1582,-5.2004,-5.2408,-5.3242,-5.4054,-5.4864,-5.5537,-5.6224,-5.7031,-5.7489,-5.7831,-5.795,-5.7978,-5.7978,-5.8019,-5.8124,-5.9124,-5.9648,-5.9905,-6.0254,-6.0896,-6.1227,-6.1429,-6.1594,-6.1906,-6.253,-6.2511,-6.2144,-6.2071,-6.2108,-6.2383,-6.2622,-6.2677,-6.253,-6.2823,-6.2823,-6.2823,-6.2823,-6.2823,-6.2823,-6.2823,-6.2823,-6.2823,-6.2823,-6.2823,-6.2823,-3.8472,-3.9439,-3.9694,-4.0172,-4.0801,-4.1055,-4.1384,-4.1833,-4.2447,-4.2985,-4.3314,-4.3344,-4.3344,-4.3344,-4.3344,-4.3344,-4.3344,-4.3344,-4.3344,-4.3344,-4.3409,-4.3927,-4.4586,-4.5504,-4.6189,-4.7088,-4.7933,-4.845,-4.8593,-4.8861,-4.894,-4.9018,-4.9018,-4.9018,-4.9018,-4.9018,-4.9018,-4.9018,-4.9018,-4.9018,-4.9018,-4.9018,-4.9018,-4.9018,-4.9018,-4.9018,-4.9018,-4.9018,-4.9018,-4.9018,-4.9018,-4.9018,-4.9018,-4.9018,-4.9018,-4.9018,-4.9018,-4.9018,-4.9001,-4.9063,-4.9168,-4.9681,-4.9993,-5.0352,-5.0608,-5.0662,-5.1016,-5.1444,-5.1759,-5.2072,-5.2618,-5.2857,-5.3308,-5.4191,-5.4921,-5.5624,-5.6264,-5.6887,-5.7519,-5.7602,-5.785,-5.7978,-5.7978,-5.8015,-5.8134,-5.8437,-5.8877,-5.93,-5.9612,-5.9942,-6.0309,-6.0621,-6.0805,-6.0988,-6.1557,-6.152,-6.1392,-6.1465,-6.152,-6.1741,-6.1998,-6.2034,-6.2016,-6.2401,-6.2677,-6.2548,-6.2548,-6.275,-6.2805,-6.2787,-6.2787,-6.2823,-6.2823,-6.2823,-6.2823,-3.8708,-3.9352,-3.9424,-3.9679,-4.0098,-4.0322,-4.0651,-4.1145,-4.1788,-4.2432,-4.3045,-4.321,-4.3344,-4.3344,-4.3344,-4.3344,-4.3344,-4.3344,-4.3344,-4.3344,-4.3409,-4.4051,-4.5064,-4.5905,-4.673,-4.7868,-4.8513,-4.894,-4.894,-4.9001,-4.9018,-4.9018,-4.9018,-4.9018,-4.9018,-4.9018,-4.9018,-4.9018,-4.9018,-4.9018,-4.9018,-4.9018,-4.9018,-4.9018,-4.9018,-4.9018,-4.9018,-4.9018,-4.9018,-4.9018,-4.9018,-4.9018,-4.9018,-4.9018,-4.9018,-4.9001,-4.9001,-4.9001,-4.9063,-4.9256,-4.9462,-4.9936,-5.0608,-5.1034,-5.1343,-5.1393,-5.1692,-5.2289,-5.2445,-5.2662,-5.3206,-5.3188,-5.3193,-5.3895,-5.4371,-5.5027,-5.5503,-5.6124,-5.6822,-5.7336,-5.7501,-5.7629,-5.7978,-5.7978,-5.8033,-5.8162,-5.8345,-5.8639,-5.8786,-5.9134,-5.952,-5.9795,-6.0034,-6.0217,-6.0419,-6.0621,-6.0823,-6.0896,-6.0933,-6.0951,-6.1098,-6.119,-6.1282,-6.1484,-6.1722,-6.2016,-6.1961,-6.1741,-6.2181,-6.2732,-6.2695,-6.264,-6.2823,-6.2823,-6.2823,-3.9337,-3.9424,-3.9424,-3.9439,-3.9574,-4.0127,-4.0382,-4.0516,-4.1115,-4.1818,-4.2506,-4.3015,-4.3299,-4.3314,-4.3344,-4.3344,-4.3344,-4.3329,-4.3409,-4.3488,-4.363,-4.454,-4.5602,-4.6523,-4.7223,-4.8576,-4.9018,-4.9018,-4.9018,-4.9018,-4.9018,-4.9018,-4.9018,-4.9018,-4.9018,-4.9018,-4.9018,-4.9018,-4.9018,-4.9018,-4.9018,-4.9018,-4.9018,-4.9018,-4.9018,-4.9018,-4.9018,-4.9018,-4.9018,-4.9018,-4.9018,-4.9018,-4.9018,-4.9018,-4.9063,-4.9107,-4.909,-4.909,-4.9124,-4.9664,-5.0072,-5.039,-5.1189,-5.1611,-5.197,-5.2159,-5.2271,-5.2813,-5.2999,-5.306,-5.3206,-5.3225,-5.3298,-5.3482,-5.3995,-5.4436,-5.4932,-5.5299,-5.5978,-5.673,-5.6914,-5.7097,-5.7648,-5.7978,-5.7978,-5.8015,-5.7997,-5.807,-5.8217,-5.8419,-5.8841,-5.8988,-5.9245,-5.9373,-5.9593,-6.0015,-6.0236,-6.0309,-6.0236,-6.0126,-6.0217,-6.0382,-6.0474,-6.0584,-6.086,-6.1227,-6.0915,-6.0529,-6.1227,-6.1924,-6.2328,-6.242,-6.264,-6.2695,-6.2548,-3.9424,-3.9424,-3.9424,-3.9424,-3.9454,-3.9634,-3.9753,-3.9858,-4.0472,-4.1339,-4.2237,-4.2626,-4.297,-4.3195,-4.3344,-4.3344,-4.3329,-4.3329,-4.3488,-4.422,-4.4282,-4.5561,-4.6609,-4.7172,-4.7786,-4.8656,-4.9018,-4.9018,-4.9018,-4.9018,-4.9018,-4.9018,-4.9018,-4.9018,-4.9018,-4.9018,-4.9018,-4.9018,-4.9018,-4.9018,-4.9018,-4.9018,-4.9018,-4.9018,-4.9018,-4.9018,-4.9018,-4.9018,-4.9018,-4.9018,-4.9018,-4.9001,-4.9063,-4.9063,-4.9256,-4.9529,-4.9694,-4.9912,-5.0355,-5.0964,-5.1376,-5.1611,-5.194,-5.2463,-5.2787,-5.2831,-5.298,-5.3085,-5.3164,-5.3206,-5.3206,-5.3206,-5.3261,-5.3243,-5.361,-5.3977,-5.4381,-5.462,-5.5115,-5.5904,-5.6345,-5.7024,-5.7611,-5.7758,-5.7776,-5.7941,-5.7978,-5.7978,-5.8088,-5.807,-5.829,-5.8309,-5.8437,-5.8547,-5.8767,-5.9153,-5.9226,-5.9153,-5.9079,-5.8988,-5.9171,-5.9538,-5.985,-6.0052,-6.0254,-6.0401,-6.0126,-6.0015,-6.0493,-6.1043,-6.1172,-6.1392,-6.152,-6.1722,-6.1924,-3.9424,-3.9424,-3.9424,-3.9424,-3.9424,-3.9424,-3.9424,-3.9544,-4.0127,-4.1025,-4.1893,-4.2237,-4.2716,-4.318,-4.3344,-4.3344,-4.3329,-4.3771,-4.3989,-4.4871,-4.5227,-4.6189,-4.7104,-4.7737,-4.808,-4.8798,-4.9018,-4.9018,-4.9018,-4.9018,-4.9018,-4.9018,-4.9018,-4.9018,-4.9018,-4.9018,-4.9018,-4.9018,-4.9018,-4.9018,-4.9018,-4.9018,-4.9018,-4.9018,-4.9018,-4.9018,-4.9018,-4.9018,-4.9001,-4.9001,-4.9063,-4.9152,-4.9256,-4.9419,-4.9722,-5.0133,-5.0412,-5.0753,-5.1358,-5.1643,-5.2,-5.2427,-5.298,-5.3164,-5.3206,-5.3103,-5.3103,-5.3164,-5.3206,-5.3206,-5.3206,-5.3206,-5.3206,-5.3206,-5.3335,-5.3702,-5.3775,-5.4032,-5.4326,-5.5115,-5.5647,-5.6492,-5.7354,-5.7501,-5.7519,-5.7758,-5.7978,-5.7978,-5.796,-5.7978,-5.7978,-5.8015,-5.8033,-5.8198,-5.8235,-5.8272,-5.8253,-5.8033,-5.8125,-5.829,-5.8382,-5.8804,-5.9171,-5.941,-5.9336,-5.93,-5.9428,-5.9557,-5.963,-5.9593,-5.9538,-5.9832,-6.0236,-6.0713,-6.1135,-3.9424,-3.9424,-3.9424,-3.9424,-3.9424,-3.9424,-3.9424,-3.9469,-4.0068,-4.0711,-4.1384,-4.1998,-4.2566,-4.3165,-4.3299,-4.3344,-4.3409,-4.4143,-4.4646,-4.5079,-4.5706,-4.6747,-4.7456,-4.7868,-4.837,-4.8798,-4.9018,-4.9018,-4.9018,-4.9018,-4.9018,-4.9018,-4.9018,-4.9018,-4.9018,-4.9018,-4.9018,-4.9018,-4.9018,-4.9018,-4.9018,-4.9018,-4.9018,-4.9018,-4.9018,-4.9018,-4.9018,-4.9018,-4.9063,-4.9107,-4.909,-4.9504,-4.9763,-5.0033,-5.05,-5.0911,-5.1102,-5.1643,-5.2018,-5.2271,-5.249,-5.2875,-5.3103,-5.3206,-5.3206,-5.3206,-5.3206,-5.3206,-5.3206,-5.3206,-5.3206,-5.3206,-5.3206,-5.3206,-5.3206,-5.3316,-5.3298,-5.35,-5.3739,-5.4179,-5.4528,-5.5299,-5.6418,-5.6822,-5.695,-5.7409,-5.7648,-5.785,-5.7868,-5.7978,-5.7978,-5.7978,-5.7997,-5.7978,-5.7978,-5.7978,-5.7978,-5.7978,-5.7978,-5.8107,-5.8125,-5.8162,-5.8474,-5.8584,-5.8235,-5.8235,-5.8621,-5.8565,-5.8327,-5.8309,-5.8584,-5.8841,-5.9428,-5.9979,-6.0364,-3.9424,-3.9424,-3.9424,-3.9424,-3.9424,-3.9424,-3.9424,-3.9469,-3.9649,-4.0083,-4.0726,-4.1369,-4.2043,-4.2641,-4.312,-4.3284,-4.3409,-4.3771,-4.4706,-4.5488,-4.626,-4.7306,-4.8015,-4.8513,-4.8798,-4.8877,-4.9018,-4.9018,-4.9018,-4.9018,-4.9018,-4.9018,-4.9018,-4.9018,-4.9018,-4.9018,-4.9018,-4.9018,-4.9018,-4.9018,-4.9018,-4.9018,-4.9018,-4.9018,-4.9018,-4.9018,-4.9018,-4.9018,-4.9168,-4.9563,-4.9664,-5.0016,-5.0734,-5.0823,-5.1086,-5.1741,-5.2242,-5.2743,-5.2831,-5.2893,-5.2955,-5.3103,-5.3206,-5.3206,-5.3206,-5.3206,-5.3206,-5.3206,-5.3206,-5.3206,-5.3206,-5.3206,-5.3206,-5.3206,-5.3206,-5.3206,-5.3206,-5.328,-5.3518,-5.361,-5.394,-5.4583,-5.5666,-5.5941,-5.6161,-5.6785,-5.7226,-5.7409,-5.7721,-5.7813,-5.7978,-5.7978,-5.7978,-5.7978,-5.7978,-5.7978,-5.7978,-5.7978,-5.7978,-5.7978,-5.8033,-5.8052,-5.7997,-5.7978,-5.7978,-5.7978,-5.807,-5.7978,-5.7978,-5.7978,-5.8198,-5.8364,-5.8602,-5.9171,-5.9557,-3.9424,-3.9424,-3.9424,-3.9424,-3.9424,-3.9424,-3.9424,-3.9424,-3.9424,-3.9783,-4.0412,-4.0816,-4.1489,-4.2342,-4.2776,-4.306,-4.3394,-4.4403,-4.5253,-4.5889,-4.6884,-4.7933,-4.8781,-4.9018,-4.9001,-4.9018,-4.9018,-4.9018,-4.9018,-4.9018,-4.9018,-4.9018,-4.9018,-4.9018,-4.9018,-4.9018,-4.9018,-4.9018,-4.9018,-4.9018,-4.9018,-4.9018,-4.9018,-4.9018,-4.9018,-4.9018,-4.9018,-4.9018,-4.9256,-4.9664,-4.9763,-5.0352,-5.1155,-5.1562,-5.1988,-5.2599,-5.2831,-5.306,-5.3103,-5.3146,-5.3164,-5.3206,-5.3206,-5.3206,-5.3206,-5.3206,-5.3206,-5.3206,-5.3206,-5.3206,-5.3206,-5.3206,-5.3206,-5.3206,-5.3206,-5.3206,-5.3206,-5.3206,-5.3261,-5.3316,-5.3702,-5.4252,-5.473,-5.4968,-5.5354,-5.5996,-5.6345,-5.6436,-5.6987,-5.7556,-5.7813,-5.7978,-5.7978,-5.7978,-5.7978,-5.7978,-5.7978,-5.7978,-5.7978,-5.7978,-5.7978,-5.7978,-5.7978,-5.7978,-5.7978,-5.7978,-5.7978,-5.7978,-5.7978,-5.7978,-5.7978,-5.8125,-5.8253,-5.8437,-5.8712,-3.9424,-3.9424,-3.9424,-3.9424,-3.9424,-3.9424,-3.9424,-3.9424,-3.9424,-3.9753,-4.0232,-4.0397,-4.113,-4.2028,-4.2417,-4.2851,-4.3605,-4.469,-4.5545,-4.6244,-4.7589,-4.856,-4.8844,-4.9018,-4.9018,-4.9018,-4.9018,-4.9018,-4.9018,-4.9018,-4.9018,-4.9018,-4.9018,-4.9018,-4.9018,-4.9018,-4.9018,-4.9018,-4.9018,-4.9018,-4.9018,-4.9018,-4.9018,-4.9018,-4.9018,-4.9018,-4.9018,-4.9001,-4.9046,-4.9359,-4.978,-5.0517,-5.1562,-5.2307,-5.2893,-5.3103,-5.3164,-5.3164,-5.3206,-5.3206,-5.3206,-5.3206,-5.3206,-5.3206,-5.3206,-5.3206,-5.3206,-5.3206,-5.3206,-5.3206,-5.3206,-5.3206,-5.3206,-5.3206,-5.3206,-5.3206,-5.3206,-5.3206,-5.3225,-5.3261,-5.3371,-5.3867,-5.4051,-5.4326,-5.462,-5.5225,-5.5656,-5.5693,-5.627,-5.7081,-5.7398,-5.7765,-5.7951,-5.7969,-5.7978,-5.7978,-5.7978,-5.7978,-5.7969,-5.7978,-5.7978,-5.7978,-5.7978,-5.7978,-5.7978,-5.7978,-5.7978,-5.7978,-5.7978,-5.7978,-5.7978,-5.7978,-5.8033,-5.8107,-5.818,-3.9424,-3.9424,-3.9424,-3.9424,-3.9424,-3.9424,-3.9424,-3.9424,-3.9424,-3.9514,-3.9723,-4.0202,-4.0801,-4.1549,-4.2117,-4.2626,-4.3512,-4.4615,-4.5488,-4.633,-4.7523,-4.8513,-4.8923,-4.9018,-4.9018,-4.9018,-4.9018,-4.9018,-4.9018,-4.9018,-4.9018,-4.9018,-4.9018,-4.9018,-4.9018,-4.9018,-4.9018,-4.9018,-4.9018,-4.9018,-4.9018,-4.9018,-4.9018,-4.9018,-4.9018,-4.9063,-4.9063,-4.9063,-4.9681,-5.0407,-5.068,-5.1512,-5.2617,-5.2999,-5.3146,-5.3206,-5.3206,-5.3206,-5.3206,-5.3206,-5.3206,-5.3206,-5.3206,-5.3206,-5.3206,-5.3206,-5.3206,-5.3206,-5.3206,-5.3206,-5.3206,-5.3206,-5.3206,-5.3206,-5.3206,-5.3206,-5.3206,-5.3206,-5.3206,-5.3248,-5.3248,-5.3401,-5.3566,-5.3787,-5.3977,-5.4404,-5.4936,-5.5317,-5.5936,-5.6606,-5.6792,-5.7172,-5.7765,-5.7904,-5.7894,-5.7818,-5.7747,-5.7862,-5.7943,-5.7939,-5.8015,-5.8097,-5.8168,-5.8006,-5.7978,-5.7978,-5.7978,-5.7978,-5.7978,-5.7978,-5.7978,-5.7978,-5.7978,-5.8033,-5.8015,-3.9424,-3.9424,-3.9424,-3.9424,-3.9424,-3.9424,-3.9424,-3.9424,-3.9424,-3.9424,-3.9454,-3.9828,-4.0322,-4.098,-4.1639,-4.2327,-4.3052,-4.4251,-4.5311,-4.626,-4.7172,-4.8161,-4.8656,-4.9018,-4.9018,-4.9018,-4.9018,-4.9018,-4.9018,-4.9018,-4.9018,-4.9018,-4.9018,-4.9018,-4.9018,-4.9018,-4.9018,-4.9018,-4.9018,-4.9018,-4.9018,-4.9018,-4.9018,-4.9018,-4.9001,-4.9107,-4.9419,-4.9462,-5.009,-5.0929,-5.1292,-5.2054,-5.2831,-5.3146,-5.3206,-5.3206,-5.3206,-5.3206,-5.3206,-5.3206,-5.3206,-5.3206,-5.3206,-5.3206,-5.3206,-5.3206,-5.3206,-5.3206,-5.3206,-5.3206,-5.3206,-5.3206,-5.3206,-5.3206,-5.3206,-5.3206,-5.3295,-5.3381,-5.3444,-5.3545,-5.3682,-5.3944,-5.4111,-5.4111,-5.428,-5.4335,-5.4739,-5.4832,-5.5463,-5.6161,-5.6329,-5.6556,-5.7128,-5.7416,-5.7393,-5.7394,-5.7374,-5.7553,-5.7798,-5.8204,-5.8396,-5.8349,-5.8307,-5.8123,-5.7991,-5.7978,-5.7978,-5.7857,-5.7951,-5.7978,-5.7978,-5.7978,-5.8024,-5.8051,-5.8051,-3.9424,-3.9424,-3.9424,-3.9424,-3.9424,-3.9424,-3.9424,-3.9424,-3.9424,-3.9424,-3.9424,-3.9454,-3.9828,-4.0442,-4.11,-4.1743,-4.2772,-4.4173,-4.5238,-4.626,-4.7155,-4.808,-4.8719,-4.9018,-4.9018,-4.9018,-4.9018,-4.9018,-4.9018,-4.9018,-4.9018,-4.9018,-4.9018,-4.9018,-4.9018,-4.9018,-4.9018,-4.9018,-4.9018,-4.9018,-4.9018,-4.9018,-4.9018,-4.9001,-4.9152,-4.9419,-4.9821,-5.0185,-5.0572,-5.1189,-5.1922,-5.2527,-5.2955,-5.3206,-5.3206,-5.3206,-5.3206,-5.3206,-5.3206,-5.3206,-5.3206,-5.3206,-5.3206,-5.3206,-5.3206,-5.3206,-5.3206,-5.3206,-5.3206,-5.3206,-5.3206,-5.3206,-5.3206,-5.3272,-5.3272,-5.3359,-5.3505,-5.3663,-5.3796,-5.3924,-5.4118,-5.4439,-5.4452,-5.4484,-5.4484,-5.4535,-5.4566,-5.4566,-5.4817,-5.553,-5.5985,-5.6114,-5.6419,-5.6638,-5.687,-5.6974,-5.7037,-5.7172,-5.7473,-5.8253,-5.8625,-5.8091,-5.7877,-5.8101,-5.7973,-5.7751,-5.7703,-5.7626,-5.7753,-5.7881,-5.78,-5.7814,-5.8238,-5.8282,-5.8194,-3.9424,-3.9424,-3.9424,-3.9424,-3.9424,-3.9424,-3.9424,-3.9424,-3.9424,-3.9424,-3.9424,-3.9469,-3.9783,-4.0427,-4.1085,-4.1775,-4.2468,-4.399,-4.5222,-4.626,-4.7172,-4.808,-4.8736,-4.9018,-4.9018,-4.9018,-4.9018,-4.9018,-4.9018,-4.9018,-4.9018,-4.9018,-4.9018,-4.9018,-4.9018,-4.9018,-4.9018,-4.9001,-4.9107,-4.9107,-4.9107,-4.9046,-4.9001,-4.9212,-4.9504,-4.978,-5.0146,-5.0608,-5.1241,-5.1922,-5.2509,-5.2937,-5.3103,-5.3206,-5.3206,-5.3206,-5.3206,-5.3206,-5.3206,-5.3206,-5.3206,-5.3206,-5.3206,-5.3206,-5.3206,-5.3206,-5.3206,-5.3272,-5.3272,-5.3272,-5.3272,-5.3272,-5.3295,-5.3422,-5.3484,-5.3851,-5.4102,-5.4221,-5.4322,-5.4387,-5.4484,-5.4609,-5.464,-5.464,-5.464,-5.4731,-5.4924,-5.4952,-5.5007,-5.5358,-5.57,-5.581,-5.5938,-5.634,-5.6752,-5.6733,-5.6814,-5.6899,-5.7121,-5.7731,-5.7851,-5.7375,-5.7277,-5.7691,-5.7524,-5.7173,-5.7173,-5.732,-5.7529,-5.7658,-5.7553,-5.7639,-5.8122,-5.8271,-5.8029]}]]